GFSMW_prec_cloud_003.txt.gz
Cloud_Cover
21 8 26 28 24 49 5 65 97 88 98 34 84 88 94 58 18 9 7 5 3 0 0 0 2 97 100 100 49 98 100 100 100 100 100 100 100 100 100 100 100 100 100
5 26 65 50 5 31 73 80 40 33 7 14 99 100 100 100 100 96 53 52 21 3 4 0 0 2 94 100 100 91 100 100 100 100 100 100 100 100 100 100 100 100 100
5 17 17 5 30 7 5 7 40 25 95 97 93 88 100 100 100 100 100 94 91 74 6 5 5 5 5 86 100 100 47 100 100 100 100 100 100 100 100 100 100 100 100
5 5 5 5 5 5 5 5 5 11 15 60 68 34 37 100 100 100 100 100 99 100 81 100 95 77 13 7 46 99 35 15 43 100 100 100 100 100 100 100 100 100 100
31 44 76 52 52 72 68 65 56 88 32 59 95 97 100 100 100 100 100 100 100 100 100 100 100 94 100 99 84 85 98 88 67 90 100 100 100 100 100 100 100 100 100
100 100 100 90 100 100 81 99 100 100 71 88 82 100 100 100 100 100 100 100 100 100 100 100 100 100 100 100 76 89 93 87 100 95 77 72 97 100 100 100 100 100 100
100 100 93 100 100 100 100 100 100 100 100 100 100 100 100 100 100 100 100 100 100 100 100 100 100 100 100 92 100 86 30 83 100 100 100 94 27 74 89 97 76 47 98
100 100 100 100 100 100 100 100 100 100 54 100 100 97 100 99 100 100 100 100 100 100 100 100 100 100 100 100 87 68 75 16 100 100 100 99 100 100 33 12 68 16 53
100 100 100 100 100 56 100 100 69 96 55 100 100 90 87 100 100 73 100 100 99 97 84 92 100 100 100 100 100 55 5 91 44 99 100 100 100 100 92 5 25 95 57
98 98 100 100 100 100 90 90 95 100 100 100 100 100 100 100 100 100 100 100 100 100 100 97 100 100 100 100 100 80 17 14 71 45 99 97 19 30 46 6 5 62 87
75 57 88 100 100 99 100 100 96 100 100 100 100 100 100 100 100 100 100 100 100 92 74 82 97 93 90 93 94 100 100 80 5 5 5 5 4 2 0 0 4 78 93
99 87 94 73 100 100 100 100 100 100 100 100 100 100 100 100 100 100 100 100 96 92 99 83 72 97 81 8 6 6 5 5 5 5 5 5 3 4 0 0 5 5 61
91 76 89 100 100 100 100 100 100 100 100 100 100 100 100 100 100 100 100 100 100 74 65 45 21 5 4 4 5 5 5 13 5 5 62 67 63 7 5 0 5 5 5
76 73 100 100 100 100 100 100 100 100 100 100 100 100 100 100 100 100 100 100 100 59 22 5 5 5 3 5 5 5 38 71 100 100 100 92 75 30 6 62 36 5 35
95 98 100 100 100 100 100 100 100 100 100 100 99 96 100 100 100 100 100 100 100 89 23 5 5 1 5 5 5 12 82 97 100 100 100 100 100 100 100 100 91 81 67
70 100 99 100 100 100 100 90 99 100 100 100 100 100 100 100 100 100 100 100 49 5 5 5 4 5 5 5 5 5 96 100 100 100 100 100 100 100 100 99 95 100 78
100 85 99 100 100 100 100 97 100 100 100 100 100 100 100 100 100 100 100 100 29 5 4 5 5 5 63 36 72 5 92 100 100 100 100 100 100 100 100 100 97 97 92
49 97 96 100 100 100 100 100 100 100 100 100 100 100 100 100 100 100 100 32 5 1 5 5 21 80 97 72 11 78 100 100 100 100 100 100 100 94 100 100 100 100 94
100 91 100 100 100 100 100 100 100 100 100 98 100 100 100 100 100 100 56 5 0 2 5 17 92 99 82 86 9 78 100 100 100 100 100 100 100 100 100 100 100 100 100
99 98 97 99 100 100 80 100 96 100 100 100 100 100 100 100 100 75 6 0 5 5 8 94 97 100 90 52 85 100 100 100 100 100 100 100 95 99 100 100 100 100 92
100 98 100 100 96 76 98 95 100 100 100 100 100 100 100 99 65 3 0 0 5 5 46 84 87 90 29 77 98 100 100 100 100 100 100 100 100 100 100 100 100 99 100
100 100 100 100 100 100 100 96 100 93 100 100 100 100 100 47 4 0 0 5 25 79 100 100 86 93 99 100 100 100 100 100 100 100 100 100 100 100 100 100 100 100 100
100 99 100 100 100 100 100 94 100 100 100 100 100 95 54 5 0 0 5 5 61 100 100 99 100 97 98 100 100 100 100 100 100 100 100 100 100 100 100 100 100 100 100
100 100 100 100 100 100 100 100 100 100 100 100 82 16 5 1 0 5 5 26 100 100 100 98 100 100 100 100 100 100 100 100 98 100 100 98 100 100 100 100 100 100 100
100 100 100 100 100 96 100 100 100 100 100 95 22 5 5 5 5 10 67 82 100 100 100 100 100 100 100 100 100 100 98 100 100 100 100 100 100 100 100 100 100 100 100
100 100 100 100 100 100 100 100 100 100 100 58 55 44 5 5 38 69 76 99 98 24 43 100 100 100 100 100 100 100 100 100 100 100 100 100 100 100 100 100 100 100 99

GFSMW_prec_cloud_006.txt.gz
Cloud_Cover
5 5 5 5 5 5 5 5 12 36 61 33 38 5 5 5 12 26 5 5 20 99 100 100 100 100 72 45 5 0 0 5 49 5 100 100 100 100 100 100 100 100 100
35 34 30 100 97 86 100 61 44 87 100 100 100 100 100 100 63 26 10 58 5 38 5 70 100 100 25 70 5 5 3 4 3 14 89 100 100 100 100 100 100 100 100
100 100 100 82 100 100 100 100 100 100 98 100 100 63 75 100 100 100 87 5 5 5 8 39 8 14 8 38 99 100 50 5 5 5 3 65 100 100 100 100 100 100 100
35 12 100 100 100 100 100 100 100 100 100 50 100 100 100 99 100 100 100 37 37 50 38 30 52 95 56 93 100 100 100 100 25 5 5 5 7 100 99 100 100 100 100
100 100 100 100 100 100 100 100 100 100 100 91 84 100 100 100 100 100 100 100 100 100 77 26 87 98 98 21 53 74 96 100 100 78 21 5 5 5 29 100 100 100 100
100 100 100 100 100 100 91 88 24 100 100 76 100 100 100 100 100 100 100 100 100 100 100 100 96 98 100 98 64 66 100 100 92 100 100 72 74 25 26 7 94 100 100
100 100 100 100 100 97 85 18 17 100 100 100 100 100 100 100 100 100 100 100 100 100 100 100 100 100 98 100 100 100 100 100 100 100 90 70 80 5 18 5 4 39 100
100 100 70 100 100 100 97 9 5 7 46 100 100 100 100 100 100 100 100 100 100 100 100 100 100 100 100 100 100 100 100 99 100 100 100 100 100 99 50 5 5 4 17
64 9 84 83 78 48 56 60 84 53 100 100 100 100 100 100 100 100 100 100 100 100 100 100 100 100 100 100 100 100 100 100 100 100 100 100 100 100 100 96 24 5 3
16 93 43 31 24 6 5 5 33 100 100 100 100 100 100 100 100 100 100 100 100 100 100 100 100 100 100 100 100 90 59 67 100 100 100 100 100 100 100 100 100 91 23
32 80 96 95 5 5 5 55 80 100 100 100 100 100 100 100 100 100 99 100 100 100 100 100 100 100 100 100 90 79 42 24 50 82 94 100 100 100 100 100 100 100 85
88 95 45 16 100 7 85 91 35 100 100 100 100 100 100 100 100 100 100 100 100 100 100 100 100 100 100 100 47 29 38 5 5 5 5 5 8 20 58 94 27 51 14
100 100 70 28 100 83 94 86 86 96 100 100 99 100 100 100 100 87 95 100 100 100 100 100 100 100 100 100 92 15 5 5 3 3 2 5 5 5 2 5 5 5 8
100 100 66 42 10 72 87 100 94 94 100 100 100 98 100 100 100 89 89 100 100 100 100 100 100 100 100 54 10 3 5 6 5 10 5 32 59 93 55 5 5 31 74
100 100 85 20 75 86 97 100 94 99 87 91 86 86 93 42 98 100 98 100 100 100 100 100 100 100 16 5 4 5 5 5 5 5 5 5 5 5 5 11 11 7 37
65 64 48 100 97 100 100 100 77 88 96 78 85 98 100 100 100 100 100 100 100 100 100 100 59 5 2 2 5 5 5 5 5 16 36 5 5 33 32 24 21 8 38
33 92 79 95 77 76 84 100 100 94 100 100 100 100 100 100 100 100 100 100 100 100 100 41 3 0 2 5 5 6 11 53 6 6 62 90 90 94 97 80 88 100 98
86 18 73 77 100 100 100 100 90 100 100 100 100 100 100 100 100 100 100 100 100 100 12 2 0 3 5 5 5 5 19 14 21 18 59 86 53 79 93 94 99 87 82
99 94 82 51 16 71 50 100 100 100 100 100 100 100 100 100 100 100 100 100 95 6 0 2 0 5 5 5 5 18 81 100 87 56 63 79 90 100 100 100 100 96 94
100 100 100 100 100 100 100 100 60 77 92 100 100 100 100 100 100 100 100 76 4 0 0 0 31 5 14 5 5 94 100 100 100 99 100 100 100 100 100 100 100 100 85
100 100 100 100 100 100 99 96 96 89 97 63 97 100 100 100 100 100 40 5 1 0 5 92 16 6 99 96 94 100 100 100 100 100 100 100 100 100 100 100 100 99 98
100 100 97 72 100 97 94 100 100 93 91 100 97 100 100 100 100 27 7 0 2 8 30 5 33 48 98 86 89 99 100 100 100 100 100 100 100 100 100 100 100 96 100
100 96 100 100 100 100 100 100 100 100 98 100 100 100 100 79 39 5 0 5 5 5 9 100 97 100 97 99 100 100 100 100 100 100 99 100 100 100 99 89 99 100 100
76 100 100 100 100 96 99 100 100 100 100 100 100 100 88 62 22 2 5 5 10 8 86 93 100 100 99 100 100 100 100 100 100 100 100 100 100 99 96 98 100 100 100
89 93 99 100 100 94 100 84 100 100 100 100 97 57 54 5 4 5 40 78 85 54 100 100 100 100 100 98 100 100 100 99 100 100 98 99 100 100 100 100 100 100 100
100 99 100 100 100 100 80 99 100 100 100 93 10 6 5 5 30 10 5 22 5 82 100 100 100 100 100 100 100 100 100 100 99 100 100 83 91 100 100 100 100 91 76

GFSMW_prec_cloud_009.txt.gz
Cloud_Cover
100 100 100 100 100 100 100 22 5 56 92 90 100 53 72 98 5 5 87 100 94 15 100 90 12 5 5 5 5 5 5 5 5 5 6 20 6 0 18 79 100 100 100
86 86 8 46 16 5 5 5 6 5 5 9 38 50 24 57 100 100 98 5 28 69 100 100 96 55 73 11 5 5 5 5 5 5 5 13 100 82 4 5 81 100 100
49 100 44 5 31 94 90 64 5 5 5 5 28 18 5 68 100 100 14 37 99 84 99 100 100 100 99 98 5 5 5 5 5 5 40 8 26 100 95 5 4 100 100
100 100 100 100 40 65 60 49 21 5 6 5 5 5 5 6 36 100 99 100 100 100 88 98 95 100 100 99 93 100 66 60 7 5 51 6 42 100 100 100 21 5 93
99 100 100 100 99 26 100 96 89 100 94 68 5 5 5 38 100 100 100 100 99 100 100 100 100 100 100 99 88 57 30 100 100 76 24 56 94 100 100 100 100 76 58
6 88 100 100 100 100 100 100 100 98 98 96 92 66 84 100 100 100 98 83 80 96 100 100 100 100 100 100 100 100 100 100 72 67 100 65 87 100 100 100 100 100 95
7 33 57 99 100 100 100 67 100 100 58 6 19 25 84 95 100 100 100 100 100 100 100 100 100 100 100 100 100 100 100 100 100 92 95 100 74 79 100 100 100 100 100
5 19 48 85 85 14 6 15 74 68 59 5 5 5 5 5 45 100 100 100 100 100 100 100 100 100 100 100 100 100 100 100 100 63 49 34 58 96 49 100 100 100 100
73 96 100 99 97 5 5 82 64 32 5 5 5 42 74 99 94 98 100 100 100 100 100 100 100 100 100 100 100 100 100 100 100 100 100 100 92 100 89 87 97 100 100
60 35 41 23 20 36 6 78 91 5 5 12 96 100 100 100 100 100 99 100 100 100 100 100 100 100 100 100 100 100 100 100 100 100 100 100 100 100 100 100 100 79 92
83 59 50 95 71 68 100 56 60 29 5 100 100 100 100 100 100 100 100 100 100 100 100 100 100 100 100 100 100 100 100 99 83 63 43 36 28 67 100 100 88 72 26
97 88 87 83 88 78 88 81 98 100 100 100 100 100 100 100 100 100 100 100 100 100 100 100 100 100 100 100 100 100 93 47 99 100 100 100 100 63 12 61 84 98 23
100 100 100 100 79 16 35 100 100 100 100 100 95 100 100 100 100 100 100 100 100 100 100 100 100 100 100 100 100 100 100 100 100 100 44 40 8 5 4 5 5 5 10
94 100 100 94 94 100 100 91 100 100 100 77 92 96 100 100 99 98 57 93 98 92 99 100 100 100 100 100 100 100 100 70 5 5 29 17 5 5 5 5 5 5 5
100 100 100 100 100 99 100 100 100 100 88 96 100 63 54 9 7 69 82 98 98 72 95 94 79 91 100 100 100 42 5 5 5 5 2 4 5 5 6 5 5 5 67
100 99 68 10 13 69 61 97 98 30 56 100 100 100 100 95 100 100 100 100 100 84 88 94 100 100 100 82 5 5 5 5 5 5 5 5 5 5 5 5 12 11 92
52 81 52 68 43 60 94 13 51 91 33 100 100 100 100 100 100 100 100 100 100 100 100 100 100 90 1 3 5 5 3 5 5 5 5 5 5 5 5 5 31 72 96
5 5 8 39 64 45 9 24 12 96 100 100 98 100 100 100 100 100 100 100 100 100 100 100 20 0 5 3 3 3 5 22 5 9 5 22 33 70 88 95 76 58 90
5 10 5 14 8 58 50 31 60 80 69 13 75 59 74 100 100 100 100 100 100 100 100 9 0 5 5 5 5 46 99 74 59 77 65 76 100 100 99 100 100 90 66
82 30 5 5 29 100 32 100 100 88 59 100 100 100 83 91 100 100 100 86 82 88 5 1 5 15 16 5 5 61 100 88 54 100 100 100 100 100 100 100 100 100 100
100 96 30 93 97 61 87 100 81 66 100 100 97 100 99 99 100 99 30 42 59 5 5 5 5 5 5 5 44 100 100 100 100 100 100 92 99 100 99 100 100 96 95
70 100 29 29 89 76 98 100 94 89 99 100 95 100 100 100 100 92 51 8 4 5 5 5 5 5 5 71 74 99 89 97 100 100 92 98 99 95 93 100 100 100 100
13 5 8 74 100 100 100 100 100 100 100 100 100 100 100 100 100 31 5 5 5 5 35 5 5 5 44 100 100 85 93 100 99 100 100 100 100 100 100 92 100 94 100
76 57 94 57 72 94 99 100 100 100 100 100 100 100 100 100 34 5 5 5 49 96 8 9 87 85 95 94 100 98 100 100 100 100 100 77 76 96 100 100 100 100 100
51 68 46 94 97 96 97 72 100 100 100 100 100 100 100 10 5 5 5 5 10 39 100 100 100 100 100 100 100 100 100 100 100 100 93 48 53 100 100 100 100 100 100
100 100 100 100 100 100 81 84 98 100 100 100 97 74 8 5 5 5 5 5 24 89 89 100 100 84 96 100 100 100 100 99 100 100 66 97 92 100 100 100 100 96 100

GFSMW_prec_cloud_012.txt.gz
Cloud_Cover
100 100 100 100 60 5 5 5 5 5 5 5 5 5 5 5 5 5 5 5 5 5 5 5 66 88 96 19 18 5 32 11 34 5 5 5 5 5 4 5 38 99 11
44 0 2 72 16 5 6 5 5 5 6 52 8 42 69 27 8 5 5 29 18 5 49 14 5 5 72 83 21 5 38 16 5 11 5 5 13 5 11 5 6 5 30
4 2 0 0 2 4 16 14 15 5 12 55 29 8 16 18 9 5 5 16 32 14 32 76 66 87 98 95 58 81 100 100 100 74 43 8 4 5 24 6 21 5 12
5 43 64 5 5 9 55 19 76 83 58 11 6 5 5 5 5 5 5 5 5 5 5 43 99 100 100 100 93 81 100 100 100 42 100 88 64 5 18 59 98 74 64
11 83 12 5 5 5 5 7 68 85 100 100 100 100 76 84 28 32 5 5 5 5 5 10 79 89 86 90 100 100 100 100 74 39 70 86 80 68 5 46 81 100 93
28 6 5 22 19 8 85 83 100 100 100 100 100 100 100 100 81 10 5 5 5 22 65 99 100 99 74 76 100 100 100 100 100 89 74 13 93 84 21 1 2 36 100
82 39 7 6 68 100 93 97 100 100 100 84 90 89 45 18 6 5 5 8 76 91 100 100 100 100 100 100 100 99 76 100 100 100 46 66 75 53 7 7 43 4 40
8 42 9 5 5 38 31 82 100 74 81 98 100 84 6 5 5 5 9 5 15 93 75 100 100 100 100 100 100 98 100 100 100 100 100 100 78 100 100 74 12 5 5
5 84 96 7 96 58 89 100 75 21 85 25 5 5 56 100 100 98 69 86 94 100 100 100 100 100 100 100 100 100 100 100 100 100 100 100 100 100 100 100 85 5 7
92 54 69 46 8 27 39 34 44 26 45 5 5 6 16 80 72 15 41 48 97 100 100 100 100 100 100 100 100 100 100 100 100 100 100 100 100 100 100 100 93 10 5
76 40 93 84 53 37 39 98 71 44 54 90 100 98 25 6 5 5 40 31 92 100 100 100 100 100 100 100 100 100 100 100 100 100 100 100 100 99 86 76 86 100 47
50 28 5 12 98 100 99 58 62 100 60 61 6 1 5 5 5 5 82 93 89 95 100 100 100 100 100 100 100 100 100 100 100 100 100 96 99 98 94 50 48 96 100
42 82 100 100 100 85 90 72 16 9 5 5 5 5 5 16 7 66 94 100 100 100 100 100 100 100 100 100 100 100 100 100 100 100 100 100 100 100 100 87 5 5 5
100 100 31 49 99 36 5 4 6 4 6 5 8 18 5 88 49 71 86 96 92 100 100 100 100 100 100 100 100 100 100 100 100 92 54 20 5 5 5 5 5 5 5
81 33 68 67 96 11 5 5 4 41 92 5 24 87 88 99 100 100 90 97 98 100 98 98 78 40 48 98 100 100 99 37 5 5 2 3 1 5 5 5 5 15 5
100 100 99 44 8 72 36 29 6 11 5 51 100 100 100 100 100 100 100 100 100 100 100 100 100 100 100 100 57 7 5 5 5 4 5 5 5 5 5 5 5 5 42
60 68 8 5 5 5 5 5 5 13 9 100 100 100 100 100 100 100 100 100 100 100 100 100 100 100 100 94 5 4 3 5 5 5 5 6 5 5 17 12 7 5 16
25 5 30 32 25 21 8 5 100 48 5 32 21 10 5 85 100 100 100 100 100 100 100 100 100 98 39 3 5 5 5 5 5 6 29 89 100 100 100 100 100 100 96
96 94 100 100 100 90 82 58 87 98 90 100 27 48 94 82 100 100 100 100 100 100 100 98 45 6 5 5 5 5 5 5 58 18 9 48 96 49 93 98 100 100 98
100 100 99 87 100 100 36 100 100 100 91 13 63 79 97 97 74 68 90 100 100 86 53 5 5 5 5 5 5 19 99 93 62 84 77 82 83 76 100 100 100 100 99
100 100 100 95 100 30 100 93 96 100 91 83 98 100 100 100 100 100 100 100 62 38 5 5 5 5 5 5 5 86 100 100 100 100 100 78 64 81 100 100 100 96 74
50 38 34 12 43 100 100 100 100 100 97 100 100 100 100 100 100 100 100 75 58 25 5 8 5 5 5 5 44 99 88 96 100 100 99 100 100 89 100 100 100 91 100
87 96 83 97 99 65 66 66 100 96 85 91 100 100 100 100 100 100 100 66 9 5 5 24 5 5 5 28 90 100 83 89 100 99 92 82 30 7 76 98 100 90 97
100 94 97 100 98 99 98 100 100 100 90 93 96 100 100 100 100 92 27 5 5 5 5 5 67 87 29 71 100 95 99 100 100 100 97 63 52 79 100 97 99 100 100
53 100 86 93 100 100 97 99 100 100 100 100 100 100 98 74 28 5 5 5 5 44 75 21 100 98 78 98 100 100 100 100 100 95 95 95 74 76 89 100 89 99 99
98 98 99 100 99 99 100 100 100 100 89 95 88 84 24 5 5 5 5 5 5 5 5 76 99 65 98 100 100 100 100 100 100 100 97 84 78 100 100 100 91 46 92

GFSMW_prec_cloud_015.txt.gz
Cloud_Cover
1 5 5 0 0 0 0 0 0 5 5 5 5 5 5 72 71 30 78 37 26 5 5 5 5 5 5 5 5 5 4 5 5 3 5 5 5 5 5 5 5 5 0
0 0 1 1 3 0 4 0 0 2 5 5 5 4 5 5 5 4 8 46 58 58 50 14 5 5 5 5 5 5 5 5 5 4 1 4 2 5 17 5 5 10 4
4 2 5 4 1 0 2 3 5 3 4 5 5 20 5 0 0 4 2 3 2 5 5 5 5 5 6 5 5 5 51 82 91 87 71 33 27 9 38 82 94 50 4
0 15 5 5 5 5 5 61 95 100 100 100 100 100 100 100 100 100 100 92 53 76 61 5 41 91 90 83 69 7 5 18 63 87 100 100 100 100 76 100 20 5 5
86 84 6 6 30 82 100 100 98 100 100 100 100 98 99 100 100 99 92 16 18 5 5 6 80 95 100 100 96 82 45 80 96 92 100 100 100 100 77 5 97 71 33
25 20 18 100 100 100 100 82 25 23 6 28 40 45 5 24 7 5 5 16 8 4 2 5 5 67 100 90 100 88 100 98 100 89 100 100 99 65 97 100 7 14 6
73 76 66 39 86 86 36 5 5 5 5 5 6 44 26 10 12 0 4 4 0 0 0 2 5 39 100 100 75 91 100 100 100 100 100 100 100 100 100 57 5 0 6
66 62 5 42 8 5 5 5 5 16 16 12 12 20 14 13 5 5 0 0 0 0 0 0 3 84 100 98 100 100 100 100 100 100 100 92 100 100 100 87 15 3 3
5 5 5 5 5 5 5 4 5 5 5 1 2 27 60 25 4 0 0 0 0 0 1 5 5 71 84 100 100 100 100 100 100 100 100 100 100 62 59 86 70 11 3
13 8 42 5 5 5 5 5 5 6 25 12 20 5 5 0 0 0 0 0 4 5 5 25 100 100 100 100 100 100 100 100 100 100 100 96 50 80 91 66 75 57 5
3 5 5 5 5 11 51 51 5 9 70 73 5 5 2 4 0 2 4 5 5 5 86 92 96 100 100 100 100 100 100 100 100 100 100 100 100 81 76 88 79 42 22
5 5 5 40 84 56 98 87 97 100 100 55 5 10 42 3 0 5 5 69 94 98 100 96 77 100 100 100 100 100 100 100 100 100 100 100 100 100 99 72 14 6 5
84 67 96 100 97 98 99 97 98 100 83 8 5 5 4 5 24 61 89 100 100 100 100 96 80 89 99 99 100 90 71 97 97 100 100 100 100 100 100 100 99 76 5
98 100 100 67 11 21 33 54 100 76 78 96 75 89 98 86 100 100 100 89 100 100 100 100 100 100 100 100 100 100 100 97 99 100 100 100 90 41 9 5 3 5 5
33 7 31 60 79 6 10 90 73 12 48 100 100 100 100 100 100 98 100 100 100 100 100 100 100 100 100 100 74 47 47 96 100 100 32 4 3 5 5 36 46 88 98
88 84 100 78 38 9 82 54 80 99 8 73 79 100 100 100 100 100 100 100 100 100 100 100 100 100 100 100 100 67 96 84 8 5 5 5 5 5 5 5 5 5 92
65 95 100 100 100 100 100 100 100 98 7 65 19 13 81 61 100 100 100 100 100 100 100 100 100 100 100 100 100 92 5 5 5 5 7 15 50 83 98 84 99 89 86
100 100 94 54 100 100 60 97 100 76 68 80 94 100 98 100 100 100 100 100 100 100 100 100 100 100 100 100 82 9 5 5 5 5 6 84 69 73 73 100 100 67 45
43 100 77 100 100 87 50 63 94 99 100 100 96 89 57 79 100 100 100 100 100 100 100 100 100 100 100 99 11 5 5 5 5 11 18 74 97 61 82 100 100 100 100
91 89 98 24 70 77 30 93 75 77 100 98 100 100 88 100 100 100 100 100 100 100 100 100 100 100 93 80 5 5 75 96 99 82 90 100 99 77 79 100 100 100 100
100 100 88 53 5 49 100 99 100 100 99 84 99 100 92 76 90 94 100 100 100 94 93 96 88 20 5 5 5 52 100 97 96 90 84 81 90 100 99 100 90 100 100
84 23 45 36 69 100 99 99 50 81 89 100 90 68 76 85 80 100 100 74 24 33 29 56 18 5 5 5 5 77 81 90 100 99 100 65 91 92 97 76 75 100 100
8 66 99 100 100 95 100 100 100 99 100 96 88 91 68 61 98 59 5 5 5 6 5 41 10 5 5 5 5 5 98 100 96 100 100 100 85 96 100 98 100 100 100
76 71 95 68 22 98 100 100 94 100 100 100 100 100 100 89 17 5 5 5 5 27 6 5 60 89 53 5 18 94 100 100 100 100 100 100 87 88 100 100 100 100 100
93 73 60 9 60 56 53 46 66 91 90 100 97 49 5 5 5 5 5 5 5 60 63 16 94 100 99 77 100 100 100 100 100 100 100 97 84 100 95 93 87 89 87
100 98 5 5 5 5 5 5 12 72 58 10 5 6 11 12 12 6 5 69 22 5 5 5 99 99 91 100 100 100 100 100 100 100 100 94 98 100 100 100 93 66 99

GFSMW_prec_cloud_021.txt.gz
Cloud_Cover
0 0 0 0 0 0 0 0 5 5 5 5 5 5 5 5 5 4 1 5 5 5 5 0 1 4 1 3 0 5 4 5 5 5 2 0 0 0 0 0 0 0 0
0 0 0 0 0 1 5 5 5 5 5 5 5 5 5 5 5 5 5 5 5 5 5 5 5 1 0 0 0 0 2 5 5 5 5 5 2 0 0 0 0 0 0
0 0 0 0 0 0 4 5 5 5 5 5 5 5 5 5 16 5 9 5 5 2 2 5 5 5 1 0 0 0 0 5 4 60 55 8 5 4 5 5 1 0 0
0 3 2 0 0 5 5 22 12 24 77 50 17 12 8 45 5 5 5 3 5 5 5 5 0 0 0 0 0 0 4 5 12 26 68 7 5 5 5 5 19 4 3
5 5 5 5 5 5 7 56 94 48 52 5 5 6 8 5 15 8 5 5 5 5 5 5 5 3 0 0 4 0 2 3 85 64 100 83 75 6 5 5 7 5 5
5 5 5 5 18 63 96 89 72 18 18 14 13 5 49 100 43 31 47 5 43 26 21 37 5 5 5 5 5 5 64 3 6 7 92 100 100 99 76 6 10 39 32
33 98 44 77 57 80 81 82 72 94 100 98 100 100 96 75 28 56 27 7 5 5 5 1 5 5 8 20 44 84 99 100 100 100 100 100 100 100 100 100 100 87 89
5 11 5 7 17 11 24 21 100 78 85 97 100 56 79 100 100 100 100 5 5 5 5 5 48 64 13 7 36 98 100 100 100 100 100 100 100 100 100 100 100 100 99
5 5 5 5 6 33 99 100 63 45 27 5 46 58 61 19 28 5 99 99 39 5 21 93 100 100 100 100 100 98 100 100 100 100 100 100 100 100 100 100 100 100 83
29 54 80 64 92 100 62 25 5 5 5 5 10 5 5 6 60 81 82 53 71 30 52 84 77 87 98 98 100 99 88 100 100 100 100 100 100 100 100 100 100 100 98
72 100 88 53 33 26 22 5 5 5 61 80 24 8 15 9 5 25 18 100 87 94 82 99 92 94 100 100 100 96 100 100 100 100 100 100 100 100 100 100 100 100 100
100 86 24 5 5 5 7 86 77 97 100 5 100 100 96 74 5 68 100 100 92 100 96 99 100 100 100 100 100 100 100 100 100 100 100 100 100 100 78 20 16 7 5
36 19 9 14 8 80 79 37 95 100 98 100 100 100 98 36 28 21 39 100 97 100 100 100 100 100 100 100 100 100 100 100 100 100 100 100 100 100 100 100 100 98 89
31 26 66 55 70 100 100 100 100 100 100 100 92 99 41 38 51 100 100 91 74 100 100 93 98 100 100 98 96 85 81 98 100 100 100 100 100 100 100 100 100 60 26
89 56 100 100 100 100 98 100 100 100 100 100 100 28 99 77 47 46 81 96 100 27 82 100 96 99 100 100 100 100 100 99 100 100 100 50 76 100 100 100 76 100 100
100 100 97 99 94 19 100 100 100 100 100 81 24 54 100 100 100 100 66 81 94 75 34 84 61 99 100 100 100 100 60 53 68 100 100 100 91 49 60 74 96 100 100
100 97 97 78 97 100 100 100 100 100 94 74 30 38 34 56 50 46 87 61 23 5 5 27 38 46 48 5 13 47 71 84 88 54 39 88 94 91 96 100 100 100 100
100 95 87 100 100 100 100 96 31 17 5 5 5 8 5 31 5 5 5 5 5 5 5 40 19 26 46 35 46 54 68 99 97 83 99 98 99 100 100 100 100 100 100
100 98 100 100 100 97 25 26 100 96 64 22 28 5 60 100 96 99 99 32 5 5 19 50 52 33 12 3 5 40 100 100 92 99 100 100 100 98 96 100 100 100 99
100 100 100 100 100 100 77 5 5 13 90 100 100 70 93 100 100 60 2 5 5 5 5 5 5 5 5 5 5 62 99 100 100 100 100 98 88 83 100 100 100 94 97
100 97 100 100 81 100 100 55 60 22 6 17 62 40 26 38 5 3 5 5 5 5 5 5 5 5 5 5 5 71 100 100 100 100 100 100 97 98 100 86 95 98 99
96 87 97 100 100 100 99 99 73 5 5 3 5 5 5 4 2 5 5 5 5 60 25 67 89 100 98 97 11 91 99 100 100 99 100 100 92 89 81 84 100 99 88
100 100 100 100 100 100 100 91 5 5 5 5 5 5 5 5 5 5 5 58 83 99 100 100 100 100 100 100 88 91 95 100 100 100 100 100 100 100 76 96 97 94 100
100 100 100 100 100 100 100 95 90 6 5 5 5 5 5 5 11 65 82 98 100 99 100 100 100 100 100 100 100 100 100 100 100 100 100 100 100 100 85 95 99 100 100
100 100 100 100 98 20 41 100 100 50 5 25 5 5 5 5 33 21 37 93 99 90 99 100 100 100 100 100 100 100 100 100 100 100 100 100 100 100 100 100 100 100 100
100 100 100 38 5 8 96 100 100 69 40 93 5 5 5 5 6 30 87 20 6 5 5 26 94 100 100 100 100 100 100 100 100 100 100 100 100 100 100 100 100 100 100

GFSMW_prec_cloud_024.txt.gz
Cloud_Cover
0 0 0 0 0 0 0 0 4 0 5 5 5 5 5 5 5 5 5 2 0 5 3 3 5 5 14 70 34 11 17 5 5 3 0 0 4 0 0 0 0 0 0
0 0 0 0 0 0 0 0 3 5 5 38 11 5 5 5 5 5 6 7 6 24 8 5 15 39 9 23 32 5 2 0 0 0 4 5 6 26 2 1 0 0 0
0 0 0 4 0 0 2 5 5 5 70 33 5 5 8 8 14 62 57 8 57 72 9 5 5 4 5 5 5 5 5 1 2 41 44 10 76 94 97 20 3 0 0
5 2 0 0 3 5 5 6 9 5 5 5 5 63 86 73 11 8 11 98 96 42 45 46 8 5 4 3 6 23 62 88 91 86 66 65 5 81 100 99 23 5 5
5 5 5 5 9 6 46 69 98 76 100 100 60 38 76 100 96 84 41 77 50 33 83 71 5 7 5 5 5 5 5 5 12 50 98 100 100 100 100 100 100 100 26
5 5 5 60 54 32 50 100 100 99 100 100 94 68 24 5 5 5 5 15 13 5 26 45 40 78 17 5 13 31 60 71 100 100 100 100 93 98 100 100 98 100 100
5 5 5 5 5 55 41 65 78 60 20 46 28 5 5 9 45 20 5 14 92 100 100 100 77 96 79 95 96 100 86 98 100 100 100 100 100 100 100 100 100 100 92
5 5 5 5 22 13 5 13 8 5 48 53 7 13 9 10 12 65 98 100 100 100 97 74 64 92 99 100 100 100 100 100 100 100 100 100 100 100 100 100 100 100 100
5 5 9 58 8 9 72 5 5 5 8 19 6 5 29 97 99 100 100 100 46 65 46 100 100 100 100 100 99 100 100 98 100 100 99 100 100 100 98 100 100 100 100
5 5 5 11 36 15 5 5 5 27 35 10 9 42 56 33 96 100 98 59 73 73 100 100 100 100 100 100 100 100 100 100 100 94 98 100 100 100 100 100 100 100 100
19 20 72 33 64 82 46 5 26 41 60 94 85 23 62 83 100 98 91 92 99 100 100 100 100 100 100 96 100 100 100 100 100 100 100 100 100 100 100 100 100 100 100
20 57 85 92 80 8 23 64 68 44 33 36 65 83 100 100 73 99 58 46 100 100 98 100 100 100 90 100 100 100 100 100 100 100 100 100 100 100 100 100 100 100 100
100 72 37 13 76 73 56 50 44 100 100 100 100 100 100 90 100 99 98 97 90 92 80 81 100 88 62 96 94 98 94 97 100 100 100 100 100 100 100 100 100 100 85
74 52 73 92 97 97 97 96 97 100 98 100 100 100 100 100 100 100 100 100 100 100 100 96 83 74 48 75 99 100 100 98 92 91 86 98 97 100 100 100 100 100 99
57 68 93 100 11 73 100 100 100 100 100 100 100 100 100 94 100 100 100 100 100 100 90 54 7 5 5 5 19 56 81 95 97 100 100 88 48 100 90 82 92 84 73
85 76 55 55 100 100 100 99 62 99 100 100 31 100 54 56 66 98 93 44 5 5 5 5 5 5 5 5 5 5 25 75 53 23 67 99 100 100 100 76 78 85 100
100 100 100 100 100 81 100 100 100 100 91 78 82 100 94 83 70 29 70 24 37 5 5 5 5 5 32 5 5 5 5 5 62 100 100 88 66 85 100 100 100 96 100
100 100 100 100 100 100 100 100 67 80 99 41 98 100 99 91 95 14 86 47 5 5 5 5 9 31 66 5 5 5 9 95 100 100 100 100 98 100 100 99 100 100 100
100 100 100 100 100 100 68 95 98 10 82 98 100 100 100 74 13 65 5 5 5 5 5 7 78 96 96 79 6 20 100 100 100 99 100 100 100 100 100 100 100 100 100
100 100 100 100 91 100 92 28 67 87 99 79 80 13 9 61 20 5 5 5 5 9 89 88 95 99 94 99 100 92 100 100 100 100 100 100 100 97 100 100 100 100 95
100 100 94 70 95 92 87 39 10 47 87 62 7 5 73 20 5 5 5 5 68 98 98 98 100 98 100 94 96 98 100 100 100 100 100 100 100 100 100 99 100 100 98
100 98 96 97 98 20 5 5 21 99 71 34 5 5 13 5 5 5 5 78 100 100 100 100 98 100 96 100 100 76 100 100 100 100 100 100 100 100 100 100 100 100 100
100 100 100 47 5 75 89 85 94 96 12 18 50 45 5 18 81 86 90 100 100 100 100 100 100 100 100 100 100 99 99 100 100 100 100 100 100 100 100 100 100 100 100
100 76 4 5 5 80 98 100 100 100 96 98 100 49 19 96 92 85 97 99 100 100 100 100 100 100 100 100 100 100 100 100 100 100 100 100 100 100 100 100 100 100 100
5 5 5 5 7 97 100 100 100 100 98 100 100 44 99 99 91 97 96 93 100 86 100 100 100 100 100 100 98 100 100 100 100 100 100 100 100 100 100 100 100 100 100
100 98 6 5 5 59 76 94 95 92 100 100 100 99 100 100 100 100 100 100 51 13 15 49 74 100 99 100 100 100 100 100 100 100 100 100 100 100 100 100 100 100 100

GFSMW_prec_cloud_027.txt.gz
Cloud_Cover
0 0 0 0 0 0 0 0 0 3 5 5 5 38 77 63 5 5 5 5 5 5 5 5 5 5 5 5 5 10 24 52 93 75 29 93 100 100 12 0 5 5 3
0 0 0 0 0 0 0 0 5 5 5 8 96 100 100 81 71 35 15 68 7 62 85 95 99 48 5 5 47 34 19 5 5 7 5 7 5 63 6 6 5 5 5
0 0 0 0 0 0 0 1 5 5 85 100 79 51 99 94 90 92 82 89 100 78 13 19 5 5 5 17 6 14 71 90 100 100 61 12 5 36 31 100 95 29 48
0 0 0 4 5 2 4 5 5 5 5 5 5 75 88 46 9 78 93 72 5 21 5 5 5 5 5 5 29 93 67 13 5 37 5 51 93 53 38 77 100 100 99
0 0 1 5 5 5 5 5 5 5 5 5 19 40 29 55 12 53 53 69 56 18 68 100 99 65 5 5 16 55 50 7 5 5 7 5 5 44 88 91 100 100 98
0 3 5 2 5 5 5 16 42 25 72 94 88 100 91 72 71 31 35 48 82 96 49 5 5 19 95 100 87 71 97 53 71 100 99 98 74 100 100 100 100 100 100
0 2 4 5 5 32 96 100 100 100 81 96 96 100 60 54 45 72 100 100 36 6 11 51 89 64 98 93 100 100 100 99 93 90 100 100 100 100 100 100 100 100 100
0 0 5 25 52 81 100 100 84 9 5 22 94 49 98 97 77 21 23 76 59 20 66 99 100 100 100 100 100 100 100 94 86 84 100 100 98 100 99 100 100 100 97
5 5 21 100 84 56 50 43 12 13 59 7 31 38 98 100 100 98 75 41 67 91 100 100 100 100 100 98 100 100 100 100 96 100 100 100 100 100 100 100 100 100 100
5 47 97 47 39 22 5 12 19 42 99 100 81 98 76 28 71 87 6 6 98 100 100 97 99 100 100 100 91 86 100 100 100 100 100 100 100 100 100 100 100 100 100
22 96 52 48 90 100 89 100 59 24 21 45 16 10 43 92 30 8 90 100 100 100 91 63 57 16 80 100 100 93 75 76 98 100 100 100 100 100 100 100 100 100 100
66 61 100 100 100 100 66 29 8 8 26 42 89 100 99 20 84 100 100 88 54 70 80 97 99 100 81 92 91 74 99 100 99 99 100 100 100 100 100 100 100 100 100
99 100 100 100 100 98 88 49 91 100 100 100 100 100 100 100 88 42 44 77 81 82 99 100 93 73 99 92 98 58 94 61 14 5 5 8 5 35 98 100 100 100 100
95 100 100 100 54 72 100 100 100 100 100 100 96 40 11 46 97 62 11 100 95 97 100 100 99 100 100 100 100 93 23 5 5 5 5 5 46 62 73 73 86 100 100
100 72 37 94 100 100 92 100 99 94 77 58 14 35 62 100 53 55 21 57 59 92 96 100 100 82 63 86 10 0 5 5 5 5 5 31 86 22 24 35 92 82 69
100 95 100 97 100 100 98 100 99 41 97 94 5 40 83 100 92 73 84 100 99 100 98 5 5 80 92 96 5 5 2 5 5 29 60 90 100 100 100 86 25 100 100
99 100 99 100 100 100 100 100 100 90 6 5 49 71 100 97 100 100 100 100 95 8 5 5 73 99 100 91 5 5 5 5 62 100 100 100 100 100 100 98 98 99 97
49 83 96 100 100 100 100 100 98 16 5 11 72 100 99 100 89 100 100 90 5 5 5 49 66 98 100 87 5 5 31 95 99 100 100 100 85 91 73 96 100 100 100
83 95 100 99 100 100 67 8 5 5 5 48 100 83 100 100 100 100 55 5 6 21 68 86 71 69 95 100 56 65 99 100 100 100 100 100 93 100 100 100 100 96 96
98 100 96 59 83 99 79 66 74 84 100 100 100 100 100 100 100 75 5 12 63 100 67 58 84 99 97 99 87 40 99 99 100 100 100 100 100 94 92 99 100 84 100
74 73 92 75 89 99 100 100 100 100 100 100 100 96 100 100 92 70 18 94 100 85 44 38 62 92 99 99 98 97 100 99 100 100 100 100 100 100 100 98 100 100 100
93 97 21 5 11 100 100 100 100 100 100 100 100 100 100 100 99 63 98 100 100 100 39 94 90 100 100 100 100 100 67 99 100 100 99 100 100 100 100 100 100 100 100
65 72 76 88 99 76 8 100 100 88 81 99 68 100 100 100 100 86 100 100 99 99 100 100 100 100 100 100 100 88 95 100 100 100 100 100 100 100 100 100 100 100 100
94 55 10 5 10 86 100 100 100 39 97 99 91 100 100 100 100 100 100 100 100 100 100 100 100 100 100 100 100 99 100 100 100 100 100 100 100 100 100 100 100 100 100
2 5 6 85 100 98 100 100 100 99 100 80 99 100 100 100 100 100 100 99 100 78 53 76 97 100 100 99 99 100 100 100 100 100 100 100 100 100 100 100 100 100 100
5 17 23 30 59 100 98 62 58 100 74 90 100 100 100 100 100 100 99 100 58 18 5 5 14 81 74 98 100 100 100 100 100 100 100 100 100 100 100 100 100 100 100

GFSMW_prec_cloud_030.txt.gz
Cloud_Cover
0 1 1 0 0 0 0 0 0 0 0 0 5 5 5 50 62 34 63 9 86 11 5 11 55 28 4 0 0 3 5 5 5 5 5 5 5 5 5 20 26 29 5
0 0 0 0 0 0 0 0 5 5 5 14 52 82 95 81 50 90 47 82 5 5 5 5 2 0 3 2 2 2 5 5 5 5 5 2 5 5 5 14 53 5 12
0 0 0 0 0 0 3 5 5 5 14 5 5 3 5 7 72 80 100 83 58 38 5 27 5 5 5 7 12 3 3 4 5 5 7 16 3 4 16 72 27 5 84
0 0 0 0 0 3 5 5 1 5 5 5 4 5 5 5 12 61 48 5 23 96 96 95 39 5 5 5 5 5 5 1 3 5 4 12 16 52 48 5 5 5 52
0 0 0 0 0 0 0 3 5 6 5 5 8 48 100 87 32 69 100 100 100 100 100 92 8 34 14 7 10 14 14 8 41 55 57 23 11 5 76 13 7 100 62
0 0 0 0 0 1 5 5 5 5 6 5 29 54 100 100 100 100 100 100 100 90 84 36 38 38 100 100 76 22 33 99 92 28 28 62 100 100 100 100 100 100 8
0 0 0 0 1 9 8 7 8 6 21 78 100 100 100 100 100 100 96 83 70 94 100 100 100 100 100 76 61 80 100 83 98 96 84 100 88 100 100 100 100 100 96
0 0 2 5 5 5 5 18 25 99 100 100 100 100 100 83 58 55 97 100 100 100 100 100 94 16 7 100 81 100 100 100 100 41 100 95 83 82 99 100 100 100 87
3 4 34 57 57 10 5 11 100 100 56 52 99 97 100 100 100 100 100 100 60 5 5 5 5 5 5 36 99 96 92 92 97 100 100 100 100 100 83 100 100 100 90
6 55 19 5 5 5 5 87 100 100 100 100 100 100 100 100 100 91 46 5 5 5 5 7 6 21 7 5 5 22 78 48 6 69 32 76 100 100 100 100 90 100 100
5 6 12 23 44 86 100 100 100 100 100 100 86 32 6 9 9 16 38 5 5 1 12 91 22 48 100 86 75 62 23 91 34 95 88 89 93 66 95 100 100 78 99
92 5 30 90 100 100 93 100 76 58 7 17 5 57 25 43 57 11 68 48 24 97 100 97 100 99 100 100 98 11 86 30 66 100 90 94 78 98 17 25 76 92 98
100 74 80 86 67 84 86 39 5 41 84 72 98 67 27 100 100 81 6 3 5 65 59 79 84 96 65 87 76 17 98 79 6 3 0 4 5 24 70 59 57 71 23
29 36 19 27 49 98 100 7 44 94 96 92 93 100 48 59 9 5 5 5 5 5 14 57 80 78 5 5 5 29 5 5 3 0 0 0 4 5 41 72 40 5 22
22 31 49 78 87 97 99 88 96 93 67 94 70 41 5 5 3 21 23 44 5 23 60 46 31 5 5 5 75 6 5 5 0 0 0 1 5 12 84 100 76 30 16
5 5 5 5 33 99 86 91 100 100 64 5 66 54 100 59 5 21 41 9 78 75 100 6 5 45 100 55 5 1 5 4 5 0 1 5 27 25 100 97 76 90 12
90 58 9 43 98 100 100 89 8 35 6 5 62 96 55 49 19 5 58 92 75 100 9 5 6 64 39 5 5 5 5 5 5 12 64 10 10 66 98 79 94 80 95
41 51 63 46 100 94 55 61 100 60 5 4 19 18 26 5 3 39 100 99 85 23 5 5 84 59 5 2 5 5 5 5 5 59 7 14 5 5 42 55 17 30 89
22 88 100 85 14 39 95 89 75 72 96 13 100 100 100 52 5 6 100 100 88 47 40 98 100 12 3 3 65 68 10 5 5 5 22 100 98 93 92 97 70 10 13
100 99 31 86 84 100 100 100 94 98 98 32 100 61 100 100 100 16 77 100 100 70 97 100 100 6 5 67 100 100 99 91 72 6 15 88 100 100 99 91 97 83 70
37 54 8 5 5 5 5 5 3 46 6 22 100 98 87 100 100 13 85 100 100 100 100 100 28 5 44 99 99 64 81 100 98 48 76 81 100 100 100 99 95 90 100
5 5 5 5 26 5 5 17 56 18 23 4 6 100 100 100 93 95 99 100 100 100 100 17 5 9 100 99 100 98 100 98 52 100 100 100 100 100 100 100 100 100 100
5 5 56 68 8 3 96 100 16 33 5 4 11 100 100 100 99 100 97 100 100 100 43 10 28 88 50 6 86 13 63 60 99 93 100 100 100 100 100 100 100 100 100
6 84 20 2 4 30 16 5 18 5 2 5 90 87 46 97 81 100 99 99 100 41 61 96 12 5 5 5 5 42 81 100 96 100 100 100 100 100 100 100 100 100 100
34 18 5 5 5 10 5 5 41 5 5 19 85 26 68 94 65 95 72 100 27 5 55 42 5 5 5 39 100 100 100 100 100 100 100 100 100 100 100 100 100 100 100
6 5 5 5 3 18 5 20 5 5 50 98 88 33 91 86 54 11 42 66 54 5 43 5 13 10 32 94 100 100 100 100 100 100 100 100 100 100 100 100 100 100 100

GFSMW_prec_cloud_033.txt.gz
Cloud_Cover
0 3 5 5 5 65 10 1 0 0 0 0 3 5 5 5 6 38 66 100 26 57 76 11 5 1 4 3 5 5 5 5 20 5 5 5 5 5 8 23 35 80 100
0 0 0 2 5 27 40 1 5 5 5 5 5 5 5 5 5 20 89 77 40 5 5 5 5 5 5 5 13 29 5 5 5 5 5 5 5 5 5 12 30 37 50
0 0 0 0 0 0 4 5 5 5 5 5 5 5 3 0 4 5 5 5 5 5 5 5 5 5 5 5 5 5 5 5 5 10 7 57 26 100 100 100 99 95 11
0 0 0 0 4 5 5 1 0 0 5 3 0 0 3 5 33 26 33 46 28 5 5 5 9 5 5 18 18 5 10 79 98 100 100 99 100 100 76 96 89 91 66
0 0 0 0 0 0 0 0 4 2 5 5 5 39 79 95 100 98 68 84 100 100 100 100 100 100 80 65 100 99 96 100 100 98 8 99 88 50 53 20 3 7 17
0 0 0 0 0 0 0 1 0 0 2 1 4 89 99 100 100 100 100 100 100 100 100 100 70 98 100 81 5 5 5 5 5 57 40 84 48 85 100 96 68 100 10
1 0 0 0 0 0 1 3 5 57 97 95 99 59 19 12 6 22 18 98 99 100 100 69 44 17 5 4 4 5 5 24 6 55 71 100 46 95 100 100 100 100 74
4 1 0 0 0 0 0 1 32 100 83 43 100 44 6 23 46 85 100 100 100 55 14 12 5 76 21 5 5 5 4 5 5 9 35 100 100 100 100 100 100 100 88
5 5 5 5 5 14 8 34 100 100 100 99 100 100 100 100 100 100 100 86 5 34 75 16 74 5 2 5 5 5 5 5 5 5 5 5 6 82 93 100 98 100 100
78 39 45 5 6 46 90 61 24 37 100 100 100 100 100 100 100 100 52 79 82 77 94 56 5 19 51 78 35 5 15 5 6 5 5 16 27 85 100 100 100 92 100
28 20 39 100 81 58 25 76 100 100 84 88 100 97 79 100 100 96 63 5 1 3 5 12 94 100 99 100 100 100 94 98 64 81 85 13 74 66 51 27 68 81 75
100 30 58 40 36 70 98 100 81 96 90 70 38 14 96 76 64 63 5 5 5 5 5 48 99 100 100 100 100 99 99 92 44 28 90 38 99 3 0 2 39 55 39
93 29 10 46 100 94 69 83 50 22 20 34 5 32 4 5 1 0 5 3 0 5 5 52 74 29 82 96 95 67 5 7 63 99 100 86 6 0 0 0 1 1 3
7 42 75 77 9 24 57 5 7 5 30 76 14 2 0 0 0 5 5 5 1 5 10 98 92 29 5 5 3 5 56 37 22 4 3 1 0 0 1 5 5 30 25
60 5 5 5 5 5 5 5 41 99 15 5 3 0 3 1 1 5 5 4 0 5 5 58 58 88 7 5 5 5 5 5 5 5 4 1 4 48 6 100 40 20 57
5 5 5 11 5 18 74 100 98 14 5 5 93 100 95 100 100 64 64 24 12 60 5 5 88 5 0 5 5 5 5 5 5 5 5 5 5 5 69 99 82 100 100
22 13 5 48 46 17 81 13 100 76 38 5 89 96 98 30 58 100 100 100 100 98 14 37 95 5 26 5 5 5 5 5 5 5 5 0 4 5 5 18 76 97 99
5 5 5 5 63 89 60 25 7 38 52 100 45 52 20 33 98 100 96 100 100 100 100 31 28 94 100 5 5 5 5 5 5 5 5 5 5 5 26 57 39 5 5
5 5 54 100 99 75 33 5 5 5 5 1 0 6 5 94 97 100 100 99 99 99 100 98 68 79 10 5 5 5 7 26 5 5 5 12 5 5 92 89 70 50 6
40 96 100 78 5 4 2 18 12 1 4 5 7 4 0 40 100 100 100 100 98 98 100 71 96 6 5 5 7 11 28 43 16 8 90 100 82 84 99 100 99 94 52
73 94 86 5 5 5 7 5 0 10 5 5 5 3 3 5 100 100 100 97 97 49 73 99 11 5 5 5 42 91 95 100 95 100 80 94 98 95 100 99 100 91 90
30 16 5 5 5 5 2 2 10 16 5 1 1 3 6 50 91 98 100 100 84 32 5 6 5 5 5 1 6 6 26 90 100 75 98 100 100 100 100 100 100 100 100
5 5 5 5 5 4 0 5 5 2 2 5 5 5 77 90 100 100 100 89 5 5 5 5 5 18 5 5 5 5 44 51 33 53 100 100 100 100 100 100 100 100 100
5 5 5 5 2 0 0 1 5 5 4 5 5 11 5 41 96 88 99 50 5 5 5 5 7 60 5 5 7 13 42 92 32 80 100 100 100 100 100 100 100 100 100
5 5 5 4 0 0 4 5 98 60 7 13 37 100 92 100 100 98 49 5 23 5 5 5 28 56 75 37 96 100 100 100 100 86 100 100 100 100 100 100 100 100 100
5 2 4 0 1 5 5 21 84 94 72 100 37 99 84 99 80 25 5 27 15 5 5 5 26 70 74 22 95 100 100 100 100 70 100 100 100 100 100 100 100 100 100

GFSMW_prec_cloud_036.txt.gz
Cloud_Cover
0 0 0 0 5 4 5 50 100 56 66 29 0 0 5 2 5 5 18 58 99 100 100 99 68 23 5 5 6 5 5 5 5 5 5 18 5 5 58 24 5 5 32
0 0 0 9 3 3 24 44 0 0 4 5 5 5 5 18 62 89 85 77 84 98 99 43 14 63 84 3 1 0 4 5 5 5 5 5 41 87 95 100 100 100 100
5 4 4 0 0 0 1 0 0 0 1 5 5 22 98 17 31 17 5 5 5 4 3 4 0 1 0 2 4 5 5 4 5 5 38 23 14 17 100 100 70 65 54
90 61 44 65 3 0 0 0 13 60 6 5 5 6 5 82 52 42 31 5 5 4 0 0 0 0 3 5 29 77 24 57 98 5 6 6 6 5 6 17 33 11 17
95 98 100 99 0 1 3 3 0 0 0 0 4 8 15 94 100 100 100 100 100 94 100 100 100 100 99 27 6 6 5 5 5 5 5 7 5 5 7 14 9 33 4
97 42 58 5 5 5 2 2 0 1 2 5 5 65 100 100 100 100 100 100 92 93 98 95 73 31 59 99 54 5 8 5 6 6 30 99 100 100 100 100 99 100 84
78 94 83 99 92 96 32 5 5 5 47 43 64 26 21 88 93 34 16 5 5 12 43 97 100 100 78 11 5 64 99 99 100 82 33 16 93 67 100 100 87 49 53
100 100 100 67 6 4 5 30 92 100 100 100 93 57 92 98 59 79 99 100 100 100 100 92 63 10 5 5 7 6 6 5 5 5 7 5 28 16 83 91 100 100 72
100 80 78 23 45 67 55 62 78 100 100 100 100 92 34 86 100 100 100 100 92 20 5 2 5 5 11 100 39 5 6 32 5 5 13 58 69 10 56 78 93 100 100
77 100 87 100 58 32 23 12 22 46 85 62 61 100 62 62 66 71 47 4 0 1 0 5 5 5 82 99 75 52 90 92 100 100 100 97 67 58 67 99 100 86 90
73 91 93 52 100 71 37 44 93 34 21 98 76 25 36 7 5 1 0 0 0 4 0 0 5 5 5 5 10 14 30 67 77 55 68 100 37 100 91 73 42 28 1
78 89 99 91 22 5 6 27 5 34 11 5 5 5 5 1 0 0 0 0 1 5 5 0 5 4 3 5 5 5 5 5 5 6 90 100 100 64 35 5 5 0 0
80 98 100 96 98 64 34 12 5 5 5 5 2 3 4 5 0 4 1 0 4 5 44 3 9 4 39 5 5 5 5 5 10 100 100 79 28 0 0 2 5 1 1
51 84 81 90 86 98 14 40 47 17 5 4 31 5 5 5 5 10 6 47 80 98 100 100 98 74 95 73 18 4 5 5 5 5 5 5 3 5 15 59 76 44 16
45 88 97 100 100 100 100 100 34 16 95 98 26 25 5 40 61 7 55 81 100 100 100 100 100 100 96 58 2 5 5 5 11 5 5 1 2 5 58 100 100 100 88
96 78 72 100 100 89 11 14 93 100 100 74 64 81 74 27 6 6 91 31 82 100 100 100 100 100 90 0 5 5 6 5 5 5 4 4 3 1 5 5 5 98 100
5 47 80 60 35 5 20 100 100 87 99 75 17 1 0 1 3 5 5 30 100 100 100 100 100 95 5 5 5 5 5 5 5 5 5 5 5 5 5 5 5 20 28
7 15 17 16 7 89 68 51 18 5 5 5 1 0 0 4 78 46 56 27 100 100 100 100 99 20 94 5 5 5 5 5 5 5 5 5 5 5 34 77 91 99 86
18 41 14 10 22 5 7 14 5 30 23 1 0 3 5 5 2 56 85 16 100 100 100 97 82 83 16 5 5 5 11 5 5 5 5 22 50 75 100 100 92 67 100
6 5 5 5 5 5 5 6 5 5 0 0 1 5 5 3 15 98 45 45 98 100 100 71 99 5 5 5 6 37 89 69 39 62 16 12 100 100 100 100 100 100 100
5 5 5 5 5 5 5 4 0 0 0 0 5 5 5 5 92 99 83 93 100 100 99 71 5 5 5 4 5 28 5 20 99 54 31 23 100 100 100 100 100 100 100
5 5 5 5 5 5 0 0 0 0 2 5 5 5 5 5 11 21 86 98 100 100 59 5 5 5 5 5 5 5 13 50 36 64 66 94 100 100 100 100 100 100 100
5 5 5 5 4 0 0 0 0 4 5 86 37 5 27 5 81 86 90 100 100 100 8 26 46 40 5 5 5 4 47 5 46 78 100 100 100 100 100 100 100 100 100
12 5 5 4 0 3 0 0 1 12 92 80 100 43 95 99 96 100 100 100 58 21 35 16 23 69 5 5 5 29 56 5 36 73 38 60 100 100 100 100 100 100 100
5 5 5 3 5 4 2 4 5 60 100 100 100 100 100 94 100 100 83 5 32 5 5 10 31 66 82 21 73 100 100 82 97 76 53 64 99 100 100 100 100 100 100
5 5 5 5 2 2 5 5 30 94 100 100 100 100 100 100 100 100 100 100 78 5 5 42 59 44 63 41 92 100 95 14 83 36 80 65 100 100 100 100 100 100 100

GFSMW_prec_cloud_039.txt.gz
Cloud_Cover
0 1 0 1 4 5 54 98 100 100 100 100 100 100 92 13 5 65 99 100 100 100 100 100 62 5 5 5 71 35 5 5 42 99 100 100 100 100 100 100 100 100 90
5 2 0 11 12 89 72 71 43 41 43 99 97 37 5 5 5 5 4 1 2 3 0 1 16 43 86 97 55 3 5 5 5 5 5 19 69 13 19 43 55 29 72
16 4 5 51 5 5 8 2 58 66 45 4 5 4 5 5 2 1 5 5 3 3 2 1 0 1 2 0 0 0 0 0 0 0 2 4 3 5 5 32 37 40 78
40 62 79 50 9 29 5 5 0 0 1 4 1 1 1 8 15 18 35 8 5 1 4 5 4 1 0 0 2 4 4 5 4 2 5 5 7 5 54 6 5 5 5
100 100 80 65 100 100 97 64 19 76 92 98 41 90 82 95 100 99 94 96 93 99 100 96 58 8 64 95 100 91 7 6 6 5 8 7 5 5 91 95 48 5 5
62 97 58 77 94 82 89 77 99 86 38 6 51 74 98 95 100 100 100 100 100 99 80 98 100 100 86 20 5 5 3 5 10 58 86 100 100 100 100 100 24 98 36
79 86 80 100 100 100 100 100 88 45 14 99 100 100 100 100 96 36 43 96 100 99 80 98 39 7 19 5 5 5 5 5 8 5 18 19 7 42 88 80 86 54 83
100 100 100 100 100 100 100 97 44 29 100 100 100 100 100 99 99 100 100 100 38 5 5 5 5 2 2 4 6 26 5 5 6 19 84 94 97 100 96 87 100 93 97
5 5 5 5 15 37 19 80 99 99 100 100 100 98 100 99 87 21 5 4 5 5 5 2 0 5 5 5 5 5 5 5 16 5 90 100 96 100 94 97 100 100 91
3 5 5 5 39 76 98 20 10 33 16 21 62 100 23 5 5 5 1 5 1 0 0 0 0 0 5 5 5 5 5 4 3 5 6 10 24 48 89 49 100 100 99
52 85 80 83 98 18 95 47 9 5 26 6 5 17 11 5 5 1 0 0 0 3 5 5 13 5 5 3 5 6 5 5 5 2 5 8 100 92 94 40 49 8 44
7 20 65 39 24 54 74 57 36 86 50 9 8 5 5 4 0 5 5 3 5 5 83 99 33 100 100 100 75 89 20 47 5 19 91 76 51 28 31 8 5 5 5
12 55 5 56 92 99 100 92 85 57 5 5 5 4 4 5 5 5 5 23 5 88 5 5 12 84 74 93 100 100 100 98 5 4 5 5 5 27 5 5 5 6 64
24 77 94 96 100 100 100 97 5 5 5 5 5 5 9 16 5 10 8 5 4 36 6 43 100 98 100 100 100 100 98 5 5 5 5 5 5 5 5 5 5 98 100
92 100 99 100 100 100 79 5 5 5 5 5 5 5 5 4 1 0 17 9 23 5 5 93 100 100 100 100 95 30 7 5 5 5 5 5 5 5 34 29 5 20 74
92 89 100 99 70 5 5 49 5 5 5 5 5 5 5 0 0 0 0 0 0 40 73 100 100 100 100 85 79 51 5 5 5 5 5 5 5 5 21 5 5 37 84
75 10 21 25 37 38 58 5 5 5 5 5 12 5 0 0 0 0 2 2 39 76 44 97 100 100 76 36 21 5 5 5 10 24 5 5 28 5 5 5 5 10 8
5 5 25 62 17 10 5 5 5 31 79 19 5 5 3 2 0 5 18 29 84 80 71 26 62 93 100 81 5 5 5 5 5 5 5 5 21 17 100 100 98 80 96
5 5 5 20 65 8 5 28 29 74 24 5 5 5 5 5 5 34 92 100 91 87 56 94 100 97 38 5 8 6 5 5 5 5 5 83 73 86 100 88 100 100 100
5 5 7 13 23 9 52 50 80 83 11 5 5 5 5 5 5 7 22 55 5 86 100 98 74 6 5 5 5 63 31 72 34 7 5 5 99 100 100 100 100 100 100
9 68 68 29 18 14 48 90 24 5 5 2 5 66 19 23 5 8 5 34 84 100 100 87 99 5 5 5 5 5 5 5 32 63 79 6 91 100 100 100 100 100 100
67 44 37 38 5 27 80 37 5 1 5 5 62 90 8 59 5 82 100 97 100 72 80 94 6 8 5 5 5 5 68 80 58 100 83 93 99 100 100 100 100 100 100
27 60 28 7 7 66 19 5 5 5 5 25 89 100 84 5 32 95 83 100 100 86 58 64 69 30 5 5 5 5 83 28 5 76 36 92 64 100 100 100 100 100 100
85 56 56 88 92 30 5 5 5 5 33 100 100 100 70 74 100 100 100 100 94 93 46 67 67 65 5 44 5 59 97 9 8 5 5 5 37 100 100 100 100 100 100
94 99 97 50 5 5 5 5 6 47 100 35 56 99 66 99 99 100 100 100 100 87 27 13 41 84 96 48 41 100 96 9 5 24 48 28 26 84 100 100 100 100 100
96 96 68 5 5 5 5 9 98 100 95 100 100 97 73 99 100 100 99 98 100 100 97 47 34 62 45 74 73 97 38 15 5 33 91 98 90 82 100 100 100 100 100

GFSMW_prec_cloud_042.txt.gz
Cloud_Cover
92 59 11 29 5 3 5 99 100 100 100 99 66 98 57 68 42 51 6 0 0 0 2 0 0 0 6 17 24 4 5 5 5 5 5 5 30 56 100 100 100 77 74
5 6 5 5 5 38 56 80 61 90 88 45 6 5 5 4 4 0 0 0 0 0 0 0 0 0 0 0 1 5 5 5 5 5 5 78 100 100 95 65 74 9 5
5 20 5 5 5 27 16 37 91 100 47 5 2 0 0 0 1 0 0 1 2 5 3 3 0 0 0 0 4 4 5 7 10 7 4 5 5 26 43 6 5 5 4
0 5 5 5 41 5 9 7 89 76 5 5 5 4 5 5 0 4 4 5 37 43 10 28 5 5 3 4 5 5 2 0 3 3 5 5 37 75 83 9 5 5 5
5 5 6 5 30 81 47 76 72 51 64 41 87 19 99 5 6 40 5 5 5 13 5 4 5 56 97 37 18 81 94 19 8 18 62 89 7 5 94 79 100 44 5
5 6 78 49 61 92 100 100 100 100 100 79 100 100 100 73 22 5 5 5 5 6 23 72 84 96 82 11 29 69 33 5 7 18 56 63 86 25 88 96 64 95 5
36 96 35 23 100 95 99 96 80 100 100 100 87 100 90 11 12 13 5 33 90 100 82 36 9 22 40 10 5 1 0 4 6 5 7 19 49 70 100 100 97 91 81
5 72 100 85 10 11 42 100 98 97 90 26 83 49 90 76 60 70 73 9 5 18 92 93 12 5 3 0 2 5 5 5 8 5 12 12 14 56 96 100 100 97 8
62 2 0 5 5 55 79 78 16 63 83 96 98 68 73 99 48 5 45 98 67 9 5 5 3 5 6 7 5 5 20 11 5 13 100 54 27 61 44 41 100 100 95
1 5 5 5 5 43 63 90 47 100 95 32 5 5 5 7 38 84 62 22 5 2 0 5 45 67 41 8 35 99 90 93 83 29 71 5 5 10 76 75 99 100 78
5 5 5 5 5 15 74 12 58 51 73 75 5 19 73 79 74 43 5 5 1 1 5 20 82 5 14 81 100 85 82 96 58 99 77 52 26 10 31 6 5 5 14
5 5 5 40 90 91 100 100 100 100 84 27 87 76 63 22 5 5 0 1 0 4 5 22 83 5 100 100 100 100 100 99 100 100 32 3 5 5 5 5 5 5 5
5 7 91 83 62 97 100 100 97 31 31 30 5 5 5 5 3 0 0 0 3 5 2 0 1 5 100 99 97 100 100 100 51 5 5 5 3 2 5 5 5 5 10
5 74 81 82 100 100 100 89 81 100 83 5 5 5 0 0 5 5 5 5 0 0 2 5 13 94 92 100 100 100 100 12 5 5 5 5 5 5 7 30 46 36 5
5 22 95 100 100 100 95 93 31 20 10 5 5 5 5 5 5 5 5 4 0 4 5 79 88 100 100 99 100 100 5 5 5 5 5 5 14 93 100 100 99 100 73
10 96 98 100 84 14 5 5 5 5 5 5 5 5 5 5 48 18 5 0 3 33 83 100 67 7 88 87 100 82 5 5 7 29 5 5 5 5 100 98 91 99 100
65 97 100 52 5 5 5 5 5 5 5 18 21 14 95 96 24 4 0 14 61 66 68 20 5 13 44 5 70 6 5 5 5 5 5 5 40 25 23 5 49 35 96
100 100 99 15 5 5 5 5 6 12 42 60 95 100 100 49 5 5 4 5 48 95 11 72 5 5 8 83 6 5 5 5 5 5 5 48 36 9 100 95 79 100 100
100 99 86 84 46 37 9 56 60 86 100 100 100 100 80 5 5 5 5 42 49 99 89 5 5 14 20 5 5 5 5 5 5 5 5 80 77 85 100 100 86 85 100
73 100 93 48 90 94 13 74 100 100 100 100 100 51 5 43 36 5 27 62 7 93 72 81 86 30 78 5 5 6 5 33 11 5 5 6 98 100 100 98 100 100 100
100 99 100 100 100 99 100 100 100 100 100 62 71 5 5 100 100 59 74 97 91 97 100 95 74 84 5 5 5 24 60 23 83 36 77 54 93 100 100 100 95 100 100
100 100 100 100 100 88 100 100 100 78 18 5 5 17 48 93 94 7 84 100 100 97 65 68 74 6 5 5 5 5 92 99 46 12 74 22 100 100 100 100 100 100 100
100 100 100 100 100 100 100 100 98 18 5 71 70 96 97 87 56 96 84 98 98 100 86 73 74 31 5 5 10 5 71 50 5 6 27 21 13 11 56 98 100 100 100
100 100 100 100 100 100 95 11 5 5 33 100 28 60 97 81 83 100 85 96 76 76 77 73 72 66 6 55 6 29 79 19 5 5 5 5 5 5 32 100 100 100 100
100 100 100 100 100 85 22 5 5 83 100 48 68 54 64 70 50 100 87 56 100 99 82 100 48 90 94 38 21 96 95 5 5 22 36 16 14 5 40 63 98 100 100
100 100 100 100 74 14 6 17 73 100 100 100 100 98 66 70 26 30 38 79 92 94 100 100 83 76 26 18 75 91 23 5 5 5 82 100 100 91 90 100 100 100 100

GFSMW_prec_cloud_045.txt.gz
Cloud_Cover
100 100 95 64 53 53 30 96 100 100 100 100 100 100 70 100 100 90 58 2 0 0 0 0 0 0 2 5 5 5 5 23 16 5 5 5 5 5 5 5 5 5 5
98 99 83 29 14 22 13 39 48 36 86 100 95 12 37 29 11 5 39 4 2 3 4 5 4 0 2 4 2 3 2 5 14 8 5 5 5 5 5 5 5 5 5
70 22 4 0 0 2 7 14 12 42 5 77 63 30 5 5 5 5 5 5 7 91 39 1 0 0 0 0 3 11 31 6 5 5 2 4 4 5 3 5 4 2 5
5 2 0 4 5 5 6 77 68 5 7 5 38 14 92 5 20 59 27 44 69 5 5 5 5 5 22 60 90 39 5 1 5 3 30 50 98 100 22 5 3 3 5
0 0 5 5 5 23 66 69 72 78 98 97 68 82 21 7 5 52 100 99 13 5 5 5 12 74 10 5 5 5 5 5 2 5 10 19 21 61 87 71 83 96 55
4 5 5 29 46 15 69 85 87 98 100 92 77 10 7 25 5 5 8 5 5 5 5 5 5 5 4 3 2 0 0 2 5 5 19 71 88 97 100 77 56 67 75
5 5 25 100 93 53 63 5 5 5 15 98 100 100 64 7 43 34 5 5 5 5 5 3 2 4 1 2 5 5 5 5 5 14 12 6 33 28 83 66 100 94 51
5 27 92 67 4 2 5 5 5 5 69 5 6 6 5 26 5 5 5 5 1 1 5 5 4 5 5 65 5 4 5 5 9 7 5 5 60 90 100 100 100 97 26
5 4 0 0 0 5 5 5 7 44 71 56 99 73 38 5 5 5 5 5 5 5 6 5 5 5 6 5 0 4 3 30 19 15 95 9 5 14 6 9 29 76 53
0 0 0 2 5 5 15 84 99 85 100 100 65 71 5 5 5 15 27 42 74 33 55 5 4 5 5 5 4 38 5 84 94 60 5 8 11 5 5 5 5 15 32
1 5 5 5 9 5 6 29 50 95 100 92 98 6 29 92 72 42 17 14 5 5 5 2 5 4 5 5 5 63 99 100 96 70 77 24 4 5 5 5 5 5 5
5 5 5 18 58 48 78 99 88 100 100 46 34 98 49 5 5 43 5 5 0 3 5 0 5 4 82 50 79 100 49 74 100 77 5 5 5 5 5 5 5 5 6
5 5 7 100 99 92 97 52 99 99 6 5 48 21 5 5 5 5 5 5 5 5 5 9 34 54 100 100 98 100 100 91 81 53 5 5 5 5 17 60 76 100 100
5 5 42 94 100 70 82 100 61 5 5 5 5 5 5 5 5 5 5 5 5 13 25 6 31 86 100 100 100 100 97 98 63 23 5 5 43 74 91 99 100 100 100
5 5 6 87 78 98 100 97 80 5 5 5 5 5 5 8 59 98 42 15 32 34 39 91 100 97 28 79 93 98 89 32 5 15 5 8 40 58 56 68 100 100 100
5 6 85 100 100 75 93 100 87 5 5 23 32 86 41 93 99 100 100 73 5 21 47 47 22 5 42 13 5 5 5 5 5 4 0 0 5 6 88 98 100 100 100
5 76 100 98 100 100 100 88 37 40 96 93 100 100 100 100 100 79 34 5 11 7 6 9 32 9 5 5 5 5 5 5 5 1 0 3 12 83 100 100 99 91 87
54 99 98 59 29 29 64 6 48 58 64 100 100 100 100 100 57 5 5 5 52 99 100 86 5 5 5 5 5 5 5 5 5 5 5 41 99 100 100 100 100 100 100
100 100 100 55 5 59 18 88 94 100 100 100 100 100 100 70 18 5 5 11 57 97 100 100 98 44 26 5 5 5 5 5 5 32 78 99 100 100 100 100 100 100 100
100 100 100 95 90 100 100 100 100 100 100 100 100 99 59 25 28 22 5 7 5 5 5 65 82 66 14 5 5 5 95 95 99 99 96 100 98 100 100 100 100 100 100
100 100 99 100 100 100 100 100 100 100 100 100 78 23 56 98 98 43 5 22 65 88 98 99 78 7 5 5 5 5 91 97 100 99 96 100 100 100 100 100 100 100 100
100 100 100 100 100 94 90 96 100 99 92 77 49 5 5 7 100 57 5 17 97 100 90 59 34 5 5 5 6 5 36 88 100 96 100 93 72 90 85 100 100 100 100
100 100 100 96 68 68 99 100 84 99 60 37 88 8 5 31 70 67 88 79 73 91 86 81 59 19 6 47 6 5 5 67 75 73 12 5 5 5 31 71 84 100 100
100 100 98 99 100 100 100 96 100 100 83 100 86 69 59 36 83 98 79 79 65 46 78 86 94 80 36 55 82 18 94 92 52 22 5 4 5 5 5 34 78 84 91
100 100 97 100 100 100 100 99 71 100 84 100 100 100 91 89 68 54 22 23 14 9 97 86 82 92 98 89 14 35 100 97 62 5 5 3 5 5 5 5 49 88 77
100 100 100 99 100 100 100 89 100 68 99 100 100 100 100 95 73 61 66 5 6 5 69 92 94 90 100 25 45 82 98 5 5 5 5 5 5 5 5 5 5 95 86

GFSMW_prec_cloud_048.txt.gz
Cloud_Cover
96 46 74 76 79 95 100 100 61 65 80 96 100 100 100 100 100 100 100 100 100 8 5 5 60 7 26 5 0 0 0 0 2 5 3 1 4 16 6 5 5 14 20
100 99 97 72 58 93 99 72 28 7 16 5 5 67 52 79 100 93 52 64 85 100 100 24 5 5 5 0 0 0 1 5 5 5 5 5 5 5 94 74 64 33 19
57 73 81 74 40 48 40 28 15 5 5 11 26 89 100 98 98 100 100 100 100 100 6 2 5 4 2 2 5 20 55 62 93 52 5 5 2 4 0 48 40 41 5
83 28 8 5 5 5 5 5 5 5 35 12 8 38 66 85 100 54 5 5 6 1 0 5 5 5 16 90 100 100 82 11 5 2 5 29 45 24 4 5 10 8 30
5 4 5 5 5 5 5 32 59 5 5 7 55 91 82 98 88 64 58 5 2 3 5 5 56 41 70 74 35 6 5 5 5 6 72 98 86 98 100 91 49 81 99
0 5 5 5 5 5 8 11 5 5 12 71 82 75 64 78 78 70 5 5 1 5 5 5 5 5 5 6 20 8 10 7 26 65 86 84 93 100 100 100 83 100 92
0 1 5 5 5 34 9 4 5 7 30 56 63 59 9 5 5 5 18 5 5 5 5 5 6 51 23 6 16 56 91 69 87 100 77 97 100 100 100 100 100 99 20
0 5 5 14 62 4 0 5 5 5 5 5 21 54 5 33 75 85 36 5 5 17 28 5 5 5 6 83 93 54 49 84 83 70 100 99 100 96 100 87 82 68 68
0 5 5 5 0 1 5 5 9 35 14 85 80 88 100 74 26 5 20 53 19 5 5 6 87 5 23 48 65 66 75 99 59 100 100 82 99 100 100 100 100 100 88
1 5 0 0 0 4 5 5 15 69 79 99 88 96 99 14 5 5 6 5 5 5 6 21 5 5 5 55 55 68 76 93 82 83 92 97 99 100 100 100 100 100 100
5 5 5 5 4 5 5 16 54 49 67 96 100 94 94 13 57 54 6 5 5 5 40 4 5 5 5 25 14 51 76 66 99 96 87 99 100 100 100 100 100 100 100
5 5 5 5 5 5 5 18 100 64 89 100 68 7 68 79 53 5 5 5 5 5 5 5 5 5 5 28 17 57 44 79 100 100 100 100 100 100 100 100 100 100 100
5 5 5 5 5 27 64 93 100 100 100 99 76 5 5 5 5 5 26 80 81 96 41 5 5 56 71 76 98 100 95 100 100 100 100 100 89 88 100 100 100 100 100
5 5 5 5 19 75 87 60 37 100 62 11 89 35 5 49 82 98 50 60 96 53 5 5 35 97 99 83 98 77 96 100 100 99 100 74 74 95 68 40 58 76 100
5 5 5 5 62 76 56 92 93 9 95 94 59 11 62 98 95 39 74 100 36 6 14 35 100 78 85 98 100 100 94 100 98 64 28 5 5 0 6 6 30 98 100
5 5 5 24 83 82 99 10 72 50 29 91 56 60 89 84 59 99 100 91 21 81 100 81 98 100 100 5 5 5 84 80 6 5 5 5 5 5 5 80 82 50 100
60 5 26 68 86 86 94 52 11 77 83 79 81 98 100 100 100 100 77 70 64 96 94 100 100 100 100 5 5 5 8 24 5 5 5 5 12 84 100 100 67 90 98
69 91 72 90 96 95 98 100 79 98 99 100 100 100 100 100 100 91 64 55 76 100 100 100 100 100 99 5 5 5 17 50 76 79 82 81 81 100 72 100 100 100 100
30 7 42 89 96 99 100 97 98 100 100 100 100 100 100 100 100 65 26 64 97 100 100 98 100 100 100 8 5 5 67 98 92 100 100 97 96 100 42 100 100 100 100
6 6 80 100 100 97 100 100 100 100 100 100 96 100 100 100 97 98 69 86 99 100 100 94 97 87 98 47 5 5 98 100 97 100 100 100 62 16 98 100 100 100 100
5 61 100 100 100 100 100 100 100 100 100 100 100 100 100 100 91 46 76 89 90 97 100 96 98 94 94 68 5 5 57 100 99 99 98 100 53 5 90 100 100 97 100
95 98 99 99 100 100 100 100 100 100 100 100 100 100 98 89 16 82 85 96 98 100 92 100 62 100 100 91 94 72 5 38 94 96 100 76 6 5 16 91 48 66 100
100 94 98 100 100 100 100 100 100 100 100 92 83 99 100 69 85 82 82 98 100 100 100 100 98 100 100 100 100 92 5 21 89 100 38 5 5 5 10 56 20 39 98
97 100 100 100 100 100 100 100 99 100 86 91 100 100 100 70 72 94 100 100 100 100 100 100 100 100 100 100 100 100 100 100 98 100 92 27 5 5 5 78 90 73 39
100 100 100 100 100 100 100 97 100 100 100 100 95 97 100 100 100 98 97 100 98 78 58 84 97 100 100 100 96 81 90 100 92 10 98 100 95 5 5 5 46 43 6
100 100 100 100 100 100 100 100 100 100 100 76 80 100 99 100 100 100 100 100 72 10 5 5 15 52 100 93 87 67 78 94 30 68 100 100 100 100 5 5 5 5 5

GFSMW_prec_cloud_051.txt.gz
Cloud_Cover
100 100 100 100 100 100 89 100 100 100 81 22 29 5 5 5 43 100 100 100 80 82 100 90 99 100 0 3 4 3 5 3 0 0 5 5 5 5 72 100 100 100 100
100 100 100 100 99 87 100 99 91 88 72 74 90 30 5 54 11 67 61 45 70 99 71 99 47 5 3 0 4 5 5 10 24 66 40 42 79 96 5 56 55 80 44
94 71 78 80 100 94 92 89 44 33 5 5 5 5 63 76 67 92 98 100 100 100 100 41 2 0 0 1 5 5 45 96 90 56 10 5 5 5 6 0 8 99 83
91 60 92 98 98 65 7 5 5 5 5 5 5 18 57 93 98 100 70 55 41 42 12 5 2 5 5 5 5 5 5 5 5 5 6 5 50 98 68 69 22 5 59
72 54 38 5 5 3 4 5 5 5 5 5 5 9 61 93 95 90 19 5 6 6 4 4 5 5 5 5 5 9 93 86 90 99 73 12 78 88 91 90 87 20 7
17 5 4 1 0 0 1 5 5 4 1 5 5 6 33 84 93 63 5 5 5 5 5 5 5 5 6 82 86 64 98 68 67 72 68 78 90 100 81 66 49 92 10
0 0 0 0 0 0 5 5 1 2 5 5 5 5 31 84 95 50 55 9 5 2 5 5 5 5 5 6 33 65 96 74 98 94 89 99 94 97 93 85 80 86 44
0 0 0 0 0 5 5 0 22 33 15 5 5 5 89 75 29 86 100 63 13 4 5 5 5 5 5 9 60 5 95 70 58 52 84 89 100 94 99 86 90 5 84
0 0 0 0 5 4 17 6 50 79 11 13 15 18 97 89 97 97 100 88 5 5 8 5 5 5 5 5 11 54 81 77 94 90 40 96 94 91 100 92 97 98 26
0 8 11 17 27 71 78 72 60 25 26 46 77 100 100 94 94 76 36 5 5 5 8 5 5 5 5 5 5 91 99 90 89 97 56 99 100 81 68 82 100 93 96
6 11 36 51 53 88 70 8 5 6 32 99 100 73 95 96 17 17 14 5 5 5 5 5 5 5 5 5 76 100 100 99 94 52 89 95 100 99 100 100 86 100 100
3 25 40 32 15 0 1 5 5 17 81 96 100 99 98 49 6 66 8 5 5 5 5 5 5 5 5 5 53 97 94 46 99 100 100 87 100 100 100 100 100 100 100
5 5 5 5 5 5 5 5 6 57 77 91 22 86 28 19 54 5 5 19 44 8 5 6 20 5 8 21 14 33 62 76 78 93 96 98 100 100 83 52 12 16 5
5 5 41 64 5 19 5 5 27 77 59 94 99 16 39 16 62 23 86 90 69 62 41 27 24 5 99 57 78 75 97 100 96 94 100 100 71 18 5 4 5 13 67
5 5 29 12 96 48 5 47 80 20 98 53 12 24 60 89 57 79 83 91 99 60 8 49 58 100 73 99 91 76 91 90 99 100 94 54 37 4 0 2 5 98 100
5 5 6 99 96 8 39 74 64 98 6 99 98 100 68 73 82 88 100 100 41 6 66 84 98 100 100 61 65 12 20 89 100 99 51 60 43 97 5 39 69 68 44
5 5 85 61 5 5 71 70 89 87 98 100 100 82 99 100 100 100 99 63 53 28 69 94 85 56 97 27 96 93 65 34 84 100 98 91 87 89 61 55 21 91 100
5 46 94 59 6 41 94 100 91 100 100 100 100 100 100 100 100 100 98 50 22 50 93 86 99 39 100 83 100 50 5 45 100 100 100 100 98 100 5 12 47 100 100
66 100 93 5 10 61 97 100 100 92 91 100 100 100 100 100 100 100 73 42 36 99 100 70 91 93 100 71 23 6 14 90 94 100 100 98 99 92 5 5 85 100 100
100 86 39 42 11 38 82 100 100 89 100 100 100 100 100 100 100 97 100 100 100 100 90 19 100 100 94 72 6 6 24 98 100 98 99 92 5 5 5 5 98 100 100
92 22 16 80 87 87 97 100 100 100 100 100 100 100 100 100 100 98 100 100 100 62 5 96 82 82 98 97 48 92 100 100 100 99 98 96 54 5 5 9 95 94 29
71 70 78 89 78 100 100 100 100 100 100 100 100 100 100 100 100 100 100 98 95 97 98 100 40 77 98 99 71 91 100 100 100 99 98 96 12 5 5 10 31 5 27
82 71 77 100 100 100 100 100 100 100 100 100 100 100 100 100 100 100 80 93 96 100 100 98 95 100 100 100 98 100 100 100 100 98 75 6 12 5 9 19 5 7 100
74 69 100 100 100 100 100 100 100 100 100 100 100 100 100 100 98 74 79 100 100 100 100 90 66 100 100 100 100 98 100 100 100 100 98 41 10 30 48 86 100 100 100
100 100 100 100 100 100 100 100 100 100 100 100 100 100 100 80 100 100 100 93 95 100 72 64 64 88 76 99 100 87 100 100 100 63 58 100 100 100 100 100 100 100 100
100 100 100 100 100 100 100 100 100 100 100 100 97 34 82 100 100 100 100 100 100 77 22 5 5 5 5 52 90 96 100 94 75 72 100 100 100 100 100 100 100 100 100

GFSMW_prec_cloud_054.txt.gz
Cloud_Cover
72 100 100 88 77 40 100 100 100 100 100 100 100 68 81 4 4 4 5 5 5 5 5 5 5 5 5 0 0 0 0 2 5 5 0 0 4 5 5 5 5 6 81
97 87 96 100 100 100 100 100 100 100 100 51 17 5 5 18 5 5 5 5 5 6 6 28 4 5 5 4 0 0 4 3 0 0 5 5 5 5 5 5 3 65 100
100 100 100 100 100 100 100 100 69 17 6 100 30 5 4 5 5 5 5 13 17 5 5 5 5 5 5 0 0 0 2 0 4 2 3 5 5 4 3 5 2 5 30
100 100 100 100 87 81 86 51 83 38 73 30 5 3 5 5 5 12 99 34 9 6 5 5 5 5 0 0 3 1 0 0 5 5 4 3 5 5 5 5 1 3 5
66 90 93 74 64 42 48 50 2 82 5 7 6 5 73 100 98 54 89 84 72 8 5 4 5 5 5 5 5 82 79 7 5 5 5 5 5 5 39 5 5 5 60
86 82 56 76 64 7 5 0 11 0 1 0 0 5 5 5 5 13 5 9 31 80 70 11 5 5 5 4 4 10 2 5 5 80 75 35 40 74 98 75 23 22 0
67 29 5 1 0 0 0 0 0 0 0 0 1 5 5 5 13 96 97 28 96 100 100 54 54 5 5 5 5 4 81 18 5 34 100 92 50 100 100 100 45 5 0
0 0 0 0 0 0 0 0 0 0 0 0 3 5 11 28 77 100 62 88 100 46 8 41 7 5 5 5 5 6 40 9 4 27 100 98 98 100 95 100 100 12 0
2 0 0 0 0 0 0 5 23 78 57 0 5 5 40 100 100 86 100 95 100 95 5 5 5 5 5 5 5 5 10 86 8 31 100 100 93 100 93 82 99 93 5
0 0 0 0 64 32 16 0 73 100 32 1 6 61 100 98 100 100 86 84 48 5 5 5 5 5 5 5 5 5 5 12 5 85 88 62 70 96 100 83 53 11 36
0 0 23 89 43 96 87 3 64 78 6 50 63 78 100 100 95 74 38 60 6 5 5 5 5 5 5 5 5 31 89 22 5 17 10 12 44 84 89 94 23 40 40
0 1 42 100 100 77 68 19 5 5 21 86 100 100 100 98 7 86 45 5 5 5 5 5 5 5 5 6 5 5 5 5 5 5 57 88 100 97 100 45 40 69 6
4 73 100 93 51 13 29 7 5 46 78 100 100 100 86 7 97 38 7 5 5 5 5 5 19 25 62 73 20 7 25 35 40 86 59 97 70 14 79 6 4 0 0
14 76 36 5 5 7 38 7 35 22 68 96 100 94 40 72 53 79 75 62 50 55 68 93 75 85 40 98 67 88 50 5 5 69 100 100 99 21 5 5 0 0 1
1 5 5 5 5 15 5 5 18 57 77 100 98 94 43 66 82 78 87 90 90 96 95 100 88 78 68 30 83 70 72 6 76 100 100 100 47 5 2 4 2 5 5
5 5 5 24 50 22 14 37 32 100 65 100 96 84 86 100 88 100 100 100 82 88 70 99 98 100 98 100 90 100 98 56 96 100 89 5 5 58 64 5 5 5 5
5 5 11 74 40 40 95 7 80 90 100 100 100 94 100 100 100 100 100 100 100 100 100 100 92 100 100 100 75 100 99 85 98 72 5 5 5 5 5 5 4 0 0
5 5 5 10 18 98 48 50 82 76 88 99 100 100 100 100 100 100 100 100 100 100 99 100 100 100 94 18 66 100 80 91 62 5 5 14 39 5 5 0 0 0 4
5 5 5 19 100 90 13 35 84 100 79 69 100 100 100 100 100 100 100 100 100 100 100 100 100 85 55 24 79 22 47 41 32 77 61 70 99 5 5 5 5 5 4
5 5 73 100 59 6 38 52 84 100 100 100 100 100 100 100 100 100 100 100 100 100 100 100 55 5 37 66 5 85 6 19 96 100 98 99 100 15 5 5 5 5 8
79 100 98 8 35 52 34 86 100 100 100 100 100 100 100 100 100 100 100 100 94 100 84 36 18 5 43 87 86 53 26 5 87 100 100 98 100 83 5 5 5 5 5
100 89 53 85 61 92 99 100 100 100 100 100 99 96 100 100 100 100 100 100 100 83 84 100 84 10 5 7 65 44 5 5 39 100 100 100 100 10 5 3 0 5 5
100 96 95 89 96 100 100 100 100 100 100 100 100 100 100 100 100 100 100 17 65 59 5 8 18 17 15 30 77 71 69 30 63 87 100 100 100 19 5 5 5 5 5
87 73 100 100 100 100 100 100 100 100 100 100 100 100 100 100 100 43 24 12 59 100 57 39 57 98 100 33 41 89 42 100 83 97 100 100 100 28 54 7 48 84 90
100 100 100 100 100 100 100 100 100 100 100 100 100 100 75 6 5 56 92 100 97 90 98 100 100 94 23 5 12 72 100 100 100 99 100 100 100 99 92 82 97 72 74
98 100 100 95 94 99 100 97 100 100 100 100 49 6 5 5 6 83 99 92 91 93 100 99 100 56 55 5 5 5 26 84 100 78 35 100 100 97 100 89 78 92 81

GFSMW_prec_cloud_060.txt.gz
Cloud_Cover
100 100 100 100 68 100 100 100 100 100 100 100 100 100 100 63 100 100 100 100 100 14 5 2 5 19 4 0 0 0 0 0 5 0 0 0 0 0 0 5 5 5 2
100 100 100 19 24 94 100 98 100 100 97 100 100 98 97 98 100 100 100 100 98 87 23 52 6 5 4 1 3 5 5 21 3 0 0 0 0 0 0 0 0 1 5
74 78 80 97 96 100 78 95 58 99 100 100 100 100 100 100 98 76 6 7 15 15 2 5 1 1 0 5 5 5 3 0 1 0 0 0 0 2 12 45 70 31 16
53 88 100 100 96 96 94 99 100 100 100 100 100 100 100 99 74 24 34 6 1 4 0 1 2 4 5 5 5 5 4 0 0 0 0 2 4 5 37 90 73 98 99
100 100 100 100 100 100 100 100 100 70 34 7 10 14 39 32 41 3 0 1 5 5 5 5 5 5 5 5 3 0 0 0 0 0 1 5 7 6 5 17 23 6 5
100 100 100 100 100 98 28 18 10 19 36 13 58 67 8 0 0 1 5 40 65 90 99 79 73 27 22 5 0 0 1 5 0 2 7 49 5 5 5 28 82 81 5
98 5 5 81 48 32 5 29 70 58 14 2 0 0 0 0 5 5 24 96 87 83 56 100 100 69 5 5 5 5 5 3 1 5 5 5 5 5 5 22 46 100 96
86 29 4 6 5 5 3 4 1 0 0 0 0 0 0 5 41 18 100 100 98 100 64 100 99 86 5 5 5 67 5 5 5 5 5 5 5 5 5 17 100 100 64
48 71 8 5 5 4 0 0 0 0 2 1 5 5 9 95 92 93 93 100 100 100 100 98 100 6 5 5 56 61 5 5 5 5 5 5 5 5 9 7 70 72 52
5 5 2 0 0 0 0 0 10 39 1 1 23 35 100 95 99 83 21 77 95 98 94 99 30 6 10 78 97 12 15 5 6 13 9 5 77 98 100 99 100 98 97
2 0 0 0 0 0 0 0 0 4 33 12 4 64 76 21 100 95 100 33 77 88 100 61 54 76 98 100 78 76 46 55 69 50 66 93 100 100 100 100 100 100 88
0 0 0 0 0 0 0 0 2 21 32 100 100 100 100 100 100 100 78 100 80 86 100 5 8 86 35 42 33 65 100 100 99 100 100 100 100 100 45 5 5 5 6
0 0 0 0 0 2 5 5 26 98 98 100 99 100 100 100 100 86 89 94 9 49 5 38 69 60 73 88 94 95 77 91 100 100 100 100 100 36 5 5 5 5 5
0 0 0 0 5 5 12 96 100 92 100 100 100 100 99 100 62 100 82 24 24 13 90 61 84 100 99 95 100 100 100 100 100 100 100 100 34 5 6 14 15 14 7
0 0 0 16 35 95 67 31 100 100 100 85 17 14 84 70 89 92 97 35 98 80 92 94 98 100 100 100 100 100 100 96 100 97 96 100 99 91 81 54 10 68 100
0 1 74 4 4 44 5 30 67 10 5 5 9 100 100 12 5 5 95 75 99 94 86 100 100 100 100 100 100 100 100 100 5 48 93 100 100 100 5 5 97 100 100
5 5 5 5 5 5 5 5 5 5 5 12 98 100 56 5 30 100 90 99 100 96 100 100 89 100 100 100 100 100 36 5 5 68 68 70 39 37 15 87 100 100 53
5 5 5 5 5 5 5 5 5 33 100 100 100 95 67 81 98 96 99 100 100 100 100 100 100 100 100 83 24 5 5 24 50 88 66 92 95 16 43 92 99 100 78
0 1 4 5 5 5 5 26 81 100 100 99 64 63 99 98 98 93 97 100 100 100 100 100 100 100 11 5 5 9 18 80 98 81 100 94 74 5 82 77 100 100 96
5 5 5 7 32 55 94 90 100 99 92 78 100 100 100 100 100 95 94 95 100 84 66 100 34 5 5 54 11 32 5 18 87 100 72 35 4 5 5 54 100 100 100
41 8 50 47 100 100 100 100 98 91 96 100 88 80 83 90 100 100 99 76 62 38 25 29 18 6 91 87 5 5 12 8 95 37 11 93 6 5 5 80 100 100 100
61 75 73 100 100 100 100 88 71 100 93 93 90 92 78 99 100 100 100 88 34 5 7 15 5 15 7 20 5 5 6 8 26 46 5 36 98 5 16 98 100 100 100
53 95 100 100 100 99 100 100 100 99 100 100 100 100 100 100 92 82 40 6 5 5 5 5 5 5 5 5 65 95 97 81 79 96 34 76 98 98 6 46 83 17 89
100 100 100 100 99 100 99 91 95 82 63 90 100 99 99 99 92 18 5 5 5 5 5 5 5 5 11 21 5 98 100 100 100 100 38 89 100 98 7 21 46 5 69
100 100 100 100 99 92 90 78 66 80 91 90 100 100 100 84 62 10 1 2 5 4 5 5 5 5 5 5 5 79 75 71 83 100 100 99 100 95 100 64 84 56 100
100 100 99 88 89 77 84 34 44 84 92 100 100 100 100 80 54 90 46 5 5 3 14 11 5 5 5 5 5 12 23 87 100 95 98 100 100 100 100 100 100 66 100

GFSMW_prec_cloud_063.txt.gz
Cloud_Cover
100 100 100 100 100 100 100 100 100 100 100 100 81 100 100 72 100 90 100 100 97 100 100 100 100 60 5 5 5 2 0 0 0 0 0 0 0 0 0 0 0 0 0
100 100 100 100 100 100 100 100 100 100 100 100 100 100 100 100 100 100 100 100 100 100 100 62 5 28 5 2 0 0 0 0 0 0 0 0 0 0 0 0 0 5 5
100 100 100 100 100 100 99 100 100 80 100 95 95 100 100 100 100 100 100 100 100 44 5 22 4 0 0 1 1 4 31 12 3 0 0 0 0 0 0 0 5 58 100
100 100 100 20 77 69 10 85 99 21 66 56 100 100 100 99 82 76 14 25 80 46 4 5 1 4 3 6 74 78 77 5 0 0 0 0 0 0 3 2 5 21 30
100 100 100 100 96 62 88 100 100 100 100 98 100 100 97 91 22 6 24 38 5 2 1 6 12 7 7 82 92 74 73 3 5 5 5 5 2 3 5 8 5 5 5
100 100 100 100 100 100 100 100 100 100 84 66 70 6 12 32 36 6 3 5 5 14 79 97 100 100 100 82 5 9 61 6 5 5 5 5 5 5 5 32 5 16 24
66 79 100 100 98 100 100 100 100 100 96 51 21 56 18 2 2 5 5 12 5 89 98 70 100 100 99 40 5 42 5 5 5 5 58 38 5 5 5 5 7 10 15
6 9 28 55 95 100 99 97 100 60 19 47 8 3 5 4 5 5 8 81 44 100 99 100 100 72 29 89 62 100 19 5 38 75 56 41 10 5 6 64 91 87 96
94 26 10 24 64 94 29 69 34 8 6 1 3 4 6 84 100 100 100 59 100 100 100 100 100 87 79 88 52 71 85 42 5 8 7 27 64 100 100 87 100 100 68
20 5 22 5 12 5 5 4 0 0 0 0 4 65 100 97 96 100 100 100 79 100 100 100 100 93 12 85 88 61 62 69 78 48 29 77 82 94 97 100 100 100 99
72 15 5 5 5 0 0 0 0 0 0 0 49 90 100 35 46 21 98 100 100 100 100 100 90 8 92 90 93 98 49 61 93 79 67 94 100 100 100 100 89 87 70
0 0 0 0 0 0 0 0 0 0 0 3 5 95 94 100 55 95 100 100 100 46 100 74 48 6 85 100 89 80 48 89 99 100 100 100 100 100 100 52 5 5 5
0 0 0 0 0 0 0 0 0 1 23 80 93 85 76 81 100 100 100 51 22 46 28 93 95 51 92 55 82 86 87 83 98 100 100 100 89 13 56 67 20 74 100
0 0 0 5 0 10 82 21 80 43 76 96 79 100 100 100 100 84 84 75 46 100 77 88 89 91 86 98 98 97 99 100 100 100 54 5 58 65 89 100 100 94 100
0 0 0 4 10 38 5 28 79 43 90 46 89 97 98 100 100 33 100 100 96 94 100 76 97 96 100 100 100 100 100 84 10 5 5 5 5 74 100 100 100 100 11
0 0 0 0 3 5 42 34 34 80 95 92 71 98 13 100 100 100 100 100 100 73 69 78 99 100 100 100 100 72 18 5 5 5 5 70 8 19 91 64 80 5 11
0 0 1 4 5 8 5 5 56 32 82 100 74 30 60 100 100 100 100 99 82 99 100 100 98 99 99 79 54 23 5 5 5 5 20 37 64 5 8 71 42 53 86
4 5 5 10 5 18 83 78 61 83 59 7 31 96 100 100 100 100 98 97 99 100 100 100 100 100 93 21 5 4 5 5 5 5 100 100 98 78 84 75 28 64 56
5 6 19 41 30 14 8 5 60 12 6 71 98 100 100 100 100 100 100 100 100 100 100 100 100 78 13 22 5 6 20 14 6 9 96 100 100 75 18 5 8 17 83
5 5 5 5 5 5 5 5 5 40 100 100 100 100 100 100 100 100 100 100 80 83 100 50 6 71 71 5 5 20 86 100 71 12 77 100 97 87 72 5 5 12 88
5 5 6 5 5 5 5 17 79 100 100 100 100 100 100 100 100 100 100 100 88 46 16 5 42 61 4 5 5 19 96 100 71 20 6 20 35 100 100 57 5 5 42
22 41 15 5 5 6 60 90 100 100 99 100 100 100 100 99 77 70 92 90 49 38 21 39 42 5 5 5 5 5 84 100 100 49 54 93 100 99 91 99 23 5 5
25 11 35 60 100 98 100 100 82 96 100 100 100 94 64 48 86 86 84 37 81 26 62 27 5 5 5 5 5 5 5 47 100 86 98 100 100 100 100 96 100 30 66
26 72 100 95 98 100 100 100 100 100 100 100 69 83 97 91 79 60 11 7 10 31 73 67 8 5 5 5 5 5 5 5 87 93 100 100 100 100 100 100 100 100 100
99 86 91 100 100 100 100 100 100 100 87 34 63 52 71 90 82 96 63 37 79 63 89 93 75 17 8 5 26 56 14 5 6 41 77 100 100 100 100 100 100 100 98
100 100 100 100 100 100 100 100 79 11 5 63 61 92 95 77 97 70 41 99 57 5 5 6 85 97 74 91 99 100 85 99 100 87 85 97 100 100 100 100 100 100 100

GFSMW_prec_cloud_066.txt.gz
Cloud_Cover
100 100 97 100 87 100 97 67 100 100 100 100 100 100 100 97 100 100 100 97 100 100 100 100 100 100 71 99 53 42 5 1 0 0 3 1 0 0 0 0 0 0 0
100 100 100 72 6 100 100 100 100 100 100 100 100 100 100 100 100 100 100 100 100 100 100 96 84 90 46 71 66 4 1 0 4 5 5 5 1 0 0 0 0 0 0
100 100 100 100 100 100 100 100 100 100 100 100 100 100 100 100 100 100 100 100 100 100 97 60 72 80 67 5 5 4 5 5 5 5 5 12 2 0 2 5 1 0 0
100 98 100 100 100 100 100 100 100 100 100 100 100 100 100 100 100 100 98 37 62 88 72 99 75 8 18 5 5 4 5 36 4 5 5 5 2 5 5 5 5 5 4
100 84 83 100 100 100 100 100 100 100 100 100 100 100 100 100 100 100 81 45 15 83 36 26 66 18 6 32 22 44 5 5 5 5 5 5 4 5 5 9 5 4 2
88 100 100 100 100 100 100 92 100 100 86 42 100 100 100 100 95 77 69 46 16 34 90 69 99 85 60 81 99 67 5 49 5 5 5 5 5 5 6 35 8 8 5
100 100 100 99 96 99 98 100 98 98 100 100 100 100 100 64 85 38 6 4 14 94 92 58 93 100 100 100 87 57 47 5 5 5 5 5 5 22 19 18 17 27 5
99 100 100 99 100 100 100 100 100 82 98 99 100 100 100 46 15 5 5 2 5 9 100 100 100 100 100 100 100 76 8 5 5 5 9 89 96 62 82 82 74 99 91
49 28 33 89 98 100 100 100 100 100 100 100 100 87 39 5 0 5 37 98 5 76 76 100 99 100 100 99 94 29 64 5 5 6 11 79 63 82 96 91 74 92 94
96 91 14 5 5 48 66 88 100 100 100 100 50 7 1 0 3 40 5 17 92 100 100 91 100 90 94 22 98 100 96 55 38 55 64 84 71 80 72 90 84 22 51
42 7 5 5 14 48 88 100 87 54 56 7 0 0 0 59 100 95 95 73 64 100 100 97 16 100 100 86 83 31 63 72 98 75 65 92 72 100 54 5 5 6 100
6 5 5 4 29 49 78 29 8 0 0 0 1 5 70 45 39 98 100 100 100 100 14 30 99 38 66 63 84 92 100 71 84 100 97 100 35 5 5 5 5 7 56
0 3 4 5 5 0 4 2 3 5 24 41 6 95 88 98 99 66 100 100 91 11 51 100 90 83 85 88 89 80 84 100 93 100 70 5 5 5 5 46 95 60 100
0 0 0 0 0 1 7 5 100 100 100 82 46 84 72 82 72 89 100 89 76 94 88 100 100 100 100 97 78 95 90 100 100 92 5 5 5 5 5 69 90 100 100
0 0 0 2 0 3 10 81 84 81 100 94 55 100 100 99 95 100 94 97 100 100 100 99 95 94 100 72 71 71 96 95 21 5 5 5 5 39 76 79 80 97 86
0 0 0 5 4 38 5 5 5 5 65 100 100 100 100 100 100 100 77 100 100 98 90 78 97 100 99 63 61 76 70 5 5 5 5 5 5 26 60 13 5 5 77
5 0 0 0 2 5 5 8 64 61 98 100 100 100 100 100 99 92 86 98 99 68 80 93 66 71 100 100 73 7 5 5 6 5 5 5 5 85 70 28 6 22 75
5 5 5 5 5 5 6 79 76 45 100 100 100 100 100 98 100 100 100 85 79 100 100 96 84 100 87 40 6 7 5 30 6 5 5 5 14 74 95 79 45 5 15
5 5 13 62 95 100 100 96 98 100 100 100 100 100 86 100 93 99 87 99 99 97 48 51 61 5 96 16 5 5 55 12 7 5 5 5 5 56 93 81 5 5 5
5 5 5 5 5 29 81 96 100 100 100 100 100 100 100 94 98 100 100 99 64 87 75 47 5 32 13 5 5 53 45 94 100 100 11 5 5 5 99 84 26 63 37
5 5 5 5 6 34 100 100 95 100 100 100 89 100 100 99 100 100 83 6 43 51 40 24 29 21 6 5 43 47 7 11 100 100 66 5 36 25 77 79 80 71 88
5 5 5 5 13 45 64 100 100 100 90 98 100 95 98 98 45 54 47 30 6 24 63 34 6 10 10 50 24 5 5 5 34 100 100 60 100 100 100 100 82 100 74
38 58 89 59 34 87 68 12 39 76 100 100 90 98 55 41 74 71 40 31 73 60 5 5 5 5 52 100 96 74 49 87 16 32 100 55 80 100 100 98 100 100 87
91 100 63 54 70 66 54 71 100 100 100 98 34 42 85 81 70 29 18 45 38 9 22 38 67 50 66 67 11 5 91 99 86 63 100 100 100 92 69 100 100 100 100
97 85 75 60 63 76 98 100 100 100 97 36 60 79 72 85 34 73 82 99 100 100 100 99 83 82 8 5 58 89 99 74 100 100 88 100 100 100 88 81 100 100 100
100 100 100 100 100 100 100 100 100 82 32 56 57 57 64 59 81 84 100 100 100 100 100 99 18 5 5 7 21 33 95 100 100 100 100 100 100 100 100 83 87 100 100

GFSMW_prec_cloud_069.txt.gz
Cloud_Cover
99 100 100 100 100 100 100 100 100 100 100 100 100 100 100 100 100 100 100 100 100 100 66 86 42 76 100 100 96 6 29 55 34 5 2 0 2 0 0 0 0 0 0
100 88 90 100 100 23 78 100 94 100 100 97 100 100 100 100 100 100 100 100 100 100 100 89 100 95 43 65 42 24 59 5 3 3 3 0 0 0 0 0 0 0 0
100 99 89 93 100 95 33 43 99 62 76 82 96 81 100 100 100 100 100 100 100 52 65 100 100 58 35 40 47 23 5 5 5 4 57 0 0 0 0 0 2 2 5
100 100 100 88 88 95 68 81 36 51 75 90 88 100 100 100 100 100 100 100 100 73 76 55 34 38 9 5 33 8 5 5 5 8 2 0 1 3 5 5 5 5 4
100 100 100 100 100 100 100 100 100 100 100 98 81 98 99 100 100 100 100 100 95 21 51 26 5 42 92 100 100 31 70 39 6 5 5 5 5 5 5 5 5 5 5
92 98 100 100 100 100 100 100 100 100 100 100 100 100 100 100 100 100 100 100 100 61 6 5 19 77 68 100 100 100 71 67 50 17 5 5 5 5 5 5 4 5 5
100 100 100 100 100 100 100 100 100 100 100 100 100 100 100 100 100 100 100 100 94 6 5 5 29 52 72 100 100 87 71 40 28 5 5 5 5 5 5 5 1 5 5
98 65 100 100 100 100 100 100 100 100 100 100 100 100 100 100 100 100 100 100 26 5 23 76 16 100 100 99 83 47 6 8 5 5 5 5 5 5 5 4 5 15 5
6 53 93 98 100 100 100 100 100 99 100 100 100 100 100 100 100 100 100 8 41 81 72 66 100 100 100 51 5 24 5 5 6 29 5 5 5 5 5 5 5 10 5
49 41 35 60 62 63 100 14 90 100 100 100 100 100 100 100 97 91 12 44 97 91 99 100 100 100 95 6 5 5 5 40 42 5 5 5 5 5 5 4 5 5 13
100 75 5 5 5 5 5 44 88 100 100 100 100 100 100 75 84 100 61 95 91 100 100 100 100 76 18 86 16 5 39 61 6 5 5 5 5 5 5 5 5 5 47
40 9 79 26 11 5 9 74 94 100 98 100 95 99 90 100 100 94 100 100 100 100 100 100 100 26 59 5 57 39 5 5 5 5 5 5 5 5 5 5 5 74 90
0 0 0 0 20 84 96 71 52 60 100 100 100 100 100 100 100 99 100 100 100 97 100 86 62 27 52 58 6 6 5 5 5 5 5 5 5 5 5 5 46 93 76
2 4 1 5 6 31 43 25 22 100 100 100 100 100 100 100 99 100 100 100 100 100 100 72 90 82 72 12 5 5 5 5 5 5 5 5 5 5 5 36 85 66 100
25 18 5 3 5 7 14 21 68 100 100 100 100 100 100 97 100 100 100 100 100 62 66 62 81 71 51 48 5 5 5 5 11 21 5 5 5 5 5 30 81 100 100
0 4 2 5 5 5 16 61 99 100 100 100 100 100 100 100 100 100 100 100 68 58 100 64 92 100 94 57 5 6 15 39 19 5 5 5 5 5 5 5 88 96 94
0 0 0 4 11 11 23 60 76 47 58 96 100 100 100 100 97 100 100 9 94 93 81 100 75 49 34 5 6 28 15 39 28 6 5 5 5 5 5 5 80 8 54
4 2 0 3 21 28 32 19 29 78 100 99 100 100 100 100 100 96 50 100 98 72 71 34 5 9 5 5 24 5 5 38 5 5 5 5 5 5 5 7 84 85 27
7 5 17 21 5 5 5 18 56 96 100 95 100 100 99 100 100 100 100 26 5 19 5 29 39 5 13 24 11 5 5 5 5 5 6 5 5 5 5 11 90 81 68
78 80 74 14 5 39 74 71 62 100 100 100 100 100 100 92 66 71 30 27 72 59 30 10 5 30 58 24 6 5 5 8 7 5 5 5 5 5 6 77 94 100 54
100 97 90 74 42 64 35 100 100 100 85 100 98 54 63 94 100 56 62 48 6 35 5 24 58 37 5 41 55 6 46 100 91 87 5 5 32 5 13 84 50 74 100
86 100 100 98 100 99 100 100 99 89 70 81 99 100 100 97 16 5 5 5 14 13 31 46 70 22 56 86 30 60 78 53 100 98 90 100 60 52 83 93 10 27 99
93 98 100 100 100 100 100 99 98 98 100 100 100 100 100 62 6 5 5 13 20 25 39 42 8 52 42 5 5 14 58 5 16 82 70 100 98 100 100 94 78 100 100
97 92 62 94 100 100 100 100 100 100 100 100 100 100 53 30 5 5 26 50 20 26 16 7 6 5 14 39 19 47 33 46 91 35 86 100 100 100 100 100 100 92 88
5 5 7 32 73 92 98 100 100 100 100 100 100 80 22 5 14 61 77 35 6 5 39 72 92 94 84 89 90 99 100 100 100 100 100 100 100 92 100 100 100 100 100
64 5 6 39 97 100 100 100 100 100 100 93 69 37 29 76 90 84 46 60 54 32 5 75 72 83 94 100 100 97 85 66 99 100 100 100 100 100 100 100 100 100 100

GFSMW_prec_cloud_075.txt.gz
Cloud_Cover
100 100 100 100 100 100 100 100 100 100 100 100 92 100 100 100 100 100 100 100 100 100 100 100 100 98 69 100 97 89 100 100 100 47 28 5 6 2 0 2 0 1 3
98 100 100 100 100 100 100 100 100 100 100 100 99 100 100 100 100 100 100 100 100 100 100 91 84 100 100 100 93 49 42 34 14 5 5 5 5 5 5 0 0 4 5
92 92 100 100 100 100 100 100 100 100 100 100 100 100 100 100 100 100 100 96 92 93 100 100 100 100 100 95 99 96 91 94 55 16 5 5 5 4 0 0 0 3 3
100 100 100 89 100 100 100 100 100 100 100 100 100 100 100 100 100 95 100 100 100 100 100 100 98 100 61 45 93 100 100 100 100 97 97 12 4 1 0 0 0 5 47
100 100 100 100 8 48 88 61 77 99 100 100 85 74 49 100 100 100 64 100 99 100 100 100 100 100 100 100 100 100 100 100 100 91 19 44 11 5 5 5 5 5 5
97 10 100 100 82 87 5 4 5 42 53 74 71 88 86 100 100 100 100 98 100 100 100 100 100 100 100 100 100 100 100 100 100 94 76 97 27 4 5 5 5 5 5
85 72 62 39 42 91 57 24 76 38 51 79 100 94 86 100 98 100 100 100 100 100 100 100 100 100 100 100 100 100 100 100 100 100 93 52 2 5 5 5 5 5 5
27 38 83 100 100 100 100 100 14 55 94 71 59 100 100 100 100 100 100 100 100 100 100 100 100 100 100 100 100 100 100 100 100 71 18 5 5 5 5 5 5 3 0
16 19 13 21 22 50 21 64 94 49 79 96 100 100 100 100 100 100 100 100 100 100 100 96 100 100 100 100 100 100 100 100 99 89 44 7 7 5 5 5 5 8 5
5 9 34 74 88 100 100 100 100 73 67 88 90 100 100 100 100 100 100 100 100 100 100 100 100 100 100 100 100 100 99 100 100 79 35 93 98 5 5 5 5 11 18
5 5 5 5 5 5 5 15 21 32 67 92 99 100 100 100 100 100 100 100 100 100 100 100 98 100 100 100 100 100 100 100 100 100 100 100 11 5 5 5 5 2 34
5 5 5 5 5 5 5 12 19 5 7 27 96 100 100 88 100 100 100 100 100 100 100 100 100 100 100 100 100 100 98 98 93 100 98 19 5 5 5 5 5 5 10
27 10 5 5 40 12 0 5 28 26 62 100 98 98 98 100 100 100 100 100 100 100 100 100 100 100 100 100 100 100 100 71 98 84 21 7 10 20 5 6 5 5 10
16 5 5 22 10 5 0 4 44 67 81 54 87 100 100 100 100 100 100 100 100 100 100 100 100 100 100 100 100 100 100 100 90 100 100 100 59 52 27 5 5 12 55
5 5 10 30 21 6 5 3 50 100 100 100 100 100 100 100 100 100 100 100 100 100 100 100 100 100 100 100 99 100 100 100 100 100 100 69 69 14 5 5 5 5 5
95 18 5 8 100 100 66 93 100 100 100 100 100 100 100 100 100 100 100 100 100 100 100 100 100 100 100 100 100 100 100 100 100 100 81 25 15 5 7 98 78 5 5
1 0 0 0 4 59 100 100 100 100 100 100 100 100 100 100 100 100 100 100 100 100 100 100 96 96 100 100 100 100 100 100 100 99 87 8 20 33 5 5 76 93 91
0 0 0 0 15 99 100 94 100 100 100 100 100 100 100 100 95 75 93 84 90 100 96 90 100 100 100 100 100 100 100 100 100 49 6 17 56 35 82 83 23 15 7
5 5 5 12 76 100 100 100 100 100 100 100 100 100 100 100 100 100 100 100 99 100 100 100 100 100 100 100 100 100 93 93 80 61 61 22 5 5 5 8 58 5 5
100 55 15 22 58 98 100 99 100 100 100 62 97 100 100 100 98 95 96 67 100 100 100 100 100 100 100 93 87 100 100 57 78 7 5 5 5 5 5 5 7 89 71
100 98 53 27 6 23 45 99 98 78 5 5 62 68 78 57 76 87 60 86 97 99 100 100 100 100 89 99 100 100 17 5 5 5 13 5 5 5 5 5 6 57 41
100 99 11 27 93 6 6 12 33 17 9 49 58 62 55 82 82 90 98 83 81 100 100 100 100 100 100 100 100 92 8 11 18 18 6 11 5 5 5 5 5 5 38
92 15 22 100 95 98 100 100 100 52 22 15 65 100 57 10 16 64 78 99 100 100 100 100 100 100 100 65 55 44 94 88 11 5 6 5 5 5 5 18 9 6 96
36 23 15 100 100 100 100 100 98 86 100 47 12 13 24 85 95 90 100 99 100 100 81 77 95 100 99 66 97 97 45 57 29 9 42 5 10 73 67 18 47 55 100
100 69 99 100 100 95 78 98 84 100 96 18 5 52 89 70 83 99 100 100 100 71 64 84 100 91 99 94 62 65 56 46 40 7 5 65 73 63 63 58 98 74 100
93 89 91 71 70 100 66 6 76 85 75 67 41 75 100 100 100 96 100 82 20 11 71 90 67 54 49 73 74 81 73 16 49 37 75 100 100 100 100 95 60 100 98

GFSMW_prec_cloud_078.txt.gz
Cloud_Cover
36 95 98 100 55 54 96 100 100 100 100 100 100 100 100 100 100 100 100 100 100 100 100 100 100 100 100 100 72 44 100 79 98 100 100 100 98 33 5 5 4 2 0
100 100 100 78 100 100 100 100 100 100 100 100 84 100 100 100 100 100 100 100 100 100 100 100 100 100 95 96 100 97 61 95 100 100 57 99 34 98 99 44 18 30 82
100 95 100 100 100 96 100 100 100 100 100 72 47 100 100 100 100 100 100 100 100 100 100 96 100 100 98 69 68 100 100 84 59 94 100 100 99 85 11 29 8 5 2
100 100 100 70 87 100 100 100 100 100 100 100 100 100 100 100 100 99 100 100 100 100 100 100 100 75 100 100 100 100 100 100 81 100 100 100 100 100 100 98 9 2 5
100 100 100 85 67 83 12 79 90 100 100 100 100 100 100 100 100 100 100 99 100 98 100 100 100 100 99 100 100 100 100 100 100 100 100 99 94 64 100 100 84 31 73
58 100 100 100 100 100 84 51 96 100 100 100 100 100 100 90 98 93 96 88 100 100 100 100 100 100 88 100 100 100 100 100 100 100 100 100 100 100 100 58 1 0 0
69 66 100 100 100 100 100 100 86 66 97 56 100 100 100 100 100 100 100 100 100 100 100 100 100 100 100 100 100 100 100 100 100 100 100 100 100 89 95 59 5 5 4
86 100 72 3 58 100 100 18 11 77 20 6 84 97 100 100 100 100 100 100 100 100 100 100 98 100 100 100 100 100 100 100 100 100 100 100 100 100 96 100 25 5 6
5 5 83 63 64 6 56 30 4 44 94 99 75 9 5 38 97 100 100 100 100 100 100 100 100 100 100 100 100 100 100 100 100 100 100 100 100 100 100 90 5 1 6
1 4 5 5 24 51 20 39 43 10 5 34 42 67 51 54 73 99 90 95 82 94 100 100 100 100 100 100 100 100 100 100 100 100 100 100 100 100 100 100 7 74 31
5 5 5 5 13 61 97 5 12 16 14 6 5 5 5 68 100 96 93 94 100 100 100 100 100 100 100 100 100 100 100 100 100 100 100 100 98 100 99 97 100 57 33
5 4 5 0 3 96 23 15 5 4 5 56 86 12 39 80 100 100 99 100 99 91 100 100 100 100 100 100 100 100 100 100 100 100 100 100 100 100 100 100 55 94 97
0 2 5 5 1 0 0 5 4 3 14 89 97 55 68 100 100 100 100 100 100 100 100 99 98 100 100 100 100 100 100 100 100 100 100 100 100 100 100 100 100 100 94
0 1 32 2 0 2 5 0 91 100 96 54 39 72 100 99 100 100 100 100 100 100 100 100 100 100 100 100 100 100 100 100 100 100 100 100 100 100 100 100 100 61 33
100 39 2 5 5 0 0 0 96 72 31 14 78 100 100 100 100 100 100 100 100 100 99 100 100 100 100 100 100 100 100 100 100 100 100 100 100 100 100 71 73 98 40
5 5 0 0 0 0 0 0 14 5 44 100 100 100 100 100 100 100 100 98 100 100 100 100 100 100 99 100 100 98 100 100 100 100 100 100 100 100 100 100 93 33 8
14 6 0 0 0 0 1 1 0 9 36 100 100 100 100 100 100 100 100 100 100 100 100 100 100 95 100 99 92 100 100 100 100 100 97 100 100 100 100 93 82 44 70
57 17 4 4 97 4 1 1 4 32 94 100 100 100 100 100 100 100 100 100 100 100 100 100 100 100 80 42 89 100 63 100 100 100 100 100 100 100 90 20 17 65 16
100 68 5 6 100 35 5 25 99 100 97 100 100 100 100 100 100 100 100 100 100 100 100 79 76 82 11 37 99 95 98 100 100 100 100 100 100 66 45 34 16 5 7
53 86 6 61 98 13 8 98 78 100 100 100 100 100 100 100 100 100 100 100 100 100 70 92 61 59 80 100 96 53 62 58 100 100 100 100 60 58 42 8 5 5 5
43 98 100 72 98 24 74 93 100 100 100 100 100 100 100 100 100 100 100 75 100 96 31 46 58 100 97 32 18 94 98 67 73 69 64 60 56 11 5 5 5 5 13
10 13 90 100 100 100 100 58 97 100 100 100 100 100 100 100 100 100 99 99 96 6 72 100 100 99 95 50 54 100 95 39 5 16 11 5 9 8 18 5 5 5 94
5 6 99 100 100 100 100 100 99 100 100 98 98 100 65 100 100 100 100 23 76 98 96 100 100 100 100 98 98 92 97 92 50 5 5 5 8 17 12 11 37 70 50
5 7 7 77 97 99 96 100 100 100 97 100 100 84 100 99 100 100 94 100 100 100 100 100 100 100 100 100 100 100 99 24 43 16 6 9 55 66 17 36 65 41 78
7 6 21 26 50 53 59 83 92 100 94 100 100 100 91 85 82 96 100 100 100 100 100 100 100 100 100 100 100 100 99 47 42 62 59 96 99 86 82 66 81 87 91
40 5 49 29 37 96 97 100 100 100 100 100 100 100 100 100 100 100 100 100 100 100 100 100 100 100 100 100 100 100 100 71 79 97 100 97 84 72 59 100 100 91 90

GFSMW_prec_cloud_081.txt.gz
Cloud_Cover
100 100 100 100 100 100 100 100 100 100 100 100 100 100 100 100 100 100 100 100 100 100 100 100 100 100 100 99 95 100 81 91 67 93 100 100 100 100 94 68 7 48 100
100 76 93 66 47 70 71 77 79 100 100 100 100 100 100 100 100 100 100 100 100 100 100 100 100 100 100 100 100 100 100 93 100 100 100 100 100 100 99 100 100 100 100
99 46 64 95 8 18 27 98 64 96 100 93 97 76 98 99 100 100 100 100 100 100 100 100 100 100 100 88 100 100 100 100 100 100 97 100 99 29 89 100 100 97 93
72 100 55 16 5 5 0 1 54 47 16 90 57 11 42 100 100 96 100 100 100 95 100 100 99 100 100 100 100 100 100 88 100 100 97 96 86 49 100 68 42 96 85
5 88 100 98 5 5 5 38 41 45 97 100 100 100 100 100 100 100 100 100 100 100 100 100 100 100 100 100 100 100 100 100 99 66 100 100 100 100 100 100 100 76 85
83 12 61 43 57 22 54 100 100 100 97 90 82 99 100 100 100 100 100 100 100 100 100 100 100 100 100 100 100 100 96 100 100 99 87 99 100 100 100 100 100 100 100
99 94 5 60 99 49 58 93 100 80 11 31 55 41 72 100 100 100 97 100 100 100 98 100 100 100 100 97 99 100 100 100 100 100 100 100 100 100 97 92 90 58 95
37 98 90 5 5 24 100 100 100 100 64 20 6 5 10 57 62 86 100 100 100 100 97 100 98 100 100 100 100 100 100 100 100 100 100 100 100 100 100 68 60 68 89
1 3 5 5 45 5 4 92 100 100 100 100 23 12 74 82 15 8 37 100 100 100 99 57 99 100 100 99 97 100 100 100 100 100 100 100 100 100 100 100 58 73 74
16 4 2 6 4 5 6 86 100 100 98 100 83 5 32 5 11 62 79 99 100 87 96 98 77 100 100 100 100 100 100 100 100 100 100 100 100 100 100 100 100 100 100
4 13 72 8 5 71 95 91 59 95 100 93 70 8 2 5 96 44 9 12 85 100 100 100 100 100 99 99 73 100 100 100 100 100 100 100 100 100 100 100 100 100 100
0 0 0 10 46 8 80 100 92 100 100 89 38 99 24 4 79 100 100 100 100 100 100 100 74 74 100 100 43 100 100 100 100 100 100 100 100 100 100 100 100 100 100
0 0 0 0 0 2 31 96 75 67 6 5 11 8 31 41 95 100 100 100 100 100 100 100 100 100 100 97 100 100 100 100 100 100 100 100 100 100 100 99 49 6 31
5 5 0 0 0 0 0 2 2 18 10 33 100 41 58 77 100 100 100 100 100 100 97 63 100 100 100 100 100 100 100 100 100 90 98 63 43 75 10 5 33 83 98
5 5 5 2 0 0 0 0 0 4 4 40 76 96 99 100 100 100 100 98 100 93 100 90 100 100 100 100 100 93 100 55 20 31 27 5 5 5 5 5 5 5 7
5 5 5 8 36 0 0 3 37 55 73 100 100 100 100 100 100 100 100 100 100 100 100 100 100 100 100 100 100 100 86 97 98 90 39 5 5 5 5 5 6 97 15
5 4 5 44 5 5 11 83 99 98 100 100 100 100 100 100 100 100 100 100 100 100 100 100 100 100 100 100 96 20 95 97 91 64 5 51 47 39 6 65 86 76 85
4 0 5 4 1 4 40 54 73 98 96 100 100 100 100 100 100 100 100 100 100 100 100 100 100 100 95 42 63 84 87 98 96 95 98 92 99 90 77 95 100 100 100
8 5 5 7 17 41 18 43 80 98 100 100 100 100 100 100 100 100 100 100 100 100 100 100 93 55 86 99 94 96 100 99 100 100 100 100 100 100 100 96 100 100 92
21 5 5 5 6 5 5 18 100 100 100 100 100 100 100 100 100 100 100 100 100 100 100 100 84 99 96 94 98 100 100 100 99 100 100 100 100 100 100 100 100 88 11
5 7 7 78 85 13 5 6 68 100 100 100 100 100 100 100 100 100 100 100 100 100 91 59 81 100 85 100 100 99 100 100 100 100 100 100 100 100 100 100 100 67 85
5 24 97 100 83 78 5 5 25 56 51 54 95 100 100 100 100 100 100 100 100 100 100 94 100 40 64 95 100 100 100 100 100 100 100 100 100 100 100 100 100 99 81
5 62 100 100 69 34 5 5 55 37 5 73 92 100 100 100 100 100 100 100 100 100 100 100 97 80 93 100 100 100 100 100 100 100 100 100 100 100 100 100 82 62 96
16 99 96 17 72 54 5 10 5 18 66 99 100 100 100 100 100 100 100 100 100 100 100 100 100 100 100 100 100 100 100 100 100 100 100 100 100 100 100 100 100 100 100
100 80 56 76 51 60 43 50 91 37 96 100 100 100 100 100 100 100 100 100 100 100 100 100 100 100 100 100 100 100 100 100 100 100 100 100 100 100 100 100 100 100 100
79 95 94 100 97 60 96 68 96 100 100 100 100 100 100 100 100 100 100 100 100 100 100 100 100 100 100 100 100 100 100 100 100 100 100 100 100 100 100 100 100 100 100

GFSMW_prec_cloud_084.txt.gz
Cloud_Cover
100 100 100 100 100 100 100 100 100 100 100 100 100 100 100 100 100 100 100 100 97 95 52 50 67 43 81 99 100 100 100 100 98 95 98 100 88 100 100 99 100 100 100
100 100 100 100 100 100 100 100 100 100 100 100 100 100 100 100 100 100 100 100 100 100 100 100 99 100 96 100 100 100 100 61 96 100 99 100 100 100 100 97 98 24 26
56 88 65 95 63 100 100 100 100 100 100 100 100 100 100 100 100 100 100 100 100 100 100 100 100 100 100 96 100 95 100 100 100 100 100 100 100 100 100 99 100 100 100
5 10 52 12 100 54 100 100 100 100 100 100 100 100 100 100 100 100 100 100 100 100 100 100 100 100 100 100 100 100 100 100 100 100 100 100 100 100 100 87 97 100 42
5 5 38 100 92 36 100 100 100 100 100 100 100 100 100 100 100 100 100 100 100 100 100 100 100 100 94 100 77 54 100 99 100 100 100 100 99 63 100 100 70 58 53
66 63 36 48 98 89 58 16 93 100 100 100 100 100 100 100 100 100 100 100 100 100 100 100 100 100 100 100 100 100 100 100 100 100 100 100 100 100 100 100 100 100 100
36 5 5 6 26 40 3 4 0 3 9 48 95 80 5 4 85 53 51 77 100 100 100 100 98 77 80 82 91 97 73 93 100 100 100 100 100 100 99 100 100 100 98
0 0 4 0 0 4 24 96 86 62 5 22 39 5 5 5 6 8 5 19 18 42 73 93 88 100 100 97 100 100 100 98 100 100 100 100 100 100 100 100 100 99 100
0 0 0 2 61 2 0 5 14 98 65 100 100 11 7 22 5 3 0 5 62 56 60 54 100 99 100 100 100 100 93 99 96 100 100 100 100 100 100 100 100 100 92
2 0 0 0 0 4 74 100 98 99 35 5 5 34 92 78 7 6 2 5 16 13 97 100 100 100 100 97 100 83 100 81 100 100 100 100 100 100 100 100 95 63 100
0 0 0 0 0 4 35 90 100 100 95 98 29 5 12 60 100 74 6 6 60 100 100 100 100 100 100 48 100 93 100 100 100 100 100 100 100 100 100 100 100 100 79
2 5 0 3 0 0 0 1 43 100 100 100 100 31 4 5 89 90 100 100 100 100 100 100 100 100 84 97 98 100 100 58 94 100 100 100 100 100 100 100 82 74 16
1 2 10 5 0 0 0 0 1 6 93 98 95 92 21 16 40 67 100 100 100 100 100 100 100 100 100 100 100 98 100 100 100 100 100 100 90 100 71 18 32 10 5
27 1 0 0 6 7 5 0 0 0 0 41 72 85 99 77 48 99 100 100 100 100 100 100 100 100 100 100 99 97 100 100 100 100 100 100 88 7 13 64 10 5 5
2 0 0 0 4 2 3 1 0 0 0 0 77 100 100 100 100 100 100 100 100 100 100 100 100 100 100 100 100 100 100 100 100 100 100 68 68 70 50 5 5 19 58
1 3 5 0 0 3 5 25 19 26 5 1 93 100 100 100 100 100 100 100 100 100 100 100 100 100 100 100 100 100 100 100 100 100 96 100 100 82 5 61 90 100 99
5 5 5 5 1 2 1 63 100 91 86 100 100 100 100 100 100 100 100 100 100 100 100 100 100 100 100 100 100 100 100 100 100 80 98 100 99 79 89 76 83 100 100
80 5 8 85 68 96 98 100 100 100 100 100 100 100 100 100 100 100 100 100 100 100 100 100 100 100 100 100 100 100 100 94 89 96 100 100 100 100 93 73 86 100 100
11 94 27 58 100 100 100 100 100 100 100 100 100 100 100 100 100 100 100 100 100 100 100 100 100 100 100 86 100 100 81 96 100 82 97 96 95 98 82 96 100 100 100
100 100 98 78 62 76 78 100 100 100 100 100 100 100 100 100 100 100 100 100 100 100 100 100 100 100 100 100 100 100 100 100 100 99 83 82 85 100 100 100 100 91 81
100 100 99 96 56 62 38 76 96 100 100 100 98 100 100 100 100 100 100 100 100 100 100 100 100 100 100 100 100 100 100 100 100 100 100 100 100 100 100 100 100 86 100
100 67 99 100 92 62 99 100 51 53 64 99 98 100 100 100 100 100 100 100 100 100 100 100 100 100 100 100 100 100 100 100 100 100 100 100 100 100 100 100 100 100 100
19 96 100 100 100 100 100 100 98 100 100 78 100 100 100 100 100 100 100 100 100 100 100 100 100 100 100 100 100 100 100 99 100 100 100 100 100 100 100 100 100 100 100
100 100 100 100 100 100 100 100 81 98 99 100 100 100 100 100 100 100 100 100 100 100 100 100 100 100 100 100 98 100 100 100 100 100 100 100 100 100 100 100 100 100 100
75 100 100 100 100 100 100 98 82 100 100 99 100 100 100 100 100 100 100 100 100 100 100 100 100 100 100 100 100 100 100 100 100 100 100 100 100 100 100 100 100 100 100
100 99 64 77 100 100 100 100 100 100 100 100 100 100 100 100 100 100 100 100 100 100 100 100 100 100 100 100 100 100 100 100 100 100 100 100 100 100 100 100 100 100 100

GFSMW_prec_cloud_087.txt.gz
Cloud_Cover
100 100 100 100 100 100 100 100 100 100 100 100 100 100 100 100 100 100 100 100 100 96 77 96 65 86 74 100 100 100 100 100 100 100 100 100 100 100 78 100 100 100 100
36 100 100 100 100 100 100 100 100 100 100 100 100 100 100 100 100 100 100 100 100 100 100 92 100 100 100 100 100 100 100 100 100 100 100 100 100 100 100 100 100 100 100
8 80 100 100 100 100 100 100 100 100 100 100 100 100 100 100 100 100 100 100 100 100 100 100 100 100 100 100 100 100 100 100 100 100 100 100 100 100 100 100 83 100 86
0 80 100 100 100 100 100 100 100 100 100 100 100 100 100 100 100 100 100 100 100 100 100 100 100 100 100 100 100 100 98 100 93 63 96 100 100 100 100 100 100 75 46
4 16 90 92 100 100 100 100 100 100 100 100 100 100 100 100 100 100 100 100 100 100 100 100 100 100 100 100 100 99 100 100 100 100 100 100 100 100 95 95 99 95 21
0 1 1 11 86 93 100 100 100 100 100 100 100 100 100 100 100 100 100 100 100 100 100 100 100 100 100 100 100 100 100 100 100 85 100 100 100 100 100 98 100 96 32
0 3 5 4 20 64 73 70 100 98 79 100 100 100 100 100 100 100 100 100 100 100 100 100 100 100 100 20 22 32 95 100 100 100 100 100 100 100 100 100 100 100 100
0 0 0 0 5 5 90 54 9 99 92 88 70 30 12 100 100 89 18 19 41 72 61 67 84 82 33 37 100 97 100 100 100 100 100 100 100 100 100 100 100 100 100
0 0 0 0 2 100 65 7 33 5 6 26 11 25 8 17 5 7 5 5 28 85 81 56 23 62 100 100 98 45 43 94 51 100 100 98 100 100 100 100 100 100 100
5 5 0 3 3 94 100 100 100 100 98 64 25 22 5 5 13 3 5 5 5 5 66 81 98 87 100 86 100 59 68 96 95 99 99 76 99 100 92 100 100 100 100
0 1 0 0 0 17 90 100 100 100 100 100 32 19 5 5 5 5 4 8 8 5 67 81 100 100 100 100 100 92 100 96 100 100 100 100 100 100 100 100 100 100 100
0 0 0 0 0 0 0 1 12 86 100 100 100 96 5 2 5 16 20 34 22 52 100 100 100 100 100 100 100 100 100 100 100 100 100 100 100 100 100 100 100 100 100
48 4 0 0 0 0 0 0 0 0 80 96 100 100 93 62 22 6 26 27 82 100 100 100 100 100 100 100 100 100 100 100 100 100 100 100 100 100 100 100 100 100 51
63 5 3 0 5 0 0 0 0 0 0 0 0 2 60 9 7 70 76 94 100 100 100 100 100 100 100 100 100 100 100 100 100 100 100 100 100 100 100 100 100 18 6
48 37 5 0 0 0 1 0 0 0 0 0 0 2 1 5 28 84 93 100 100 100 100 100 100 100 100 100 100 100 100 100 100 100 100 100 100 100 100 100 40 61 85
66 8 5 1 0 4 3 0 3 1 5 5 5 31 55 63 78 91 100 100 100 100 100 100 100 100 100 100 100 100 100 100 100 100 100 100 100 97 100 100 100 100 98
100 72 8 5 5 2 5 6 28 19 7 67 100 100 100 100 100 100 100 100 100 100 100 100 100 100 100 100 100 100 100 100 100 100 100 100 100 87 82 100 100 100 100
100 86 21 2 100 99 94 88 89 100 100 100 100 100 100 100 100 100 100 100 100 100 100 100 100 100 100 100 100 100 100 100 100 100 100 100 100 94 100 100 95 97 100
97 5 3 77 100 100 100 100 100 100 100 100 100 100 100 100 100 100 100 100 100 100 100 100 100 100 100 100 100 100 100 100 100 100 90 100 100 100 99 100 98 100 100
95 57 98 100 100 100 100 100 100 100 100 100 100 100 100 100 100 100 100 100 100 100 100 100 100 100 100 100 100 100 100 100 100 100 100 100 100 100 100 100 100 100 100
100 84 38 100 100 100 100 100 100 100 100 100 100 100 100 100 100 100 100 100 100 100 100 100 100 100 100 100 100 100 100 100 100 100 97 100 100 100 100 100 100 100 100
100 100 99 100 100 100 94 100 98 100 100 100 100 100 100 100 100 100 100 100 100 100 100 100 100 100 100 100 100 100 100 100 100 100 100 100 100 100 100 100 100 100 100
100 100 100 100 100 100 33 32 96 100 100 100 100 100 100 100 100 100 100 100 100 100 100 100 100 100 100 100 100 100 100 100 100 100 100 100 100 100 100 100 100 100 100
100 100 100 100 88 60 92 94 100 100 100 100 100 100 100 100 100 100 100 100 100 100 100 100 100 100 100 100 100 100 100 100 100 100 100 100 100 100 100 100 100 100 100
100 100 100 79 92 49 40 87 78 68 78 88 93 100 100 100 100 100 100 100 100 100 100 100 100 100 100 100 100 100 100 100 100 100 100 100 100 100 100 100 100 100 100
100 100 97 100 85 58 87 100 82 52 81 99 100 100 100 100 100 100 100 100 100 100 100 100 100 100 100 100 100 100 100 100 100 100 100 100 100 100 100 100 100 100 100

GFSMW_prec_cloud_090.txt.gz
Cloud_Cover
20 99 100 100 100 100 100 100 100 100 100 100 100 100 100 100 100 100 100 100 100 100 100 100 100 100 100 99 100 100 100 100 100 100 100 100 100 100 100 100 100 100 100
94 95 100 100 100 100 100 100 100 100 100 100 100 100 100 100 100 100 100 100 100 100 100 100 100 100 100 100 100 100 96 100 100 100 100 100 100 100 100 100 100 100 100
59 89 99 97 100 100 100 100 100 100 100 100 100 100 100 100 100 100 100 100 100 100 100 100 100 100 100 100 100 100 100 100 100 98 100 100 100 99 100 100 100 100 100
3 8 100 100 100 100 100 100 100 100 100 100 100 100 100 100 100 100 100 100 100 100 100 100 100 100 100 100 100 100 100 100 100 100 100 100 100 100 100 100 49 100 100
0 0 32 100 100 100 100 100 100 100 100 100 100 100 100 100 100 100 100 100 100 100 100 100 100 100 100 100 100 100 100 100 100 100 100 98 100 100 60 100 94 46 79
0 0 9 100 100 100 100 100 100 100 100 100 100 100 100 100 100 100 100 100 100 100 100 100 100 100 100 100 100 100 100 100 100 94 100 100 75 100 94 100 100 100 98
0 14 52 100 100 100 100 100 100 100 100 100 100 100 100 100 100 100 100 100 100 100 100 100 100 100 100 100 100 100 100 100 100 90 100 100 62 100 97 100 95 100 100
2 1 8 29 80 100 100 100 100 100 100 100 100 100 100 100 100 100 100 100 100 100 100 100 100 100 100 89 92 92 100 100 100 52 50 43 98 100 100 90 100 100 100
4 5 0 3 9 47 84 100 96 83 100 100 81 99 100 100 100 100 100 100 100 100 100 100 100 100 98 99 58 100 100 100 91 68 47 47 84 100 99 98 100 100 100
0 1 0 0 0 4 18 48 18 32 68 94 28 40 11 50 91 100 100 93 100 67 64 60 38 69 88 100 96 100 100 100 100 99 100 100 94 100 100 100 100 100 91
4 2 0 0 0 0 0 94 91 22 30 94 93 17 5 5 5 5 12 9 5 5 5 43 74 70 100 98 100 100 100 100 100 100 100 100 100 100 100 100 100 100 87
3 0 0 0 0 0 0 0 4 88 62 5 78 100 31 5 17 88 95 5 68 35 95 95 85 100 100 100 100 100 100 100 100 100 100 100 100 100 100 100 100 100 100
0 0 0 6 4 0 2 0 0 0 2 78 98 100 100 100 100 58 46 98 5 100 96 100 100 100 100 100 100 100 100 100 100 100 100 100 100 100 100 100 100 100 100
5 2 72 14 0 1 92 0 0 0 0 0 1 2 29 5 54 98 100 80 100 100 100 100 100 100 100 100 100 100 100 100 100 100 100 100 100 100 100 100 100 100 100
10 75 56 5 0 2 9 5 2 0 0 0 0 0 0 0 0 0 2 66 100 96 100 99 100 100 100 100 100 100 100 100 100 100 100 100 100 100 100 100 100 100 100
94 89 49 100 5 0 0 3 1 0 0 0 0 0 0 0 0 0 5 34 91 100 100 100 100 100 100 100 100 100 100 100 100 100 100 100 100 100 100 100 100 100 100
100 100 100 100 100 38 1 0 0 2 2 1 5 20 16 14 59 66 84 95 100 100 100 100 100 100 100 100 100 100 100 100 100 100 100 100 100 100 100 100 100 100 100
100 100 100 100 100 98 87 99 98 82 44 88 98 100 100 100 100 100 100 100 100 100 100 100 100 100 100 100 100 100 100 100 100 100 100 100 100 100 100 100 100 100 100
100 100 100 100 100 100 100 100 100 100 100 100 100 100 100 100 100 100 100 100 100 100 100 100 100 100 100 100 100 100 100 100 100 100 100 100 100 100 100 100 100 100 100
100 100 100 100 100 100 100 100 100 100 100 100 100 100 100 100 100 100 100 100 100 100 100 100 100 100 100 100 100 100 100 100 100 100 100 100 100 100 100 100 100 100 100
100 100 100 100 100 100 100 100 100 100 100 100 100 100 100 100 100 100 100 100 100 100 100 100 100 100 100 100 100 100 100 100 100 100 100 100 100 100 100 100 100 100 100
100 100 100 100 100 100 100 100 100 100 100 100 100 100 100 100 100 100 100 100 100 100 100 100 100 100 100 100 100 100 100 100 100 100 100 100 100 100 100 100 100 100 100
100 100 100 100 100 100 100 100 100 100 100 100 100 100 100 100 100 100 100 100 100 100 100 100 100 100 100 100 100 100 100 100 100 100 100 100 100 100 100 100 100 100 100
100 100 100 100 100 100 100 88 100 100 100 100 99 100 100 100 100 100 100 100 100 100 100 100 100 100 100 100 100 100 100 100 100 100 100 100 100 100 100 100 100 100 100
100 100 100 100 100 100 100 100 100 100 88 24 94 100 100 100 100 100 100 100 100 100 100 100 100 100 100 100 100 100 100 100 100 100 100 100 100 100 100 100 100 100 100
100 100 100 88 100 95 91 100 100 76 61 76 100 97 100 100 100 100 100 100 100 100 100 100 100 100 100 100 100 100 100 100 100 100 100 100 100 100 100 100 100 100 100

GFSMW_prec_cloud_093.txt.gz
Cloud_Cover
18 83 100 100 100 100 100 100 100 100 100 100 100 100 100 100 100 100 100 100 100 100 100 100 100 100 100 100 95 94 90 91 100 100 100 100 100 100 100 100 100 100 100
28 82 100 100 100 100 100 100 100 100 100 100 100 100 100 100 100 100 100 100 100 100 100 100 100 99 99 100 100 100 100 100 100 100 100 100 100 100 100 100 100 100 100
1 21 90 100 100 100 100 100 100 100 100 100 100 100 100 100 100 100 100 100 100 100 100 100 100 100 100 100 100 100 100 100 100 100 100 100 100 100 100 100 100 100 97
0 0 19 100 100 100 100 100 100 100 100 100 100 100 100 100 100 100 100 100 100 100 100 100 100 100 100 100 100 100 100 100 100 100 100 100 100 100 100 100 100 93 64
0 0 0 41 100 100 100 100 100 100 100 100 100 100 100 100 100 100 100 100 100 100 100 100 100 100 100 100 100 100 100 100 100 100 100 100 100 100 84 13 69 40 64
0 0 0 38 100 100 100 100 100 100 100 100 100 100 100 100 100 100 100 100 100 100 100 100 100 100 100 100 100 100 100 100 100 100 100 100 100 63 100 100 100 100 100
0 0 0 4 95 100 100 100 100 100 100 100 100 100 100 100 100 100 100 100 100 100 100 100 100 100 100 100 100 100 100 100 100 100 73 78 100 100 100 98 96 80 99
1 0 0 0 6 100 100 100 100 100 100 100 100 100 100 100 100 100 100 100 100 100 100 100 100 100 100 100 100 100 99 100 79 89 83 100 100 100 100 86 83 100 100
5 0 0 0 0 94 100 100 100 100 100 100 100 100 100 100 100 100 100 100 100 100 100 100 100 100 100 98 98 100 100 100 97 61 61 98 100 82 100 100 74 100 100
5 4 0 5 5 8 96 100 100 100 100 100 100 100 99 100 100 100 100 100 100 100 100 100 100 100 100 100 100 100 100 95 100 100 100 100 100 100 100 100 100 100 100
46 5 2 5 5 5 3 82 100 82 47 37 40 40 66 67 89 99 100 100 78 98 68 9 6 44 37 80 95 93 91 100 100 100 98 100 100 100 100 100 100 100 100
97 35 86 5 2 1 0 0 22 60 84 25 23 12 6 100 100 87 7 19 98 98 64 16 14 80 100 100 100 100 100 100 100 100 100 100 100 100 100 100 100 100 100
100 100 92 71 0 2 0 0 0 0 2 58 99 72 45 82 100 95 100 100 100 19 5 7 52 48 100 100 100 100 100 100 100 100 100 100 100 100 100 100 100 100 100
100 99 15 47 13 100 9 0 0 0 0 0 0 24 41 20 77 69 41 100 71 5 5 5 33 82 100 100 100 100 100 100 100 100 99 100 100 100 100 100 100 100 100
100 100 39 5 100 82 4 4 0 0 0 2 0 0 0 0 0 0 0 0 0 37 92 47 93 94 100 98 100 100 100 100 100 100 100 100 100 100 100 100 100 100 100
100 100 100 72 98 99 85 5 2 1 0 0 0 0 0 0 0 0 1 25 34 84 99 100 100 100 100 100 100 100 100 100 100 100 100 100 100 100 100 100 100 100 100
99 100 100 87 24 100 55 28 11 15 3 0 0 0 5 5 5 5 99 100 59 71 79 99 100 100 100 100 100 100 100 100 100 100 100 100 100 100 100 100 100 100 100
100 100 100 100 72 98 100 100 100 100 9 6 33 25 20 56 84 92 80 94 100 100 100 100 100 100 100 100 100 100 100 100 100 100 100 100 100 100 100 100 100 100 100
90 100 100 100 90 98 100 100 100 100 100 100 100 100 98 100 100 100 100 100 100 100 100 100 100 100 100 100 100 100 100 100 100 100 100 100 100 100 100 100 100 100 100
100 100 100 100 100 100 100 100 100 100 100 100 100 100 100 100 100 100 100 100 100 100 100 100 100 100 100 100 100 100 100 100 100 100 100 100 100 100 100 100 100 100 100
100 100 100 100 100 100 100 100 100 100 100 100 100 100 100 100 100 100 100 100 100 100 100 100 100 100 100 100 100 100 100 100 100 100 100 100 100 100 100 100 100 100 100
100 100 100 100 100 100 100 100 100 100 100 100 100 100 100 100 100 100 100 100 100 100 100 100 100 100 100 100 100 100 100 100 100 100 100 100 100 100 100 100 100 100 100
100 100 100 100 100 100 100 100 100 100 100 100 100 100 100 100 100 100 100 100 100 100 100 100 100 100 100 100 100 100 100 100 100 100 100 100 100 100 100 100 100 100 100
100 100 100 100 100 100 100 100 100 100 100 100 100 100 100 100 100 100 100 100 100 100 100 100 100 100 100 100 100 100 100 100 100 100 100 100 100 100 100 100 100 100 100
100 100 100 100 100 100 100 100 100 96 85 92 100 100 100 100 100 100 100 100 100 99 95 100 100 100 99 100 91 100 100 100 99 100 98 100 100 100 100 100 100 100 100
100 100 100 100 100 100 100 100 100 95 90 99 100 100 92 100 100 100 100 100 100 100 80 85 85 94 99 100 100 100 100 100 100 100 100 100 100 100 100 100 100 100 100

GFSMW_prec_cloud_096.txt.gz
Cloud_Cover
0 0 6 33 92 100 100 100 100 100 100 100 100 100 100 100 100 100 100 100 100 100 100 100 100 100 100 100 100 97 84 71 92 97 96 88 100 100 100 100 100 100 100
0 0 0 23 78 100 100 100 100 100 100 100 100 100 100 100 100 100 100 100 100 100 100 100 100 100 75 100 100 100 100 100 99 100 97 100 100 100 100 100 100 100 100
0 0 4 46 76 84 100 100 100 100 100 100 100 100 100 100 100 100 100 100 100 100 100 100 100 100 100 98 100 100 93 93 100 100 100 100 100 100 100 100 100 100 100
5 0 0 6 83 73 100 100 100 100 100 100 100 100 100 100 100 100 100 100 100 100 100 100 100 100 100 100 100 100 99 100 100 100 100 100 100 100 100 100 100 100 100
4 0 0 0 56 99 96 93 100 100 100 100 100 100 100 100 100 100 100 100 100 100 100 100 100 100 100 100 100 100 100 100 100 100 100 100 100 100 100 94 100 95 100
1 4 0 0 1 99 100 100 100 100 100 100 100 100 100 100 100 100 100 100 100 100 100 100 100 100 100 100 100 100 100 100 100 100 100 100 100 100 100 98 100 100 100
5 5 0 0 0 28 96 100 100 100 100 100 100 100 100 100 100 100 100 100 100 100 100 100 100 100 100 100 100 100 100 100 100 100 100 100 100 100 100 97 98 100 100
42 11 1 0 0 0 74 87 83 100 100 100 100 100 100 100 100 100 100 100 100 100 100 100 100 100 100 100 100 100 100 100 100 100 100 100 100 100 100 100 100 100 100
2 93 7 0 0 0 1 77 62 100 100 100 100 100 100 100 100 100 100 100 100 100 100 100 100 100 100 100 100 100 100 100 100 100 96 81 42 96 100 100 100 100 100
5 56 65 1 0 0 0 14 3 8 84 100 100 100 100 100 100 100 100 100 100 100 100 100 100 100 100 100 100 100 100 96 98 46 100 87 98 100 100 100 100 100 100
5 19 100 6 0 0 0 6 24 1 1 86 100 100 100 100 100 100 100 100 100 100 100 100 100 100 100 100 86 22 90 96 94 100 100 100 100 99 100 100 100 100 100
5 5 66 96 5 0 0 0 69 16 0 5 9 7 31 61 27 92 100 100 99 100 59 99 30 27 7 9 21 86 88 100 100 100 100 100 99 100 100 100 100 100 100
33 45 9 100 5 5 25 0 0 0 0 1 23 16 17 5 36 89 54 75 13 15 20 13 15 5 5 55 7 9 37 94 99 100 100 98 100 100 100 100 100 100 100
100 100 100 100 91 5 5 0 1 0 0 0 2 24 22 5 5 48 30 12 10 50 12 5 5 5 5 5 27 85 87 100 95 92 86 93 100 100 100 100 100 100 100
100 100 75 76 100 48 5 5 5 5 0 0 0 0 0 0 0 4 5 5 49 85 81 33 5 20 46 28 49 61 84 100 100 100 100 100 100 100 100 100 100 100 100
93 85 80 9 100 100 100 86 53 5 0 0 1 0 0 0 0 0 2 0 0 0 0 1 18 19 49 100 100 100 100 100 100 100 100 100 100 100 100 100 100 100 100
98 100 92 36 100 100 100 100 88 4 5 5 0 2 1 5 5 13 39 75 73 86 56 80 100 100 100 100 100 100 100 100 100 100 100 100 100 100 100 100 100 100 100
62 70 100 100 63 95 100 100 99 100 30 37 12 4 6 25 52 89 100 100 100 100 100 100 100 100 100 100 100 100 100 100 100 100 100 100 100 100 100 100 100 100 100
49 100 57 99 88 100 100 96 90 94 100 100 100 98 95 99 98 100 100 100 100 100 100 100 100 100 100 100 100 100 100 100 100 100 100 100 100 100 100 100 100 100 100
100 100 55 63 90 33 100 100 100 100 100 100 100 100 100 100 100 100 100 100 100 100 100 100 100 100 100 100 100 100 100 100 100 100 100 100 100 100 100 100 100 100 100
100 100 100 100 100 100 100 100 100 100 100 100 100 100 100 100 100 100 100 100 100 100 100 100 100 100 100 100 100 100 100 100 100 100 100 100 100 100 100 100 100 100 100
100 100 100 100 100 100 100 100 100 100 100 100 100 100 100 100 100 100 100 100 100 100 100 100 100 100 100 100 100 100 100 100 100 100 100 100 100 93 93 100 100 100 100
100 100 100 100 100 100 100 100 100 100 100 100 100 100 100 100 100 100 100 100 100 100 100 100 100 100 100 100 100 100 100 100 100 84 76 71 50 68 85 88 90 96 100
100 100 100 100 100 100 100 100 100 100 100 100 100 100 100 100 100 100 100 100 100 100 100 100 100 100 100 100 100 100 100 99 93 99 98 99 98 57 75 94 100 100 100
100 100 100 100 100 100 100 100 100 100 100 100 100 100 100 100 100 99 100 100 100 100 100 100 100 100 100 100 100 100 100 100 82 100 100 100 100 100 100 100 100 100 100
100 100 100 100 100 100 100 100 100 100 100 100 100 100 100 100 100 100 100 100 100 100 100 100 100 100 100 100 100 100 100 98 97 100 100 100 100 100 100 100 100 100 100

GFSMW_prec_cloud_099.txt.gz
Cloud_Cover
0 0 0 1 65 100 90 100 100 100 100 100 91 100 100 100 100 100 100 100 100 100 100 100 100 100 100 100 100 100 100 100 98 100 96 50 100 89 77 45 99 100 100
0 0 0 0 83 100 100 84 100 100 100 100 100 100 100 100 100 100 100 100 100 100 100 100 100 100 100 100 100 100 100 75 100 87 100 78 90 94 100 100 100 100 100
1 0 0 0 37 100 100 100 100 100 100 100 100 100 100 100 100 100 100 100 100 100 100 100 100 100 100 100 100 100 98 100 96 100 100 94 100 100 100 100 100 100 100
1 0 0 0 2 100 100 100 100 100 100 100 100 100 100 100 100 100 100 100 100 100 100 100 100 100 100 100 100 100 100 100 100 100 100 99 100 100 100 100 100 100 100
5 0 0 0 0 36 100 98 100 100 100 100 100 100 100 100 100 100 100 100 100 100 100 100 100 100 100 100 100 100 100 100 100 100 100 100 100 100 100 100 100 100 100
66 0 0 0 0 31 100 100 100 100 100 100 100 100 100 100 100 100 100 100 100 100 100 100 100 100 100 100 100 100 100 100 100 100 100 100 100 100 100 100 100 100 100
48 5 0 3 0 10 97 95 100 100 100 100 100 100 100 100 100 100 100 100 100 100 100 100 100 100 100 100 100 100 100 100 100 100 100 100 100 100 100 100 100 100 100
4 33 0 2 5 0 12 35 100 100 100 100 100 100 100 100 100 100 100 100 100 100 100 100 100 100 100 100 100 100 100 100 100 100 100 100 100 100 100 100 100 48 19
7 82 0 2 5 0 0 0 10 27 98 100 100 100 100 100 100 100 100 100 100 100 100 100 100 100 100 100 100 100 100 100 100 100 100 100 100 100 100 100 77 59 50
5 96 7 0 73 4 0 0 0 0 12 96 100 100 100 100 100 100 100 100 100 100 100 100 100 100 100 100 100 100 100 100 100 100 100 100 100 98 51 87 100 99 93
42 60 97 0 1 8 2 0 0 0 0 2 96 100 100 100 100 100 100 100 100 100 100 100 100 100 100 100 100 100 100 100 100 84 93 83 97 92 94 100 100 100 100
31 32 100 2 3 23 17 0 0 0 0 0 1 32 100 100 100 100 100 100 100 100 100 100 100 100 100 100 100 100 100 100 98 100 8 56 93 100 100 100 100 100 100
13 10 100 29 0 1 98 6 0 0 0 0 0 2 22 90 100 100 100 100 100 100 100 100 100 100 100 100 100 86 29 4 5 41 69 64 82 100 99 100 100 100 100
35 13 97 81 5 1 13 75 2 0 0 0 0 0 0 5 14 35 41 23 62 60 54 59 64 44 32 44 41 73 26 3 5 77 97 89 91 100 100 100 100 97 100
71 78 41 5 33 5 1 17 11 0 0 0 0 0 0 7 18 37 43 46 48 28 35 30 29 58 77 60 30 49 48 89 100 100 100 100 100 100 100 100 100 100 100
100 100 93 51 45 8 16 5 52 23 5 4 0 0 0 1 15 10 15 44 60 85 88 100 96 100 100 100 100 100 100 100 100 100 100 100 100 100 100 100 100 100 100
86 99 100 92 88 81 100 24 100 96 100 25 5 5 3 13 40 70 100 100 100 100 100 100 100 100 100 100 98 100 100 100 100 100 100 100 100 100 100 100 100 100 100
100 99 58 74 85 98 100 100 84 90 100 100 100 22 27 41 82 100 100 100 100 100 100 100 100 100 100 100 100 100 100 100 100 100 100 100 100 100 100 100 100 100 100
100 100 100 99 85 98 94 80 80 96 17 96 100 100 100 100 100 100 100 100 100 100 100 100 100 100 100 100 100 100 100 100 100 100 100 100 100 100 100 98 100 100 100
62 24 9 13 100 100 100 72 54 75 98 100 100 100 100 100 100 100 100 100 100 100 100 100 100 100 100 100 100 100 100 100 100 100 100 100 100 100 100 100 100 100 100
100 99 100 100 100 100 100 100 100 100 100 100 100 100 100 100 100 100 100 100 100 100 100 100 100 100 100 100 100 100 100 100 100 92 89 100 100 100 100 100 100 100 100
100 100 100 100 99 100 100 100 100 100 100 100 100 100 100 100 100 100 100 100 100 100 100 100 100 100 100 100 100 100 100 100 100 100 100 100 100 100 100 100 100 100 100
100 100 100 100 100 100 100 100 100 100 100 100 100 100 100 100 100 100 100 100 100 100 100 100 100 100 100 100 100 100 100 100 100 100 100 100 100 100 100 100 100 100 100
100 100 100 100 100 100 100 100 100 100 100 100 100 100 100 100 100 100 100 100 100 100 100 100 100 100 100 100 100 100 100 100 100 100 100 100 100 100 100 100 100 100 100
100 100 100 100 100 100 100 100 100 100 100 100 100 100 100 100 100 100 100 100 100 100 100 100 100 100 100 100 100 100 100 100 100 100 100 100 100 100 100 99 99 100 100
100 100 100 100 100 100 100 100 100 100 100 100 100 100 100 100 100 100 100 100 100 100 100 100 100 100 100 100 100 100 100 100 100 100 100 100 100 100 100 100 100 100 100

GFSMW_prec_cloud_102.txt.gz
Cloud_Cover
5 0 0 0 0 0 39 100 100 100 100 100 100 100 100 100 100 100 100 100 100 100 100 100 100 100 100 100 100 100 100 100 87 100 100 100 54 94 100 99 11 5 14
28 0 0 0 0 0 100 100 96 100 55 100 100 100 82 100 98 100 100 100 100 100 100 100 100 100 100 100 100 100 98 100 100 100 100 100 98 20 73 9 21 6 96
12 0 0 0 0 2 100 100 100 100 99 100 100 100 100 100 100 100 100 100 100 100 100 100 100 100 100 100 100 94 100 100 100 98 100 100 100 90 41 30 81 100 100
0 3 0 0 0 20 100 100 99 100 100 100 100 100 100 100 100 100 100 100 100 100 100 100 100 100 100 100 100 100 100 100 100 100 100 92 83 70 90 100 100 100 100
2 0 3 0 0 10 99 100 100 100 100 100 100 100 100 100 100 100 100 100 100 100 100 100 100 100 100 100 100 100 100 100 100 100 100 78 84 98 100 100 100 100 100
1 4 5 0 0 0 79 100 100 100 100 100 100 100 100 100 100 100 100 100 100 100 100 100 100 100 100 100 100 100 100 100 100 100 97 100 100 100 100 100 100 100 100
5 5 5 2 0 0 35 99 100 100 100 100 100 100 100 100 100 100 100 100 100 100 100 100 100 100 100 100 100 100 100 100 100 100 100 100 100 100 100 100 100 100 100
5 18 5 3 0 0 38 100 100 100 100 100 100 100 100 100 100 100 100 100 100 100 100 100 100 100 100 100 100 100 100 100 100 100 100 100 100 100 100 100 100 100 100
20 39 5 5 0 0 1 53 100 100 100 100 100 100 100 100 100 100 100 100 100 100 100 100 100 100 100 100 100 100 100 100 100 100 100 100 100 100 100 100 100 100 100
32 45 26 5 2 2 0 0 3 15 97 100 100 100 100 100 100 100 100 100 100 100 100 100 100 100 100 100 100 100 100 100 100 100 100 100 100 100 100 100 100 100 93
100 89 22 5 5 4 0 0 0 0 12 100 100 100 100 100 100 100 100 100 100 100 100 100 100 100 100 100 100 100 100 100 100 100 100 100 100 100 100 100 100 81 68
100 96 5 31 18 59 1 0 3 0 0 1 100 100 100 100 100 100 100 100 100 100 100 100 100 100 100 100 100 100 100 100 100 100 100 100 100 100 100 100 93 53 94
100 98 6 98 12 74 64 0 0 0 0 0 0 69 40 97 100 100 100 100 100 100 100 100 100 100 100 100 100 100 100 100 100 100 100 100 100 93 100 98 100 100 100
91 43 19 46 5 29 100 8 1 1 4 0 0 0 20 4 1 81 100 100 100 100 100 100 100 100 100 100 100 100 100 100 100 100 100 100 93 98 83 100 100 100 100
100 100 100 47 5 5 5 5 4 14 0 4 0 0 0 0 11 20 32 100 100 100 100 100 100 100 100 100 100 100 100 100 100 100 90 99 100 100 100 100 100 100 100
100 100 100 68 100 13 58 93 14 5 21 0 0 0 0 0 1 30 0 0 19 96 100 100 100 100 100 100 100 100 100 100 100 100 100 100 100 100 95 100 100 87 100
100 100 100 100 22 96 100 67 5 58 79 4 1 5 6 0 8 20 37 96 100 100 100 100 100 100 100 100 100 100 100 100 100 100 100 100 100 100 100 100 100 90 100
100 99 65 100 98 57 28 5 9 7 100 98 4 6 19 62 96 92 100 100 100 100 100 100 100 100 100 100 100 100 100 100 100 100 100 100 100 100 100 99 100 94 100
100 63 95 96 97 94 100 88 100 100 100 19 79 40 83 84 100 100 100 100 100 100 100 100 100 100 100 100 100 100 100 100 100 100 100 100 100 100 100 100 100 95 96
85 100 100 91 83 68 85 100 100 100 63 97 100 82 51 100 100 100 100 100 100 100 100 100 100 100 100 100 100 100 100 100 100 100 100 100 100 100 99 62 54 93 52
40 6 15 83 100 100 100 100 100 100 100 100 100 98 100 100 100 100 100 100 100 100 100 100 100 100 100 100 100 100 100 100 100 100 100 98 96 80 94 75 100 100 38
100 92 98 100 99 79 83 95 100 100 100 100 100 100 100 100 100 100 100 100 100 100 100 100 100 100 100 100 100 100 100 100 100 100 100 100 89 94 100 84 75 91 100
100 100 100 100 100 100 100 100 100 100 100 100 100 100 100 100 100 100 100 100 100 100 100 100 100 100 100 100 100 100 72 96 100 85 86 100 94 96 88 82 96 100 100
100 100 100 100 100 100 100 100 100 100 100 100 100 100 100 100 100 100 100 100 100 100 100 93 98 100 100 97 100 100 100 100 100 100 100 100 97 100 100 100 98 95 90
100 100 100 100 100 100 100 100 100 100 100 100 100 100 100 100 100 100 100 100 100 100 100 100 100 100 100 97 100 94 94 91 82 98 100 100 72 44 39 33 28 5 5
100 100 100 100 100 100 100 100 100 100 100 100 100 100 100 100 100 100 100 100 100 100 100 100 100 100 100 100 100 100 89 100 96 80 95 12 34 28 9 5 5 5 5

GFSMW_prec_cloud_105.txt.gz
Cloud_Cover
100 100 100 0 0 0 0 0 40 94 71 100 100 100 100 100 100 100 100 100 100 100 100 100 100 78 100 100 100 100 100 100 100 100 100 100 100 100 100 100 100 8 51
100 100 37 0 0 0 0 15 100 100 92 95 100 100 100 100 100 100 100 100 100 100 100 100 100 100 100 100 100 100 100 100 100 94 97 90 100 97 100 100 100 100 88
100 100 3 0 0 0 0 83 100 100 56 100 97 100 100 100 100 100 100 100 100 100 100 100 100 100 100 100 100 100 100 100 100 100 100 98 100 42 100 100 98 86 100
100 99 4 3 0 0 0 80 100 99 80 100 100 100 100 100 100 100 100 100 100 100 100 100 100 100 100 100 100 100 100 100 97 100 100 100 100 88 78 74 98 54 98
100 100 4 3 0 0 0 27 100 100 99 100 100 100 100 100 100 100 100 100 100 100 100 100 100 100 100 100 100 100 100 100 100 100 100 100 100 100 96 92 45 18 98
100 100 3 4 0 0 0 28 100 100 100 100 100 99 100 100 100 100 100 100 100 100 100 100 100 100 100 100 100 100 100 100 100 100 100 100 98 99 88 27 5 96 100
100 100 6 9 0 0 0 0 100 100 100 100 100 100 100 100 100 100 100 100 100 100 100 100 100 100 100 100 100 100 100 100 100 100 100 100 98 79 71 88 97 100 100
100 99 6 25 5 2 0 0 94 100 100 100 100 100 100 100 100 100 100 100 100 100 100 100 100 100 100 100 100 100 100 100 100 100 100 100 100 100 100 100 100 100 100
100 99 5 5 5 4 0 0 9 100 100 100 100 100 100 100 100 100 100 100 100 100 100 100 100 100 100 100 100 100 100 100 100 100 100 100 100 100 100 100 100 100 100
99 100 100 98 20 5 0 7 0 100 96 100 100 100 100 100 100 100 100 100 100 100 100 100 100 100 100 100 100 100 100 100 100 100 100 100 100 100 100 100 100 100 100
79 100 100 100 49 5 5 5 2 45 99 84 81 92 100 100 100 100 100 100 100 100 100 100 100 100 100 100 100 100 100 100 100 100 100 100 100 100 100 100 100 100 100
98 100 100 100 98 5 5 5 5 0 1 62 55 3 100 100 100 100 100 100 100 100 100 100 100 100 100 100 100 100 100 100 100 100 100 100 100 100 100 100 100 100 100
100 100 100 98 100 5 5 5 61 5 0 75 98 26 34 99 100 100 100 100 100 100 100 100 100 100 100 100 100 100 100 100 100 100 100 100 100 100 100 100 100 100 100
100 100 100 91 100 72 5 7 80 22 34 0 26 100 100 0 73 100 100 100 100 100 100 100 100 100 100 100 100 100 100 100 100 100 100 100 100 100 100 100 100 100 100
100 98 100 100 56 79 28 52 6 5 5 0 0 6 79 0 0 14 89 100 100 100 100 100 100 100 100 100 100 100 100 100 100 100 100 100 100 100 100 100 100 100 100
78 100 100 99 100 97 48 47 26 18 5 0 0 0 0 0 1 0 0 10 88 100 100 100 100 100 100 100 100 100 100 100 100 100 100 100 100 100 100 100 100 100 100
100 100 100 71 100 100 38 88 73 65 5 5 1 1 36 4 2 2 7 22 99 100 100 100 100 100 100 100 100 100 100 100 100 100 100 100 100 100 100 100 100 100 100
99 100 100 55 100 100 89 17 43 44 19 5 5 5 15 5 11 88 100 100 100 100 100 100 100 100 100 100 100 100 100 100 100 100 100 100 100 100 100 100 100 100 100
87 99 59 93 100 100 79 100 100 100 84 48 45 6 5 23 50 100 100 100 100 100 100 100 100 100 100 100 100 100 100 100 100 100 100 100 100 100 100 100 100 100 93
100 100 100 100 100 100 100 97 100 100 99 42 100 100 100 100 100 100 100 100 100 100 100 100 100 100 100 100 100 100 100 100 100 100 100 100 100 100 100 100 100 99 76
100 100 100 100 100 93 68 100 98 100 100 100 100 100 100 100 100 100 100 100 100 100 100 100 100 100 100 100 100 100 100 100 100 100 100 100 100 100 100 100 100 99 95
100 100 100 100 100 97 99 100 100 100 100 100 100 100 100 100 100 100 100 100 100 100 100 100 100 100 100 100 100 100 100 100 100 100 100 90 88 99 76 41 13 5 5
100 100 100 100 100 100 100 100 100 100 100 100 100 100 100 100 100 100 100 100 100 100 100 100 100 100 100 100 100 100 100 100 100 100 80 83 97 51 46 86 5 5 5
100 100 100 100 100 100 100 100 100 100 100 100 100 100 100 100 100 100 100 100 100 100 100 100 100 100 100 100 100 100 100 100 100 100 100 73 80 76 79 54 44 5 7
100 100 100 100 100 100 100 100 100 100 100 100 100 100 100 100 100 100 100 100 100 100 100 100 100 100 100 100 100 100 100 100 100 100 100 99 100 99 74 37 9 5 5
100 100 100 100 100 100 100 100 100 100 100 100 100 100 100 100 100 100 100 100 100 100 100 100 100 100 100 100 100 100 100 100 100 100 100 100 93 87 94 62 20 97 63

GFSMW_prec_cloud_108.txt.gz
Cloud_Cover
73 100 100 8 100 67 1 0 1 32 22 100 100 100 100 100 100 100 100 100 100 100 100 97 100 63 82 100 100 100 100 100 100 100 100 100 100 100 100 100 100 100 100
34 100 100 3 100 78 4 2 6 45 12 16 100 100 100 100 100 100 100 100 100 100 100 92 99 99 43 100 97 100 100 98 100 100 100 100 100 100 100 100 100 99 100
94 68 100 23 100 42 5 0 11 21 12 14 77 100 100 100 100 100 100 100 100 100 100 100 100 100 100 100 99 100 100 100 100 100 100 100 100 100 100 100 100 100 99
100 98 100 52 100 12 0 0 6 47 100 34 15 94 100 100 100 100 100 100 100 100 100 100 100 100 100 100 100 100 100 100 100 100 100 100 98 98 100 100 100 100 97
99 100 100 64 100 12 0 0 18 97 100 96 48 33 100 100 100 100 100 100 100 100 100 100 100 100 100 100 100 100 100 100 100 100 100 100 100 100 100 100 100 100 100
87 100 100 97 100 47 0 0 30 40 99 100 100 100 100 100 100 100 100 100 100 100 100 100 100 100 100 100 100 100 100 100 100 100 100 100 100 100 100 100 100 100 100
8 100 100 100 100 92 12 7 69 61 100 100 100 100 82 100 100 100 100 100 100 100 100 100 100 100 100 100 100 100 100 100 100 100 100 100 100 100 100 100 100 100 100
100 100 100 55 100 95 8 11 22 58 95 100 96 91 93 98 100 100 100 100 100 100 100 100 100 100 100 100 100 100 100 100 100 100 100 100 100 100 100 100 100 100 100
79 100 100 100 100 88 2 11 0 15 37 100 100 100 23 75 100 100 100 100 100 100 100 100 100 100 100 100 100 100 100 100 100 100 100 100 100 100 100 100 100 100 100
100 100 100 100 100 24 1 4 2 0 27 100 100 100 93 69 100 100 100 100 100 100 100 100 100 100 100 100 100 100 100 100 100 100 100 100 100 100 100 100 100 100 100
63 100 100 100 6 5 82 6 0 5 11 100 100 100 79 60 100 98 100 100 100 100 100 100 100 100 100 100 100 100 100 100 100 100 100 100 100 100 100 100 100 100 100
100 65 100 100 100 86 100 100 0 5 4 71 100 100 81 53 100 100 100 100 100 100 100 100 100 100 100 100 100 100 100 100 100 100 100 100 100 100 100 100 100 100 100
95 96 100 100 96 89 100 100 4 5 5 6 87 100 100 57 86 100 100 100 100 100 100 100 100 100 100 100 100 100 100 100 100 100 100 100 100 100 100 100 100 100 100
90 100 100 95 98 26 11 38 5 5 5 21 53 99 87 55 29 33 100 100 100 100 100 100 100 100 100 100 100 100 100 100 100 100 100 100 100 100 100 100 100 100 100
100 87 100 100 100 78 86 65 36 26 5 18 78 59 9 2 0 16 22 100 100 100 100 100 100 100 100 100 100 100 100 100 100 100 100 100 100 100 100 100 100 100 100
100 100 100 100 100 100 100 100 100 89 75 5 5 41 51 67 0 0 2 2 7 99 100 100 100 100 100 100 100 100 100 100 100 100 100 100 100 100 100 100 100 100 100
100 100 96 99 100 100 100 100 100 100 72 5 11 5 2 58 15 4 42 73 21 51 86 100 100 100 100 100 100 100 100 100 100 100 100 100 100 100 100 100 100 100 100
100 100 100 96 100 100 100 94 100 100 100 97 100 96 24 11 18 75 100 100 92 80 100 100 100 100 100 100 100 100 100 100 100 100 100 100 100 100 100 100 100 100 100
100 100 100 96 100 90 95 100 100 100 100 100 100 100 100 98 98 99 100 100 100 100 100 100 100 100 100 100 100 100 100 100 100 100 100 100 100 100 100 100 100 100 99
100 100 100 98 100 100 100 100 100 100 100 100 100 100 100 100 100 100 100 100 100 100 100 100 100 100 100 100 100 100 100 100 100 100 100 100 100 100 100 100 100 99 100
67 90 93 22 100 100 100 100 100 100 100 100 100 100 100 100 100 100 100 100 100 100 100 100 100 100 100 100 100 100 100 100 100 100 100 100 100 100 100 100 100 87 75
47 9 51 51 100 100 100 100 100 100 100 100 100 100 100 100 100 100 100 100 100 100 100 100 100 100 100 100 100 100 100 100 100 100 100 100 100 100 100 100 100 100 99
100 96 93 91 100 100 100 100 100 100 100 100 100 100 100 100 100 100 100 100 100 100 100 100 100 100 100 100 100 100 100 100 100 100 100 100 100 100 96 99 100 100 100
100 100 100 100 100 100 100 100 100 100 100 100 100 100 100 100 100 100 100 100 100 100 100 100 100 100 100 100 100 100 100 100 100 100 100 100 100 100 100 100 100 100 83
100 100 100 100 100 100 100 100 100 100 100 100 100 100 100 100 100 100 100 100 100 100 100 100 100 100 100 100 100 100 100 100 100 100 100 100 100 100 100 100 100 100 100
100 100 100 100 100 100 100 100 100 100 100 100 100 100 100 100 100 100 100 100 100 100 100 100 100 100 100 100 100 100 100 100 100 100 100 100 100 100 100 100 97 82 100

GFSMW_prec_cloud_111.txt.gz
Cloud_Cover
0 5 59 99 94 6 100 100 29 34 61 100 100 100 100 100 100 100 100 100 100 100 100 100 100 94 100 100 100 93 82 90 100 100 100 100 89 100 100 100 100 100 98
5 6 68 92 100 5 100 100 15 60 41 53 100 100 100 100 100 100 100 100 100 100 100 100 100 100 98 97 57 30 96 62 100 100 100 100 98 100 100 100 84 100 100
11 76 100 92 100 4 96 100 38 79 22 14 79 91 100 100 100 100 100 100 100 100 100 100 100 100 100 97 74 76 75 100 100 100 100 100 100 100 100 100 100 100 100
8 85 100 100 100 4 91 100 41 56 22 18 19 62 100 100 100 100 100 100 100 100 100 100 92 100 100 100 92 100 100 100 100 83 100 100 100 100 100 100 100 100 100
10 50 100 100 92 18 90 93 53 43 12 37 36 10 37 100 100 100 100 100 100 100 100 100 100 100 100 100 100 100 100 99 100 100 100 100 100 100 100 100 100 100 100
5 77 100 84 12 77 100 57 56 26 45 100 52 0 0 50 100 100 100 100 100 100 100 100 100 100 100 100 100 98 100 100 100 100 100 100 100 100 100 100 100 100 100
97 100 100 100 82 79 98 68 77 20 96 100 95 1 0 7 68 100 100 100 100 100 100 100 100 100 100 100 100 100 100 100 100 100 100 100 100 100 100 100 100 100 100
90 100 100 100 92 80 100 100 84 83 100 100 100 99 99 100 98 92 100 100 100 100 100 100 100 100 100 100 100 100 100 100 100 100 100 100 100 100 100 100 100 100 100
94 100 100 100 100 100 100 100 60 94 88 100 100 100 100 100 100 100 100 100 100 100 100 100 100 100 100 100 100 100 100 100 100 100 100 100 100 100 100 100 100 100 100
88 100 100 100 98 88 100 100 37 97 70 100 99 90 100 100 100 100 100 100 100 100 100 100 100 100 100 100 100 100 100 100 100 100 100 100 100 100 100 100 100 100 100
100 100 98 100 93 100 94 85 57 70 48 96 100 58 100 100 100 100 100 100 100 100 100 100 100 100 100 100 100 100 100 100 100 100 100 100 100 100 100 100 100 100 100
100 100 100 100 100 50 100 100 56 52 28 2 71 71 56 100 100 100 100 100 100 100 100 100 100 100 100 100 100 100 100 100 100 100 100 100 100 100 100 100 100 100 100
100 98 100 100 100 98 97 100 94 47 5 4 88 100 100 96 100 100 98 100 100 100 100 100 100 100 100 100 100 100 100 100 100 100 100 100 100 100 100 100 100 100 100
100 100 100 100 100 100 100 88 99 100 74 5 93 100 100 100 100 100 100 98 100 100 100 100 100 100 100 100 100 100 100 100 100 100 100 100 100 100 100 100 100 100 100
100 100 100 100 100 100 100 100 90 100 100 65 33 100 100 100 93 100 75 100 98 100 100 100 100 100 100 100 100 100 100 100 100 100 100 100 100 100 100 100 100 100 100
100 100 100 100 100 100 100 100 78 82 100 56 100 100 100 100 100 88 79 77 100 87 98 100 100 100 100 100 100 100 100 100 100 100 100 100 100 100 100 100 100 100 100
100 100 100 100 100 100 100 100 100 100 46 51 93 100 98 98 45 47 68 100 99 100 100 100 100 100 100 100 100 100 100 100 100 100 100 100 100 100 100 100 100 100 100
100 100 100 100 100 100 100 100 100 100 100 96 93 100 100 81 85 76 87 100 100 100 100 100 100 100 100 100 100 100 100 100 100 100 100 100 100 100 100 100 100 100 100
100 100 100 100 100 100 100 100 100 100 100 100 100 76 96 100 100 100 100 100 100 100 100 100 100 100 100 100 100 100 100 100 100 100 100 100 100 100 100 100 100 100 100
100 100 100 99 100 100 100 100 100 100 100 100 100 100 100 100 100 100 100 100 100 100 100 100 100 100 100 100 100 100 100 100 100 100 100 100 100 100 100 100 100 100 79
100 100 100 83 100 100 100 100 100 100 100 100 100 100 100 100 100 100 100 100 100 100 100 100 100 100 100 100 100 100 100 100 100 100 100 100 100 100 100 98 80 100 95
100 100 100 100 100 100 100 100 100 100 100 100 100 100 100 100 100 100 100 100 100 100 100 100 100 100 100 100 100 100 100 100 100 100 100 100 100 100 100 100 100 100 100
100 100 100 100 100 100 100 100 100 100 100 100 100 100 100 100 100 100 100 100 100 100 100 100 100 100 100 100 100 100 100 100 100 100 100 100 100 100 100 100 100 100 100
100 100 100 100 100 100 100 100 100 100 100 100 100 100 100 100 100 100 100 100 100 100 100 100 100 100 100 100 100 100 100 100 100 100 100 100 100 100 100 100 100 100 100
100 100 100 100 100 100 100 100 100 100 100 100 100 100 100 100 100 100 100 100 100 100 100 100 100 100 100 100 100 100 100 100 100 100 100 100 100 100 100 100 100 100 100
100 100 100 100 100 100 100 100 100 100 100 100 100 100 100 100 100 100 100 100 100 100 100 100 100 100 100 100 100 100 100 100 100 100 100 100 100 100 100 100 100 100 100

GFSMW_prec_cloud_114.txt.gz
Cloud_Cover
53 74 37 0 4 29 96 34 53 44 48 84 100 100 100 100 100 100 100 100 100 100 100 100 100 100 100 100 100 100 100 91 5 24 96 99 100 100 46 14 52 100 100
64 88 23 0 22 42 100 41 16 68 52 89 100 100 100 100 100 100 100 100 100 100 100 100 100 100 100 100 100 100 100 99 97 5 54 95 91 100 90 42 36 96 100
67 97 2 0 10 39 100 74 39 63 99 100 100 100 100 100 100 100 100 100 100 100 100 100 100 100 100 100 100 100 100 99 100 96 49 100 100 100 70 67 63 100 100
49 68 0 0 8 30 52 23 93 95 96 84 100 100 100 100 100 100 100 100 100 100 100 100 100 100 100 100 100 100 99 95 65 96 100 100 100 99 100 74 72 100 100
18 5 0 0 0 80 96 30 100 100 100 89 94 100 100 99 100 100 100 100 100 100 100 100 100 100 100 100 100 100 94 100 100 100 100 100 100 100 100 99 84 100 100
29 4 0 0 5 100 81 96 100 100 100 76 36 53 24 82 100 100 100 100 100 100 100 100 100 100 100 100 100 100 100 100 100 100 100 100 97 100 82 97 100 100 100
5 0 0 0 34 100 100 100 100 100 100 74 48 10 50 96 100 100 100 100 100 100 100 100 100 100 100 100 100 100 99 100 100 100 100 100 100 100 100 100 100 100 100
1 0 0 20 35 90 100 100 100 100 100 60 12 6 28 60 100 100 100 100 100 100 100 100 100 100 100 100 100 100 100 100 100 100 100 100 100 100 100 100 100 100 100
0 0 4 97 98 82 100 100 100 94 100 36 4 86 42 88 91 86 64 99 100 100 100 100 100 100 100 100 100 100 100 100 100 100 100 100 100 100 100 100 100 100 100
0 0 0 97 100 91 98 100 100 100 72 31 9 100 100 100 100 90 45 83 100 100 100 100 100 100 100 100 100 100 100 100 100 100 100 100 100 100 100 100 100 100 100
0 0 2 100 95 81 100 100 100 100 100 32 52 100 100 100 100 82 48 100 100 100 100 100 100 100 100 100 100 100 100 100 100 100 100 100 100 100 100 100 100 100 100
0 44 6 100 79 77 100 100 100 100 100 100 100 100 100 100 100 97 99 100 100 100 100 100 100 100 100 100 100 100 100 100 100 100 100 100 100 100 100 100 100 100 100
2 34 87 100 100 100 100 100 100 100 100 26 95 100 100 100 100 100 99 100 100 100 100 100 100 100 100 100 100 100 100 100 100 100 100 100 100 100 100 100 100 100 100
83 97 100 100 100 100 100 100 100 100 100 75 93 100 100 100 100 100 99 100 99 100 100 100 100 100 100 100 100 100 100 100 100 100 100 100 100 100 100 100 100 100 100
100 100 100 100 93 100 100 100 100 100 100 69 90 100 100 100 100 100 100 100 100 100 100 100 100 100 100 100 100 100 100 100 100 100 100 100 100 100 100 100 100 100 100
100 100 100 100 100 100 100 100 100 100 97 83 100 100 100 100 100 100 100 100 100 100 100 100 100 100 100 100 100 100 100 100 100 100 100 100 100 100 100 100 100 100 100
100 100 100 100 100 100 100 100 100 100 100 95 100 100 100 100 100 100 100 100 100 100 100 100 100 100 100 100 100 100 100 100 100 100 100 100 100 100 100 100 100 100 100
100 100 100 100 100 100 100 100 100 100 100 100 100 100 100 100 100 100 100 100 100 100 100 100 100 100 100 100 100 100 100 100 100 100 100 100 100 100 100 100 100 100 100
100 100 100 100 100 100 100 100 100 100 100 100 98 97 94 100 100 100 100 100 100 100 100 100 100 100 100 100 100 100 100 100 100 100 100 100 100 100 100 100 100 100 100
100 100 100 100 100 100 100 100 100 100 100 100 100 100 100 100 100 100 100 100 100 100 100 100 100 100 100 100 100 100 100 100 100 100 100 100 100 100 100 100 100 100 100
100 100 100 100 100 100 100 100 100 100 100 100 100 100 100 100 100 100 100 100 100 100 100 100 100 100 100 100 100 100 100 100 100 100 100 100 100 100 100 100 100 100 100
100 100 100 100 100 100 100 100 100 100 100 100 100 100 100 100 100 100 100 100 100 100 100 100 100 100 100 100 100 100 100 100 100 100 100 100 100 100 100 100 100 100 100
100 100 100 100 100 100 100 100 100 100 100 100 100 100 100 100 100 100 100 100 100 100 100 100 100 100 100 100 100 100 100 100 100 100 100 100 100 100 100 100 100 100 100
100 100 100 100 100 100 100 100 100 100 100 100 100 100 100 100 100 100 100 100 100 100 100 100 100 100 100 100 100 100 100 100 100 100 100 100 100 100 100 100 100 100 100
100 100 100 100 100 100 100 100 100 100 100 100 100 100 100 100 100 100 100 100 100 100 100 100 100 100 100 100 100 100 100 100 100 100 100 100 100 100 100 100 100 100 100
100 100 100 100 100 100 100 100 100 100 100 100 100 100 100 100 100 100 100 100 100 100 100 100 100 100 100 100 100 100 100 100 100 100 100 100 100 100 100 100 100 100 100

GFSMW_prec_cloud_117.txt.gz
Cloud_Cover
1 5 13 5 35 72 62 0 7 54 73 100 100 100 100 100 100 100 100 100 100 100 100 100 100 100 100 100 100 93 98 100 100 80 85 74 13 51 74 100 28 98 91
4 21 15 24 95 84 12 10 31 100 63 81 100 81 100 100 100 100 100 84 100 100 100 100 100 100 100 100 100 99 92 100 83 95 100 100 74 57 90 84 81 77 93
8 5 34 7 78 15 5 32 51 100 96 79 92 62 36 90 100 100 100 94 100 100 100 100 100 100 100 100 100 100 100 100 86 99 100 83 84 100 100 87 75 100 74
5 5 22 56 40 80 4 26 95 100 100 70 45 43 37 91 100 100 100 100 100 100 100 100 100 100 100 100 100 100 100 100 100 98 99 79 98 95 100 99 86 100 100
38 5 4 16 100 57 1 45 100 100 100 57 100 39 21 100 100 93 100 100 100 100 100 100 100 100 100 100 100 100 100 100 100 100 100 100 100 83 96 100 100 100 100
1 4 4 53 40 41 75 92 100 100 100 100 100 70 38 100 97 98 100 100 100 100 100 100 100 100 100 100 100 100 100 100 100 100 100 99 99 100 100 100 100 100 99
5 4 4 14 18 20 99 100 100 100 100 100 100 100 100 94 67 99 100 100 100 100 100 100 100 100 100 100 100 100 100 100 100 100 100 100 100 100 100 97 100 99 100
35 5 5 95 8 2 12 100 100 100 100 100 100 100 77 52 65 59 93 100 100 100 100 100 100 100 100 100 100 100 100 100 100 100 100 97 100 100 100 100 100 100 100
30 5 5 46 5 1 0 9 100 100 100 100 100 90 96 85 100 86 100 100 100 100 100 100 100 100 100 100 100 100 100 100 100 100 100 100 100 100 100 100 100 100 100
100 18 5 5 5 0 0 11 100 100 100 100 100 75 84 74 100 100 100 100 100 100 100 100 100 100 100 100 100 100 100 100 100 100 100 100 100 100 100 100 100 100 100
5 7 5 7 5 39 55 100 100 100 100 100 100 86 54 95 100 100 100 98 58 100 100 100 100 100 100 100 100 100 100 100 100 100 100 100 100 100 100 100 100 100 100
60 81 76 92 5 97 100 100 100 100 100 100 100 80 99 100 100 100 100 100 100 100 100 100 100 100 100 100 100 100 100 100 100 100 100 100 100 100 100 100 100 100 100
98 36 5 8 7 62 100 100 100 100 100 100 100 49 67 29 100 100 100 100 100 100 100 100 100 100 100 100 100 100 100 100 100 100 100 100 100 100 100 100 100 100 100
41 5 5 55 100 100 100 100 100 100 100 100 100 64 52 34 100 100 100 98 95 100 100 100 100 100 100 100 100 100 100 100 100 100 100 100 100 100 100 100 100 100 100
79 87 4 86 100 100 100 100 100 100 100 100 100 87 54 42 100 100 100 100 100 100 100 100 100 100 100 100 100 100 100 100 100 100 100 100 100 100 100 100 100 100 100
5 13 16 100 100 100 100 100 100 100 100 100 100 100 66 99 100 100 100 100 100 100 100 100 100 100 100 100 100 100 100 100 100 100 100 100 100 100 100 100 100 100 100
42 30 100 100 100 100 100 100 100 100 100 100 100 100 97 100 100 100 100 100 100 100 100 100 100 100 100 100 100 100 100 100 100 100 100 100 100 100 100 100 100 100 100
41 69 96 100 100 100 100 100 100 100 100 100 100 100 100 100 100 100 100 100 100 100 100 100 100 100 100 100 100 100 100 100 100 100 100 100 100 100 100 100 100 100 100
39 100 100 100 100 100 100 100 100 100 100 100 100 100 100 100 100 100 100 100 100 100 100 100 100 100 100 100 100 100 100 100 100 100 100 100 100 100 100 100 100 100 100
98 100 100 100 100 100 100 100 100 100 100 100 100 100 100 100 100 100 100 100 100 100 100 100 100 100 100 100 100 100 100 100 100 100 100 100 100 100 100 100 100 100 100
100 100 100 100 100 100 100 100 100 100 100 100 100 100 100 100 100 100 100 100 100 100 100 100 100 100 100 100 100 100 100 100 100 100 100 100 100 100 100 100 100 100 100
100 100 100 100 100 100 100 100 100 100 100 100 100 100 100 100 100 100 100 100 100 100 100 100 100 100 100 100 100 100 100 100 100 100 100 100 100 100 100 100 100 100 100
100 100 100 100 100 100 100 100 100 100 100 100 100 100 100 100 100 100 100 100 100 100 100 100 100 100 100 100 100 100 100 100 100 100 100 100 100 100 100 100 100 100 100
100 100 100 100 100 100 100 100 100 100 100 100 100 100 100 100 100 100 100 100 100 100 100 100 100 100 100 100 100 100 100 100 100 100 100 100 100 100 100 100 100 100 100
100 100 100 100 100 100 100 100 100 100 100 100 100 100 100 100 100 100 100 100 100 100 100 100 100 100 100 100 100 100 100 100 100 100 100 100 100 100 100 100 100 100 100
100 100 100 100 100 100 100 100 100 100 100 100 100 100 100 100 100 100 100 100 100 100 100 100 100 100 100 100 100 100 100 100 100 100 100 97 92 100 100 100 100 100 100

GFSMW_prec_cloud_120.txt.gz
Cloud_Cover
71 98 74 96 97 50 5 51 100 10 0 3 99 100 100 100 100 100 78 45 69 100 100 100 100 100 100 100 100 100 100 100 94 100 100 100 97 90 100 100 96 71 92
20 6 85 53 17 56 5 5 76 5 0 74 100 100 100 100 100 95 89 87 100 95 93 100 100 100 100 100 100 100 100 100 100 100 73 100 99 100 99 100 100 48 79
70 99 100 100 100 82 45 5 5 3 14 16 100 100 100 100 100 100 75 65 50 99 100 100 100 100 100 100 100 100 100 100 100 100 100 100 98 99 100 99 97 59 88
61 99 100 98 100 39 5 51 20 0 99 82 100 100 47 53 30 57 91 100 100 84 98 100 100 100 100 100 100 100 100 97 90 100 100 100 95 82 100 98 83 55 70
41 100 100 61 100 100 18 56 51 40 100 100 100 100 70 32 36 51 92 100 100 72 100 100 100 100 100 100 100 100 100 100 100 100 100 100 97 100 99 99 100 67 55
82 78 72 99 100 100 77 36 78 100 100 100 100 100 98 59 59 99 92 98 100 100 100 100 100 100 100 100 100 100 100 100 100 100 100 100 100 100 100 100 100 95 71
96 99 95 36 51 97 100 100 47 100 100 100 100 100 100 94 78 89 93 91 100 100 100 100 100 100 100 100 100 100 100 100 100 100 100 100 100 100 100 100 100 100 100
50 86 53 96 80 100 100 100 8 99 100 100 100 100 73 100 68 92 100 89 100 100 100 100 100 100 100 100 100 100 100 100 100 100 100 100 100 100 100 100 100 92 94
100 100 32 5 5 5 98 100 8 93 100 100 100 100 100 100 100 81 100 100 90 100 100 100 100 100 100 100 100 100 100 100 100 100 100 100 100 100 100 100 100 100 100
100 98 8 47 23 84 100 100 97 100 100 77 100 100 100 97 87 79 77 83 75 100 100 100 100 100 100 100 100 100 100 100 100 100 100 100 100 100 100 100 100 100 100
100 100 91 62 100 100 100 24 58 100 100 100 100 100 100 100 96 60 84 93 72 98 100 100 100 100 100 100 100 100 100 100 100 100 100 100 100 100 100 100 100 100 100
100 100 100 100 100 45 21 13 25 100 100 100 100 100 100 100 100 80 100 100 100 67 100 100 100 100 100 100 100 100 100 100 100 100 100 100 100 100 100 100 100 100 100
100 84 6 5 5 5 11 11 5 100 100 100 100 100 100 100 92 100 83 100 85 88 99 100 100 100 100 100 100 100 100 100 100 100 100 100 100 100 100 100 100 100 100
5 5 5 32 14 4 6 61 12 100 100 100 100 100 100 100 100 100 67 100 100 100 100 100 100 100 100 100 100 100 100 100 100 100 100 100 100 100 100 100 100 100 100
5 6 5 21 35 24 31 93 6 100 100 100 100 100 100 100 100 100 47 85 68 93 100 100 99 100 100 100 100 100 100 100 100 100 100 100 100 100 100 100 100 100 100
5 18 100 100 96 25 15 100 17 100 100 100 100 100 100 100 100 90 58 100 100 100 100 100 100 100 100 100 100 100 100 100 100 100 100 100 100 100 100 100 100 100 100
93 46 100 100 96 38 37 100 100 100 100 100 100 100 100 100 100 92 92 100 100 100 100 100 100 100 100 100 100 100 100 100 100 100 100 100 100 100 100 100 100 100 100
55 27 28 37 58 60 76 80 100 100 100 100 100 100 100 100 100 100 100 100 100 100 100 100 100 100 100 100 100 100 100 100 100 100 100 100 100 100 100 100 100 100 100
36 47 59 58 64 93 93 100 100 100 100 100 100 100 100 100 100 100 100 100 100 100 100 100 100 100 100 100 100 100 100 100 100 100 100 100 100 100 100 100 100 100 100
68 61 67 83 100 100 100 100 100 100 100 100 100 100 100 100 100 100 100 100 100 100 100 100 100 100 100 100 100 100 100 100 100 100 100 100 100 100 100 100 100 100 100
100 89 98 100 100 100 100 100 100 100 100 100 100 100 100 100 100 100 100 100 100 100 100 100 100 100 100 100 100 100 100 100 100 100 100 100 100 100 100 100 100 100 100
100 90 100 100 100 100 100 100 100 100 100 100 100 100 100 100 100 100 100 100 100 100 100 100 100 100 100 100 100 100 100 100 100 100 100 100 100 100 100 100 100 100 100
99 100 100 100 100 100 100 100 100 100 100 100 100 100 100 100 100 100 100 100 100 100 100 100 100 100 100 100 100 100 100 100 100 100 100 100 100 100 100 100 100 100 100
100 100 100 100 100 100 100 100 100 100 100 100 100 100 100 100 100 100 100 100 100 100 100 100 100 100 100 100 100 100 100 100 100 100 100 100 100 100 100 100 100 100 97
100 100 100 100 100 100 100 100 100 100 100 100 100 100 100 100 100 100 100 100 100 100 100 100 100 100 100 100 100 100 100 100 100 100 100 100 100 100 78 100 100 100 97
100 100 100 100 100 100 100 100 100 100 100 100 100 100 100 100 100 100 100 100 100 100 100 100 100 100 100 100 100 100 100 100 100 100 100 100 100 99 95 98 92 100 100

GFSMW_prec_cloud_123.txt.gz
Cloud_Cover
5 5 5 5 68 100 100 100 100 100 100 100 68 0 40 93 98 100 44 90 95 58 69 100 100 100 100 100 100 100 100 100 100 100 98 100 100 95 100 100 100 100 100
5 5 5 57 78 94 54 100 83 100 100 100 72 2 63 92 100 100 97 82 100 100 40 100 100 100 100 100 100 100 100 100 100 100 93 100 100 100 100 79 96 100 93
87 5 22 28 20 5 97 100 100 100 100 96 93 66 100 95 100 100 100 97 100 95 65 91 100 100 100 100 100 100 100 100 100 100 100 100 98 100 99 78 18 91 82
73 100 44 28 18 74 5 26 100 100 100 60 89 24 100 100 100 100 100 100 90 86 100 74 71 100 100 100 100 100 100 100 100 100 100 100 100 72 100 100 94 100 99
100 100 100 96 100 100 8 37 100 100 100 97 67 75 100 100 97 100 46 96 40 99 100 44 99 100 100 100 100 100 100 100 100 100 100 100 100 93 99 65 90 62 100
100 100 100 100 100 100 100 100 100 10 97 100 37 98 100 71 100 100 100 83 41 91 100 89 81 100 100 100 100 100 100 100 100 100 100 100 93 100 100 93 54 90 100
100 100 100 100 100 100 81 100 86 100 97 100 100 100 100 100 100 100 59 40 100 100 100 96 100 100 100 100 100 100 100 100 100 100 100 100 98 100 100 100 99 100 100
99 100 100 100 100 84 86 92 81 59 93 100 98 100 100 100 100 100 100 100 69 96 100 100 100 100 100 100 100 100 100 100 100 100 100 100 100 100 100 100 100 100 100
100 100 100 100 100 100 19 38 89 100 100 100 73 66 100 100 100 88 100 100 100 76 95 100 100 100 100 100 100 100 100 100 100 100 100 100 100 100 100 100 100 100 100
100 100 100 100 96 96 91 100 100 98 70 98 100 94 100 100 100 72 55 95 96 100 87 100 100 100 100 100 100 100 100 100 100 100 100 100 100 100 100 100 100 100 100
100 100 100 100 100 100 99 99 34 97 99 100 97 94 100 100 100 100 100 83 100 88 100 100 100 100 100 100 100 100 100 100 100 100 100 100 100 100 100 100 100 100 100
100 100 100 100 89 100 100 100 100 100 100 100 80 100 100 100 100 100 100 99 100 84 80 100 100 100 100 100 100 100 100 100 100 100 100 100 100 100 100 100 100 100 100
100 100 100 100 47 71 81 89 100 100 100 68 99 100 100 100 100 100 100 95 99 99 57 29 100 100 100 100 100 100 100 100 100 100 100 100 100 100 100 100 100 100 100
100 85 63 100 100 100 100 100 100 100 45 30 100 100 100 100 100 100 100 100 100 99 91 96 99 100 100 100 100 100 100 100 100 100 100 100 100 100 100 100 100 100 100
90 25 9 86 100 100 100 100 66 75 98 24 100 100 100 100 100 100 100 100 100 100 90 87 83 100 100 100 100 100 100 100 100 100 100 100 100 100 100 100 100 100 100
30 7 67 63 100 91 88 70 42 11 80 93 100 100 100 100 100 100 100 100 100 98 91 100 100 100 100 100 100 100 100 100 100 100 100 100 100 100 100 100 100 100 100
2 9 56 100 94 81 22 9 43 47 93 100 100 100 100 100 100 100 100 100 100 100 100 100 100 100 100 100 100 100 100 100 100 100 100 100 100 100 100 100 100 100 100
67 95 100 100 70 58 37 40 61 100 100 99 100 100 100 100 100 100 100 100 100 100 100 100 100 100 100 100 100 100 100 100 100 100 100 100 100 100 100 100 100 100 100
90 96 96 60 58 56 93 66 100 100 97 100 100 100 100 100 100 100 100 100 100 100 100 100 100 100 100 100 100 100 100 100 100 100 100 100 100 100 100 100 100 100 100
39 49 71 92 99 88 92 61 98 100 80 73 100 100 100 100 100 100 100 100 100 100 100 100 100 100 100 100 100 100 100 100 100 100 100 100 100 100 100 100 100 100 100
88 100 94 100 100 100 100 74 99 100 93 96 100 100 100 100 100 100 100 100 100 100 100 100 100 100 100 100 100 100 100 100 100 100 100 100 100 100 100 100 100 100 100
97 100 86 100 77 97 100 100 100 100 89 100 99 100 100 100 100 100 100 100 100 100 100 100 100 100 100 100 100 100 100 100 100 100 100 100 100 100 100 100 100 100 100
69 65 64 82 100 99 99 100 100 100 100 100 100 100 100 100 100 100 100 100 100 100 100 100 100 100 100 100 100 100 100 100 100 100 100 100 100 100 100 100 100 100 100
99 81 54 67 95 100 97 100 100 100 100 100 100 100 100 100 100 100 100 100 100 100 100 100 100 100 100 100 100 100 100 100 100 100 100 100 100 100 100 100 100 100 100
100 100 89 96 100 100 100 95 100 100 100 100 100 100 100 100 100 100 100 100 100 100 100 100 100 100 100 100 100 100 100 100 100 100 100 100 100 100 100 100 100 100 99
100 100 100 100 100 100 100 100 100 100 100 100 100 100 100 100 100 100 100 100 100 100 100 100 100 100 100 100 100 100 100 100 100 100 100 100 100 100 100 91 100 100 100

GFSMW_prec_cloud_126.txt.gz
Cloud_Cover
92 5 5 0 5 84 28 5 5 39 16 29 74 20 92 100 100 7 87 100 47 1 14 67 100 100 100 86 100 100 100 100 100 100 100 100 100 68 100 100 99 100 100
100 100 100 69 62 5 6 7 100 99 58 11 51 100 100 100 83 23 60 100 100 46 82 99 100 100 100 100 99 100 100 100 100 100 100 100 95 100 100 100 100 100 100
100 100 45 100 100 97 11 22 42 45 5 30 77 89 100 100 100 100 100 68 100 100 100 91 82 100 100 100 100 98 100 100 100 100 100 100 86 97 100 91 96 100 94
100 100 100 100 100 100 100 99 84 19 94 100 14 87 94 100 93 99 100 100 100 100 100 100 93 99 100 100 100 100 100 100 100 100 100 100 95 45 89 100 83 100 95
100 100 91 100 100 100 100 100 65 42 25 100 100 83 100 41 100 95 100 100 100 100 100 100 92 95 100 100 100 100 95 100 100 100 100 100 93 100 100 82 100 100 100
100 100 100 100 89 100 100 100 100 100 100 100 100 100 100 96 84 100 100 100 100 100 100 100 49 100 100 100 100 100 100 100 100 100 100 100 95 100 100 100 100 100 100
100 100 100 100 100 100 100 100 99 100 100 100 100 82 99 100 91 30 100 100 100 100 98 81 97 97 100 100 100 100 100 100 100 100 100 100 100 100 100 94 100 100 100
100 100 100 100 100 100 100 100 100 100 100 100 100 100 96 100 100 100 100 95 90 73 100 98 100 100 99 100 100 100 100 100 100 100 100 100 100 100 100 100 100 100 100
100 100 100 100 100 100 100 100 73 100 100 100 100 100 100 100 100 100 100 100 84 58 82 100 100 100 100 100 100 100 100 100 100 100 100 100 100 100 100 100 100 100 100
100 100 100 100 100 100 100 100 83 96 100 100 100 100 92 100 100 100 100 99 100 100 87 84 100 90 94 100 100 100 100 100 100 100 100 100 100 100 100 100 100 100 100
100 100 100 100 100 100 100 100 63 64 99 100 100 100 98 100 100 100 100 100 73 25 99 40 100 100 100 100 100 100 100 100 100 100 100 100 100 100 100 100 100 100 100
100 100 100 100 100 100 95 100 57 100 99 100 79 100 100 100 100 100 100 100 100 75 100 83 100 100 100 100 100 100 100 100 100 100 100 100 100 100 100 100 100 100 100
100 100 100 100 100 100 100 100 70 100 100 100 100 50 100 100 100 100 100 100 100 100 100 97 100 100 94 100 100 100 100 100 100 100 100 100 100 100 100 100 100 100 100
100 100 100 100 100 100 100 100 100 100 100 100 100 100 100 100 100 100 100 100 100 99 100 73 99 100 100 100 100 100 100 100 100 100 100 100 100 100 100 100 100 100 100
100 100 100 100 100 100 100 100 100 100 100 100 100 100 100 100 100 100 100 100 100 100 100 100 100 100 100 100 100 100 100 100 100 100 100 100 100 100 100 100 100 100 100
100 100 100 100 100 100 100 100 100 100 100 100 100 100 100 100 100 100 100 100 100 100 100 100 96 94 98 100 100 100 100 100 100 100 100 100 100 100 100 100 100 100 100
31 100 100 100 100 100 100 86 99 100 100 100 100 100 100 100 100 100 100 100 100 100 100 100 100 100 100 100 100 100 100 100 100 100 100 100 100 100 100 100 100 100 100
75 36 29 99 100 100 100 97 53 98 100 100 100 100 94 100 100 100 100 100 100 100 100 100 100 100 100 100 100 100 100 100 100 100 100 100 100 100 100 100 100 100 100
81 39 5 10 41 8 54 93 80 100 99 100 100 100 100 100 100 100 100 100 100 100 100 100 100 100 100 100 100 100 100 100 100 100 100 100 100 100 100 100 100 100 100
100 49 22 32 36 66 77 100 100 100 100 100 93 95 100 100 100 100 100 100 100 100 100 100 100 100 100 100 100 100 100 100 100 100 100 100 100 100 100 100 100 100 100
61 50 6 20 42 18 11 82 100 100 100 96 81 98 98 100 100 100 100 100 100 100 100 100 100 100 100 100 100 100 100 100 100 100 100 100 100 100 100 100 100 100 100
23 65 23 26 88 51 43 27 92 100 100 100 91 100 100 100 100 100 100 100 100 100 100 100 100 100 100 100 100 100 100 100 100 100 100 100 100 100 100 100 100 100 100
74 77 64 39 61 99 79 99 84 100 100 100 100 100 100 100 100 100 100 100 100 100 100 100 100 100 100 100 100 100 100 100 100 100 100 100 100 100 100 100 100 100 100
71 68 72 72 92 80 95 66 98 100 100 100 100 100 100 100 100 100 100 100 100 100 100 100 100 100 100 100 100 100 100 100 100 100 100 100 100 100 100 100 100 100 100
84 88 98 100 100 99 75 100 99 100 100 100 100 100 100 100 100 100 100 100 100 100 100 100 100 100 100 100 100 100 100 100 100 100 100 100 100 100 100 100 100 100 100
100 100 100 100 100 100 100 100 100 100 100 100 100 100 100 100 100 100 100 100 100 100 100 100 100 100 100 100 100 100 100 100 100 100 100 100 100 100 100 100 100 100 100

GFSMW_prec_cloud_129.txt.gz
Cloud_Cover
100 56 25 99 100 40 94 100 98 42 5 5 39 100 72 8 97 55 83 92 96 2 5 0 51 100 57 44 39 96 100 100 100 100 100 100 100 100 100 67 61 65 99
100 100 100 14 100 100 100 100 100 28 4 4 28 99 100 97 100 96 22 100 63 94 23 26 84 81 86 98 100 83 100 100 100 100 100 100 100 100 100 100 73 97 100
100 100 100 100 91 100 100 100 100 100 100 34 4 3 68 63 50 100 100 69 100 23 100 52 18 50 100 100 100 100 91 100 100 100 100 100 100 100 100 100 100 93 100
100 100 100 100 98 100 100 100 100 100 100 100 100 60 21 38 55 99 100 100 100 26 89 100 100 99 100 100 100 100 100 100 100 100 100 100 100 80 100 90 100 100 100
100 100 100 100 100 99 100 100 100 100 100 100 100 100 100 36 23 98 100 100 100 100 55 100 100 100 100 100 100 88 100 66 100 90 100 100 100 100 100 56 99 100 100
100 100 100 100 100 100 100 100 100 100 100 100 100 100 100 55 90 100 100 100 100 100 100 100 100 100 100 100 100 100 100 90 98 100 100 100 100 100 100 100 93 97 100
100 100 100 100 100 100 100 100 100 100 100 100 100 100 100 100 100 100 100 100 100 100 100 100 100 100 100 100 100 99 63 96 100 100 100 100 100 100 100 100 100 100 100
100 100 100 100 100 100 100 100 100 100 100 100 100 100 100 100 100 100 100 100 100 100 100 100 100 100 98 79 100 100 100 100 100 100 100 100 100 100 100 100 100 98 100
100 100 100 100 100 100 100 100 100 100 100 100 62 100 100 100 100 100 100 100 100 100 100 100 100 100 100 100 100 100 100 100 100 100 100 100 100 100 100 100 100 100 100
100 100 100 100 100 100 100 100 100 100 100 100 100 100 100 100 100 100 100 100 100 100 100 47 95 100 100 100 100 100 100 100 100 100 100 100 100 100 100 100 100 100 100
100 100 99 100 100 100 100 100 100 100 100 100 100 100 100 100 98 100 100 100 100 100 100 100 50 99 100 100 100 100 100 100 100 100 100 100 100 100 100 100 100 100 100
100 100 100 100 100 100 100 100 100 100 100 100 100 100 100 100 100 100 100 100 100 100 100 100 100 78 100 100 89 100 100 100 100 100 100 100 100 100 100 100 100 100 100
100 100 100 100 100 100 100 100 100 99 100 96 46 95 100 96 100 100 98 100 100 100 100 100 68 24 100 100 100 100 100 100 100 100 100 100 100 100 100 100 100 100 100
100 100 100 99 19 73 100 100 100 100 100 100 98 97 100 79 72 100 99 100 100 100 100 100 100 44 72 99 100 100 100 100 100 100 100 100 100 100 100 100 100 100 100
84 49 75 100 100 100 97 100 100 100 100 100 100 94 59 57 68 100 100 100 100 100 100 100 100 100 65 97 100 100 100 100 100 100 100 100 100 100 100 100 100 100 100
95 5 6 100 100 100 100 100 100 100 100 100 100 100 100 73 100 100 100 100 100 100 100 100 100 100 100 100 100 100 100 100 100 100 100 100 100 100 100 100 100 100 100
100 100 100 98 100 100 100 100 100 100 100 100 100 100 100 100 100 100 100 100 100 100 100 100 100 100 100 100 100 100 100 100 100 100 100 100 100 100 100 100 100 100 100
97 100 59 12 54 100 100 100 100 100 100 100 100 100 100 100 100 100 100 100 100 100 100 100 100 100 100 100 100 100 100 100 100 100 100 100 100 100 100 100 100 100 100
100 49 30 5 5 100 100 100 100 100 100 100 100 100 100 100 100 100 100 100 100 100 100 100 100 100 100 100 100 100 100 100 100 100 100 100 100 100 100 100 100 100 100
100 100 92 59 5 30 100 100 100 100 100 100 100 98 100 100 100 100 100 100 100 100 100 100 100 100 100 100 100 100 100 100 100 100 100 100 100 100 100 100 100 100 100
75 49 88 81 14 5 5 77 100 100 100 100 100 100 100 100 100 100 100 100 100 100 100 100 100 100 100 100 100 100 100 100 100 100 100 100 100 100 100 100 100 100 100
86 20 16 26 85 46 16 5 7 85 100 100 100 100 100 100 100 100 100 100 100 100 100 100 100 100 100 100 100 100 100 100 100 100 100 100 100 100 100 100 100 100 100
74 93 99 6 5 5 5 12 54 11 42 69 80 100 100 100 100 100 100 100 100 100 100 100 100 100 100 100 100 100 100 100 100 100 100 100 100 100 100 100 100 100 100
100 100 99 97 98 5 8 58 56 87 72 63 66 100 100 96 100 100 100 100 100 100 100 100 100 100 100 100 100 100 100 100 100 100 100 100 100 100 100 100 100 100 100
100 99 89 96 53 46 24 9 79 76 81 56 78 100 100 100 100 100 100 100 100 100 100 100 100 100 100 100 100 100 100 100 100 100 100 100 100 100 100 100 100 100 100
87 66 69 89 76 83 90 91 100 83 88 96 92 100 100 100 90 98 100 100 100 100 100 100 100 100 100 100 100 100 100 100 100 100 100 100 100 100 100 100 100 100 100